<?xml version="1.0" encoding="UTF-8" standalone="no" ?>
<gpx xmlns="http://www.topografix.com/GPX/1/1" xmlns:xsi="http://www.w3.org/2001/XMLSchema-instance" xsi:schemaLocation="http://www.topografix.com/GPX/1/1 http://www.topografix.com/GPX/1/1/gpx.xsd" version="1.1" creator="VisuGPX - https://www.visugpx.com">
  <metadata>
    <name>Riaillé</name>
    <desc><![CDATA[Riaillé N6 et fin du 5]]></desc>
  </metadata>
  <trk>
    <name><![CDATA[Sequence 1]]></name>
    <trkseg>
      <trkpt lat="47.51762" lon="-1.29401">
        <ele>22</ele>
        <time>2015-02-07T14:02:48Z</time>
      </trkpt>
      <trkpt lat="47.51762" lon="-1.29401">
        <ele>22</ele>
        <time>2015-02-07T14:02:50Z</time>
      </trkpt>
      <trkpt lat="47.51762" lon="-1.29401">
        <ele>22</ele>
        <time>2015-02-07T14:02:54Z</time>
      </trkpt>
      <trkpt lat="47.51762" lon="-1.29401">
        <ele>22</ele>
        <time>2015-02-07T14:02:56Z</time>
      </trkpt>
      <trkpt lat="47.51762" lon="-1.29401">
        <ele>23</ele>
        <time>2015-02-07T14:02:58Z</time>
      </trkpt>
      <trkpt lat="47.51762" lon="-1.29401">
        <ele>23</ele>
        <time>2015-02-07T14:03:01Z</time>
      </trkpt>
      <trkpt lat="47.51762" lon="-1.29401">
        <ele>23</ele>
        <time>2015-02-07T14:03:04Z</time>
      </trkpt>
      <trkpt lat="47.51762" lon="-1.29401">
        <ele>23</ele>
        <time>2015-02-07T14:03:07Z</time>
      </trkpt>
      <trkpt lat="47.51762" lon="-1.29401">
        <ele>23</ele>
        <time>2015-02-07T14:03:10Z</time>
      </trkpt>
      <trkpt lat="47.51762" lon="-1.29401">
        <ele>23</ele>
        <time>2015-02-07T14:03:13Z</time>
      </trkpt>
      <trkpt lat="47.51762" lon="-1.29401">
        <ele>23</ele>
        <time>2015-02-07T14:03:16Z</time>
      </trkpt>
      <trkpt lat="47.51762" lon="-1.29401">
        <ele>23</ele>
        <time>2015-02-07T14:03:19Z</time>
      </trkpt>
      <trkpt lat="47.51762" lon="-1.29401">
        <ele>23</ele>
        <time>2015-02-07T14:03:22Z</time>
      </trkpt>
      <trkpt lat="47.51762" lon="-1.29401">
        <ele>24</ele>
        <time>2015-02-07T14:03:26Z</time>
      </trkpt>
      <trkpt lat="47.51762" lon="-1.29401">
        <ele>23</ele>
        <time>2015-02-07T14:03:29Z</time>
      </trkpt>
      <trkpt lat="47.51762" lon="-1.29401">
        <ele>24</ele>
        <time>2015-02-07T14:03:31Z</time>
      </trkpt>
      <trkpt lat="47.51761" lon="-1.29401">
        <ele>24</ele>
        <time>2015-02-07T14:03:34Z</time>
      </trkpt>
      <trkpt lat="47.51761" lon="-1.29401">
        <ele>26</ele>
        <time>2015-02-07T14:03:39Z</time>
      </trkpt>
      <trkpt lat="47.51761" lon="-1.29401">
        <ele>26</ele>
        <time>2015-02-07T14:03:41Z</time>
      </trkpt>
      <trkpt lat="47.51761" lon="-1.29401">
        <ele>26</ele>
        <time>2015-02-07T14:03:43Z</time>
      </trkpt>
      <trkpt lat="47.51761" lon="-1.29401">
        <ele>26</ele>
        <time>2015-02-07T14:03:46Z</time>
      </trkpt>
      <trkpt lat="47.51761" lon="-1.29401">
        <ele>27</ele>
        <time>2015-02-07T14:03:49Z</time>
      </trkpt>
      <trkpt lat="47.51761" lon="-1.29401">
        <ele>27</ele>
        <time>2015-02-07T14:03:54Z</time>
      </trkpt>
      <trkpt lat="47.51761" lon="-1.29401">
        <ele>28</ele>
        <time>2015-02-07T14:03:56Z</time>
      </trkpt>
      <trkpt lat="47.51761" lon="-1.294">
        <ele>28</ele>
        <time>2015-02-07T14:03:58Z</time>
      </trkpt>
      <trkpt lat="47.51761" lon="-1.294">
        <ele>28</ele>
        <time>2015-02-07T14:04:02Z</time>
      </trkpt>
      <trkpt lat="47.51761" lon="-1.294">
        <ele>28</ele>
        <time>2015-02-07T14:04:06Z</time>
      </trkpt>
      <trkpt lat="47.5176" lon="-1.294">
        <ele>28</ele>
        <time>2015-02-07T14:04:07Z</time>
      </trkpt>
      <trkpt lat="47.5176" lon="-1.294">
        <ele>29</ele>
        <time>2015-02-07T14:04:10Z</time>
      </trkpt>
      <trkpt lat="47.5176" lon="-1.294">
        <ele>29</ele>
        <time>2015-02-07T14:04:13Z</time>
      </trkpt>
      <trkpt lat="47.5176" lon="-1.294">
        <ele>29</ele>
        <time>2015-02-07T14:04:16Z</time>
      </trkpt>
      <trkpt lat="47.5176" lon="-1.294">
        <ele>30</ele>
        <time>2015-02-07T14:04:20Z</time>
      </trkpt>
      <trkpt lat="47.5176" lon="-1.294">
        <ele>30</ele>
        <time>2015-02-07T14:04:22Z</time>
      </trkpt>
      <trkpt lat="47.5176" lon="-1.294">
        <ele>30</ele>
        <time>2015-02-07T14:04:25Z</time>
      </trkpt>
      <trkpt lat="47.5176" lon="-1.294">
        <ele>30</ele>
        <time>2015-02-07T14:04:28Z</time>
      </trkpt>
      <trkpt lat="47.5176" lon="-1.294">
        <ele>30</ele>
        <time>2015-02-07T14:04:31Z</time>
      </trkpt>
      <trkpt lat="47.5176" lon="-1.294">
        <ele>30</ele>
        <time>2015-02-07T14:04:35Z</time>
      </trkpt>
      <trkpt lat="47.5176" lon="-1.294">
        <ele>30</ele>
        <time>2015-02-07T14:04:37Z</time>
      </trkpt>
      <trkpt lat="47.5176" lon="-1.294">
        <ele>30</ele>
        <time>2015-02-07T14:04:42Z</time>
      </trkpt>
      <trkpt lat="47.5176" lon="-1.294">
        <ele>30</ele>
        <time>2015-02-07T14:04:43Z</time>
      </trkpt>
      <trkpt lat="47.5176" lon="-1.294">
        <ele>30</ele>
        <time>2015-02-07T14:04:46Z</time>
      </trkpt>
      <trkpt lat="47.5176" lon="-1.294">
        <ele>31</ele>
        <time>2015-02-07T14:04:49Z</time>
      </trkpt>
      <trkpt lat="47.5176" lon="-1.294">
        <ele>31</ele>
        <time>2015-02-07T14:04:53Z</time>
      </trkpt>
      <trkpt lat="47.5176" lon="-1.294">
        <ele>31</ele>
        <time>2015-02-07T14:04:56Z</time>
      </trkpt>
      <trkpt lat="47.5176" lon="-1.294">
        <ele>31</ele>
        <time>2015-02-07T14:05:00Z</time>
      </trkpt>
      <trkpt lat="47.5176" lon="-1.294">
        <ele>31</ele>
        <time>2015-02-07T14:05:01Z</time>
      </trkpt>
      <trkpt lat="47.5176" lon="-1.294">
        <ele>31</ele>
        <time>2015-02-07T14:05:04Z</time>
      </trkpt>
      <trkpt lat="47.51759" lon="-1.294">
        <ele>31</ele>
        <time>2015-02-07T14:05:07Z</time>
      </trkpt>
      <trkpt lat="47.51759" lon="-1.294">
        <ele>31</ele>
        <time>2015-02-07T14:05:10Z</time>
      </trkpt>
      <trkpt lat="47.51759" lon="-1.294">
        <ele>31</ele>
        <time>2015-02-07T14:05:13Z</time>
      </trkpt>
      <trkpt lat="47.51759" lon="-1.294">
        <ele>32</ele>
        <time>2015-02-07T14:05:16Z</time>
      </trkpt>
      <trkpt lat="47.51759" lon="-1.294">
        <ele>32</ele>
        <time>2015-02-07T14:05:19Z</time>
      </trkpt>
      <trkpt lat="47.51759" lon="-1.294">
        <ele>32</ele>
        <time>2015-02-07T14:05:23Z</time>
      </trkpt>
      <trkpt lat="47.51759" lon="-1.294">
        <ele>32</ele>
        <time>2015-02-07T14:05:25Z</time>
      </trkpt>
      <trkpt lat="47.51751" lon="-1.29402">
        <ele>51</ele>
        <time>2015-02-07T14:05:29Z</time>
      </trkpt>
      <trkpt lat="47.51749" lon="-1.29397">
        <ele>51</ele>
        <time>2015-02-07T14:05:34Z</time>
      </trkpt>
      <trkpt lat="47.51745" lon="-1.29382">
        <ele>51</ele>
        <time>2015-02-07T14:05:39Z</time>
      </trkpt>
      <trkpt lat="47.51746" lon="-1.29372">
        <ele>51</ele>
        <time>2015-02-07T14:05:43Z</time>
      </trkpt>
      <trkpt lat="47.51744" lon="-1.29368">
        <ele>48</ele>
        <time>2015-02-07T14:05:48Z</time>
      </trkpt>
      <trkpt lat="47.51751" lon="-1.29356">
        <ele>47</ele>
        <time>2015-02-07T14:05:53Z</time>
      </trkpt>
      <trkpt lat="47.51755" lon="-1.2933">
        <ele>49</ele>
        <time>2015-02-07T14:05:58Z</time>
      </trkpt>
      <trkpt lat="47.51738" lon="-1.29272">
        <ele>45</ele>
        <time>2015-02-07T14:06:07Z</time>
      </trkpt>
      <trkpt lat="47.51719" lon="-1.29248">
        <ele>43</ele>
        <time>2015-02-07T14:06:12Z</time>
      </trkpt>
      <trkpt lat="47.51716" lon="-1.29245">
        <ele>42</ele>
        <time>2015-02-07T14:06:13Z</time>
      </trkpt>
      <trkpt lat="47.5171" lon="-1.29235">
        <ele>47</ele>
        <time>2015-02-07T14:06:18Z</time>
      </trkpt>
      <trkpt lat="47.51711" lon="-1.29223">
        <ele>42</ele>
        <time>2015-02-07T14:06:23Z</time>
      </trkpt>
      <trkpt lat="47.51744" lon="-1.29229">
        <ele>44</ele>
        <time>2015-02-07T14:06:32Z</time>
      </trkpt>
      <trkpt lat="47.51755" lon="-1.2923">
        <ele>43</ele>
        <time>2015-02-07T14:06:35Z</time>
      </trkpt>
      <trkpt lat="47.51757" lon="-1.29228">
        <ele>43</ele>
        <time>2015-02-07T14:06:38Z</time>
      </trkpt>
      <trkpt lat="47.51756" lon="-1.29225">
        <ele>43</ele>
        <time>2015-02-07T14:06:43Z</time>
      </trkpt>
      <trkpt lat="47.51756" lon="-1.29225">
        <ele>42</ele>
        <time>2015-02-07T14:06:49Z</time>
      </trkpt>
      <trkpt lat="47.51757" lon="-1.29225">
        <ele>41</ele>
        <time>2015-02-07T14:06:51Z</time>
      </trkpt>
      <trkpt lat="47.51757" lon="-1.29224">
        <ele>40</ele>
        <time>2015-02-07T14:06:54Z</time>
      </trkpt>
      <trkpt lat="47.51759" lon="-1.29223">
        <ele>39</ele>
        <time>2015-02-07T14:06:57Z</time>
      </trkpt>
      <trkpt lat="47.51763" lon="-1.29223">
        <ele>34</ele>
        <time>2015-02-07T14:07:02Z</time>
      </trkpt>
      <trkpt lat="47.51763" lon="-1.29225">
        <ele>35</ele>
        <time>2015-02-07T14:07:07Z</time>
      </trkpt>
      <trkpt lat="47.51762" lon="-1.29224">
        <ele>36</ele>
        <time>2015-02-07T14:07:11Z</time>
      </trkpt>
      <trkpt lat="47.51762" lon="-1.29224">
        <ele>35</ele>
        <time>2015-02-07T14:07:13Z</time>
      </trkpt>
      <trkpt lat="47.51761" lon="-1.29224">
        <ele>35</ele>
        <time>2015-02-07T14:07:16Z</time>
      </trkpt>
      <trkpt lat="47.51761" lon="-1.29224">
        <ele>36</ele>
        <time>2015-02-07T14:07:19Z</time>
      </trkpt>
      <trkpt lat="47.51761" lon="-1.29225">
        <ele>36</ele>
        <time>2015-02-07T14:07:22Z</time>
      </trkpt>
      <trkpt lat="47.51759" lon="-1.2923">
        <ele>38</ele>
        <time>2015-02-07T14:07:29Z</time>
      </trkpt>
      <trkpt lat="47.5176" lon="-1.29231">
        <ele>39</ele>
        <time>2015-02-07T14:07:30Z</time>
      </trkpt>
      <trkpt lat="47.51763" lon="-1.29233">
        <ele>38</ele>
        <time>2015-02-07T14:07:35Z</time>
      </trkpt>
      <trkpt lat="47.5176" lon="-1.29236">
        <ele>39</ele>
        <time>2015-02-07T14:07:40Z</time>
      </trkpt>
      <trkpt lat="47.51754" lon="-1.29224">
        <ele>37</ele>
        <time>2015-02-07T14:07:45Z</time>
      </trkpt>
      <trkpt lat="47.51755" lon="-1.29224">
        <ele>38</ele>
        <time>2015-02-07T14:07:50Z</time>
      </trkpt>
      <trkpt lat="47.51755" lon="-1.29225">
        <ele>38</ele>
        <time>2015-02-07T14:07:53Z</time>
      </trkpt>
      <trkpt lat="47.51755" lon="-1.29225">
        <ele>38</ele>
        <time>2015-02-07T14:07:56Z</time>
      </trkpt>
      <trkpt lat="47.51755" lon="-1.29225">
        <ele>39</ele>
        <time>2015-02-07T14:08:01Z</time>
      </trkpt>
      <trkpt lat="47.51755" lon="-1.29225">
        <ele>39</ele>
        <time>2015-02-07T14:08:02Z</time>
      </trkpt>
      <trkpt lat="47.51755" lon="-1.29225">
        <ele>39</ele>
        <time>2015-02-07T14:08:06Z</time>
      </trkpt>
      <trkpt lat="47.51755" lon="-1.29225">
        <ele>39</ele>
        <time>2015-02-07T14:08:09Z</time>
      </trkpt>
      <trkpt lat="47.51755" lon="-1.29225">
        <ele>39</ele>
        <time>2015-02-07T14:08:11Z</time>
      </trkpt>
      <trkpt lat="47.51755" lon="-1.29225">
        <ele>39</ele>
        <time>2015-02-07T14:08:16Z</time>
      </trkpt>
      <trkpt lat="47.51755" lon="-1.29225">
        <ele>39</ele>
        <time>2015-02-07T14:08:17Z</time>
      </trkpt>
      <trkpt lat="47.51755" lon="-1.29225">
        <ele>39</ele>
        <time>2015-02-07T14:08:20Z</time>
      </trkpt>
      <trkpt lat="47.51755" lon="-1.29225">
        <ele>39</ele>
        <time>2015-02-07T14:08:23Z</time>
      </trkpt>
      <trkpt lat="47.51755" lon="-1.29225">
        <ele>38</ele>
        <time>2015-02-07T14:08:26Z</time>
      </trkpt>
      <trkpt lat="47.51756" lon="-1.29224">
        <ele>37</ele>
        <time>2015-02-07T14:08:29Z</time>
      </trkpt>
      <trkpt lat="47.51756" lon="-1.29224">
        <ele>37</ele>
        <time>2015-02-07T14:08:32Z</time>
      </trkpt>
      <trkpt lat="47.51757" lon="-1.29223">
        <ele>37</ele>
        <time>2015-02-07T14:08:35Z</time>
      </trkpt>
      <trkpt lat="47.51757" lon="-1.29223">
        <ele>36</ele>
        <time>2015-02-07T14:08:38Z</time>
      </trkpt>
      <trkpt lat="47.51757" lon="-1.29222">
        <ele>36</ele>
        <time>2015-02-07T14:08:41Z</time>
      </trkpt>
      <trkpt lat="47.51758" lon="-1.29222">
        <ele>37</ele>
        <time>2015-02-07T14:08:44Z</time>
      </trkpt>
      <trkpt lat="47.51758" lon="-1.29222">
        <ele>37</ele>
        <time>2015-02-07T14:08:47Z</time>
      </trkpt>
      <trkpt lat="47.51758" lon="-1.29222">
        <ele>37</ele>
        <time>2015-02-07T14:08:50Z</time>
      </trkpt>
      <trkpt lat="47.51757" lon="-1.29224">
        <ele>37</ele>
        <time>2015-02-07T14:08:55Z</time>
      </trkpt>
      <trkpt lat="47.51757" lon="-1.29225">
        <ele>37</ele>
        <time>2015-02-07T14:08:57Z</time>
      </trkpt>
      <trkpt lat="47.5176" lon="-1.29233">
        <ele>40</ele>
        <time>2015-02-07T14:09:01Z</time>
      </trkpt>
      <trkpt lat="47.51767" lon="-1.2923">
        <ele>40</ele>
        <time>2015-02-07T14:09:04Z</time>
      </trkpt>
      <trkpt lat="47.51778" lon="-1.29212">
        <ele>40</ele>
        <time>2015-02-07T14:09:09Z</time>
      </trkpt>
      <trkpt lat="47.51788" lon="-1.29189">
        <ele>40</ele>
        <time>2015-02-07T14:09:14Z</time>
      </trkpt>
      <trkpt lat="47.51792" lon="-1.29148">
        <ele>40</ele>
        <time>2015-02-07T14:09:20Z</time>
      </trkpt>
      <trkpt lat="47.518" lon="-1.29119">
        <ele>38</ele>
        <time>2015-02-07T14:09:24Z</time>
      </trkpt>
      <trkpt lat="47.51827" lon="-1.29112">
        <ele>39</ele>
        <time>2015-02-07T14:09:30Z</time>
      </trkpt>
      <trkpt lat="47.51846" lon="-1.29113">
        <ele>39</ele>
        <time>2015-02-07T14:09:34Z</time>
      </trkpt>
      <trkpt lat="47.51865" lon="-1.29093">
        <ele>38</ele>
        <time>2015-02-07T14:09:39Z</time>
      </trkpt>
      <trkpt lat="47.51873" lon="-1.29051">
        <ele>37</ele>
        <time>2015-02-07T14:09:44Z</time>
      </trkpt>
      <trkpt lat="47.51881" lon="-1.28997">
        <ele>33</ele>
        <time>2015-02-07T14:09:50Z</time>
      </trkpt>
      <trkpt lat="47.51899" lon="-1.28966">
        <ele>32</ele>
        <time>2015-02-07T14:09:55Z</time>
      </trkpt>
      <trkpt lat="47.51919" lon="-1.28968">
        <ele>33</ele>
        <time>2015-02-07T14:09:59Z</time>
      </trkpt>
      <trkpt lat="47.51925" lon="-1.28937">
        <ele>31</ele>
        <time>2015-02-07T14:10:04Z</time>
      </trkpt>
      <trkpt lat="47.51936" lon="-1.2891">
        <ele>32</ele>
        <time>2015-02-07T14:10:09Z</time>
      </trkpt>
      <trkpt lat="47.51954" lon="-1.28914">
        <ele>31</ele>
        <time>2015-02-07T14:10:14Z</time>
      </trkpt>
      <trkpt lat="47.51971" lon="-1.28918">
        <ele>32</ele>
        <time>2015-02-07T14:10:19Z</time>
      </trkpt>
      <trkpt lat="47.51985" lon="-1.2893">
        <ele>33</ele>
        <time>2015-02-07T14:10:24Z</time>
      </trkpt>
      <trkpt lat="47.51999" lon="-1.28939">
        <ele>33</ele>
        <time>2015-02-07T14:10:29Z</time>
      </trkpt>
      <trkpt lat="47.52014" lon="-1.28949">
        <ele>35</ele>
        <time>2015-02-07T14:10:34Z</time>
      </trkpt>
      <trkpt lat="47.52029" lon="-1.2896">
        <ele>35</ele>
        <time>2015-02-07T14:10:39Z</time>
      </trkpt>
      <trkpt lat="47.52046" lon="-1.28973">
        <ele>35</ele>
        <time>2015-02-07T14:10:44Z</time>
      </trkpt>
      <trkpt lat="47.52062" lon="-1.28984">
        <ele>37</ele>
        <time>2015-02-07T14:10:49Z</time>
      </trkpt>
      <trkpt lat="47.52075" lon="-1.29">
        <ele>36</ele>
        <time>2015-02-07T14:10:54Z</time>
      </trkpt>
      <trkpt lat="47.52087" lon="-1.29013">
        <ele>36</ele>
        <time>2015-02-07T14:10:59Z</time>
      </trkpt>
      <trkpt lat="47.52095" lon="-1.29027">
        <ele>35</ele>
        <time>2015-02-07T14:11:04Z</time>
      </trkpt>
      <trkpt lat="47.52106" lon="-1.29043">
        <ele>36</ele>
        <time>2015-02-07T14:11:09Z</time>
      </trkpt>
      <trkpt lat="47.5212" lon="-1.29055">
        <ele>35</ele>
        <time>2015-02-07T14:11:14Z</time>
      </trkpt>
      <trkpt lat="47.52129" lon="-1.29073">
        <ele>36</ele>
        <time>2015-02-07T14:11:19Z</time>
      </trkpt>
      <trkpt lat="47.5212" lon="-1.29094">
        <ele>38</ele>
        <time>2015-02-07T14:11:24Z</time>
      </trkpt>
      <trkpt lat="47.52126" lon="-1.29096">
        <ele>38</ele>
        <time>2015-02-07T14:11:29Z</time>
      </trkpt>
      <trkpt lat="47.52141" lon="-1.29078">
        <ele>39</ele>
        <time>2015-02-07T14:11:34Z</time>
      </trkpt>
      <trkpt lat="47.52161" lon="-1.29056">
        <ele>41</ele>
        <time>2015-02-07T14:11:40Z</time>
      </trkpt>
      <trkpt lat="47.52173" lon="-1.29038">
        <ele>40</ele>
        <time>2015-02-07T14:11:44Z</time>
      </trkpt>
      <trkpt lat="47.52187" lon="-1.29016">
        <ele>41</ele>
        <time>2015-02-07T14:11:49Z</time>
      </trkpt>
      <trkpt lat="47.52202" lon="-1.28988">
        <ele>40</ele>
        <time>2015-02-07T14:11:55Z</time>
      </trkpt>
      <trkpt lat="47.52211" lon="-1.28962">
        <ele>41</ele>
        <time>2015-02-07T14:12:00Z</time>
      </trkpt>
      <trkpt lat="47.52225" lon="-1.28919">
        <ele>41</ele>
        <time>2015-02-07T14:12:08Z</time>
      </trkpt>
      <trkpt lat="47.52228" lon="-1.28914">
        <ele>41</ele>
        <time>2015-02-07T14:12:09Z</time>
      </trkpt>
      <trkpt lat="47.52239" lon="-1.28882">
        <ele>42</ele>
        <time>2015-02-07T14:12:15Z</time>
      </trkpt>
      <trkpt lat="47.52243" lon="-1.28858">
        <ele>41</ele>
        <time>2015-02-07T14:12:19Z</time>
      </trkpt>
      <trkpt lat="47.5224" lon="-1.28824">
        <ele>40</ele>
        <time>2015-02-07T14:12:24Z</time>
      </trkpt>
      <trkpt lat="47.52236" lon="-1.28788">
        <ele>38</ele>
        <time>2015-02-07T14:12:29Z</time>
      </trkpt>
      <trkpt lat="47.5223" lon="-1.28754">
        <ele>38</ele>
        <time>2015-02-07T14:12:34Z</time>
      </trkpt>
      <trkpt lat="47.52224" lon="-1.28723">
        <ele>42</ele>
        <time>2015-02-07T14:12:39Z</time>
      </trkpt>
      <trkpt lat="47.52217" lon="-1.28679">
        <ele>43</ele>
        <time>2015-02-07T14:12:46Z</time>
      </trkpt>
      <trkpt lat="47.52214" lon="-1.28662">
        <ele>44</ele>
        <time>2015-02-07T14:12:49Z</time>
      </trkpt>
      <trkpt lat="47.5221" lon="-1.28634">
        <ele>41</ele>
        <time>2015-02-07T14:12:54Z</time>
      </trkpt>
      <trkpt lat="47.52207" lon="-1.28605">
        <ele>41</ele>
        <time>2015-02-07T14:12:59Z</time>
      </trkpt>
      <trkpt lat="47.52202" lon="-1.28576">
        <ele>42</ele>
        <time>2015-02-07T14:13:04Z</time>
      </trkpt>
      <trkpt lat="47.52197" lon="-1.28541">
        <ele>40</ele>
        <time>2015-02-07T14:13:10Z</time>
      </trkpt>
      <trkpt lat="47.522" lon="-1.28507">
        <ele>41</ele>
        <time>2015-02-07T14:13:16Z</time>
      </trkpt>
      <trkpt lat="47.52202" lon="-1.2849">
        <ele>41</ele>
        <time>2015-02-07T14:13:19Z</time>
      </trkpt>
      <trkpt lat="47.52207" lon="-1.28462">
        <ele>43</ele>
        <time>2015-02-07T14:13:24Z</time>
      </trkpt>
      <trkpt lat="47.52215" lon="-1.2841">
        <ele>44</ele>
        <time>2015-02-07T14:13:33Z</time>
      </trkpt>
      <trkpt lat="47.52215" lon="-1.28404">
        <ele>44</ele>
        <time>2015-02-07T14:13:34Z</time>
      </trkpt>
      <trkpt lat="47.5222" lon="-1.28375">
        <ele>45</ele>
        <time>2015-02-07T14:13:39Z</time>
      </trkpt>
      <trkpt lat="47.52225" lon="-1.28345">
        <ele>45</ele>
        <time>2015-02-07T14:13:44Z</time>
      </trkpt>
      <trkpt lat="47.52236" lon="-1.28286">
        <ele>46</ele>
        <time>2015-02-07T14:13:53Z</time>
      </trkpt>
      <trkpt lat="47.52237" lon="-1.28275">
        <ele>48</ele>
        <time>2015-02-07T14:13:55Z</time>
      </trkpt>
      <trkpt lat="47.52241" lon="-1.28251">
        <ele>49</ele>
        <time>2015-02-07T14:13:59Z</time>
      </trkpt>
      <trkpt lat="47.52252" lon="-1.28213">
        <ele>46</ele>
        <time>2015-02-07T14:14:05Z</time>
      </trkpt>
      <trkpt lat="47.52259" lon="-1.2819">
        <ele>47</ele>
        <time>2015-02-07T14:14:09Z</time>
      </trkpt>
      <trkpt lat="47.52269" lon="-1.28161">
        <ele>48</ele>
        <time>2015-02-07T14:14:14Z</time>
      </trkpt>
      <trkpt lat="47.52279" lon="-1.28132">
        <ele>48</ele>
        <time>2015-02-07T14:14:19Z</time>
      </trkpt>
      <trkpt lat="47.52288" lon="-1.28103">
        <ele>48</ele>
        <time>2015-02-07T14:14:24Z</time>
      </trkpt>
      <trkpt lat="47.52315" lon="-1.28088">
        <ele>50</ele>
        <time>2015-02-07T14:14:31Z</time>
      </trkpt>
      <trkpt lat="47.52328" lon="-1.28087">
        <ele>51</ele>
        <time>2015-02-07T14:14:34Z</time>
      </trkpt>
      <trkpt lat="47.52349" lon="-1.28083">
        <ele>50</ele>
        <time>2015-02-07T14:14:39Z</time>
      </trkpt>
      <trkpt lat="47.5237" lon="-1.28077">
        <ele>50</ele>
        <time>2015-02-07T14:14:44Z</time>
      </trkpt>
      <trkpt lat="47.52402" lon="-1.28067">
        <ele>51</ele>
        <time>2015-02-07T14:14:52Z</time>
      </trkpt>
      <trkpt lat="47.52414" lon="-1.28063">
        <ele>50</ele>
        <time>2015-02-07T14:14:55Z</time>
      </trkpt>
      <trkpt lat="47.52433" lon="-1.28058">
        <ele>49</ele>
        <time>2015-02-07T14:14:59Z</time>
      </trkpt>
      <trkpt lat="47.52455" lon="-1.28051">
        <ele>49</ele>
        <time>2015-02-07T14:15:04Z</time>
      </trkpt>
      <trkpt lat="47.52477" lon="-1.28042">
        <ele>47</ele>
        <time>2015-02-07T14:15:09Z</time>
      </trkpt>
      <trkpt lat="47.52516" lon="-1.28026">
        <ele>46</ele>
        <time>2015-02-07T14:15:18Z</time>
      </trkpt>
      <trkpt lat="47.5252" lon="-1.28023">
        <ele>46</ele>
        <time>2015-02-07T14:15:19Z</time>
      </trkpt>
      <trkpt lat="47.52545" lon="-1.28013">
        <ele>47</ele>
        <time>2015-02-07T14:15:25Z</time>
      </trkpt>
      <trkpt lat="47.52578" lon="-1.28001">
        <ele>50</ele>
        <time>2015-02-07T14:15:33Z</time>
      </trkpt>
      <trkpt lat="47.52583" lon="-1.28">
        <ele>51</ele>
        <time>2015-02-07T14:15:34Z</time>
      </trkpt>
      <trkpt lat="47.52605" lon="-1.27993">
        <ele>52</ele>
        <time>2015-02-07T14:15:39Z</time>
      </trkpt>
      <trkpt lat="47.52625" lon="-1.27985">
        <ele>54</ele>
        <time>2015-02-07T14:15:44Z</time>
      </trkpt>
      <trkpt lat="47.52627" lon="-1.27965">
        <ele>49</ele>
        <time>2015-02-07T14:15:49Z</time>
      </trkpt>
      <trkpt lat="47.52619" lon="-1.27926">
        <ele>51</ele>
        <time>2015-02-07T14:15:55Z</time>
      </trkpt>
      <trkpt lat="47.52618" lon="-1.27896">
        <ele>48</ele>
        <time>2015-02-07T14:15:59Z</time>
      </trkpt>
      <trkpt lat="47.52612" lon="-1.27858">
        <ele>49</ele>
        <time>2015-02-07T14:16:04Z</time>
      </trkpt>
      <trkpt lat="47.52606" lon="-1.27813">
        <ele>46</ele>
        <time>2015-02-07T14:16:10Z</time>
      </trkpt>
      <trkpt lat="47.52597" lon="-1.27785">
        <ele>48</ele>
        <time>2015-02-07T14:16:14Z</time>
      </trkpt>
      <trkpt lat="47.52589" lon="-1.27735">
        <ele>50</ele>
        <time>2015-02-07T14:16:20Z</time>
      </trkpt>
      <trkpt lat="47.52592" lon="-1.27669">
        <ele>47</ele>
        <time>2015-02-07T14:16:28Z</time>
      </trkpt>
      <trkpt lat="47.52594" lon="-1.27663">
        <ele>48</ele>
        <time>2015-02-07T14:16:29Z</time>
      </trkpt>
      <trkpt lat="47.52603" lon="-1.2763">
        <ele>47</ele>
        <time>2015-02-07T14:16:34Z</time>
      </trkpt>
      <trkpt lat="47.52613" lon="-1.27586">
        <ele>48</ele>
        <time>2015-02-07T14:16:41Z</time>
      </trkpt>
      <trkpt lat="47.52622" lon="-1.27557">
        <ele>44</ele>
        <time>2015-02-07T14:16:45Z</time>
      </trkpt>
      <trkpt lat="47.52628" lon="-1.27528">
        <ele>44</ele>
        <time>2015-02-07T14:16:50Z</time>
      </trkpt>
      <trkpt lat="47.52632" lon="-1.27505">
        <ele>46</ele>
        <time>2015-02-07T14:16:55Z</time>
      </trkpt>
      <trkpt lat="47.52638" lon="-1.27487">
        <ele>47</ele>
        <time>2015-02-07T14:16:59Z</time>
      </trkpt>
      <trkpt lat="47.52643" lon="-1.27468">
        <ele>49</ele>
        <time>2015-02-07T14:17:04Z</time>
      </trkpt>
      <trkpt lat="47.52648" lon="-1.27449">
        <ele>49</ele>
        <time>2015-02-07T14:17:09Z</time>
      </trkpt>
      <trkpt lat="47.52658" lon="-1.27411">
        <ele>50</ele>
        <time>2015-02-07T14:17:18Z</time>
      </trkpt>
      <trkpt lat="47.52659" lon="-1.27407">
        <ele>51</ele>
        <time>2015-02-07T14:17:19Z</time>
      </trkpt>
      <trkpt lat="47.52665" lon="-1.27381">
        <ele>52</ele>
        <time>2015-02-07T14:17:25Z</time>
      </trkpt>
      <trkpt lat="47.52669" lon="-1.27363">
        <ele>53</ele>
        <time>2015-02-07T14:17:29Z</time>
      </trkpt>
      <trkpt lat="47.52677" lon="-1.27329">
        <ele>53</ele>
        <time>2015-02-07T14:17:37Z</time>
      </trkpt>
      <trkpt lat="47.52682" lon="-1.27308">
        <ele>53</ele>
        <time>2015-02-07T14:17:41Z</time>
      </trkpt>
      <trkpt lat="47.52686" lon="-1.27291">
        <ele>55</ele>
        <time>2015-02-07T14:17:44Z</time>
      </trkpt>
      <trkpt lat="47.52695" lon="-1.27258">
        <ele>56</ele>
        <time>2015-02-07T14:17:50Z</time>
      </trkpt>
      <trkpt lat="47.52701" lon="-1.27235">
        <ele>55</ele>
        <time>2015-02-07T14:17:54Z</time>
      </trkpt>
      <trkpt lat="47.5271" lon="-1.27197">
        <ele>57</ele>
        <time>2015-02-07T14:18:00Z</time>
      </trkpt>
      <trkpt lat="47.52718" lon="-1.27164">
        <ele>55</ele>
        <time>2015-02-07T14:18:05Z</time>
      </trkpt>
      <trkpt lat="47.52727" lon="-1.27138">
        <ele>50</ele>
        <time>2015-02-07T14:18:09Z</time>
      </trkpt>
      <trkpt lat="47.52734" lon="-1.27097">
        <ele>48</ele>
        <time>2015-02-07T14:18:14Z</time>
      </trkpt>
      <trkpt lat="47.52752" lon="-1.2703">
        <ele>51</ele>
        <time>2015-02-07T14:18:23Z</time>
      </trkpt>
      <trkpt lat="47.52756" lon="-1.27023">
        <ele>51</ele>
        <time>2015-02-07T14:18:24Z</time>
      </trkpt>
      <trkpt lat="47.52768" lon="-1.26973">
        <ele>55</ele>
        <time>2015-02-07T14:18:33Z</time>
      </trkpt>
      <trkpt lat="47.52769" lon="-1.26968">
        <ele>55</ele>
        <time>2015-02-07T14:18:34Z</time>
      </trkpt>
      <trkpt lat="47.52777" lon="-1.26934">
        <ele>56</ele>
        <time>2015-02-07T14:18:41Z</time>
      </trkpt>
      <trkpt lat="47.52782" lon="-1.26919">
        <ele>57</ele>
        <time>2015-02-07T14:18:44Z</time>
      </trkpt>
      <trkpt lat="47.52788" lon="-1.26886">
        <ele>56</ele>
        <time>2015-02-07T14:18:50Z</time>
      </trkpt>
      <trkpt lat="47.52794" lon="-1.26865">
        <ele>52</ele>
        <time>2015-02-07T14:18:54Z</time>
      </trkpt>
      <trkpt lat="47.52802" lon="-1.26837">
        <ele>54</ele>
        <time>2015-02-07T14:18:59Z</time>
      </trkpt>
      <trkpt lat="47.52809" lon="-1.2681">
        <ele>52</ele>
        <time>2015-02-07T14:19:04Z</time>
      </trkpt>
      <trkpt lat="47.52815" lon="-1.26783">
        <ele>54</ele>
        <time>2015-02-07T14:19:10Z</time>
      </trkpt>
      <trkpt lat="47.52823" lon="-1.26777">
        <ele>56</ele>
        <time>2015-02-07T14:19:14Z</time>
      </trkpt>
      <trkpt lat="47.52841" lon="-1.26791">
        <ele>58</ele>
        <time>2015-02-07T14:19:20Z</time>
      </trkpt>
      <trkpt lat="47.52865" lon="-1.26802">
        <ele>56</ele>
        <time>2015-02-07T14:19:27Z</time>
      </trkpt>
      <trkpt lat="47.52874" lon="-1.26806">
        <ele>54</ele>
        <time>2015-02-07T14:19:30Z</time>
      </trkpt>
      <trkpt lat="47.52891" lon="-1.26814">
        <ele>54</ele>
        <time>2015-02-07T14:19:35Z</time>
      </trkpt>
      <trkpt lat="47.52905" lon="-1.2682">
        <ele>57</ele>
        <time>2015-02-07T14:19:39Z</time>
      </trkpt>
      <trkpt lat="47.52924" lon="-1.26832">
        <ele>56</ele>
        <time>2015-02-07T14:19:45Z</time>
      </trkpt>
      <trkpt lat="47.52947" lon="-1.26847">
        <ele>53</ele>
        <time>2015-02-07T14:19:52Z</time>
      </trkpt>
      <trkpt lat="47.52955" lon="-1.26852">
        <ele>56</ele>
        <time>2015-02-07T14:19:54Z</time>
      </trkpt>
      <trkpt lat="47.52973" lon="-1.26861">
        <ele>59</ele>
        <time>2015-02-07T14:19:59Z</time>
      </trkpt>
      <trkpt lat="47.52989" lon="-1.26868">
        <ele>57</ele>
        <time>2015-02-07T14:20:04Z</time>
      </trkpt>
      <trkpt lat="47.53008" lon="-1.2688">
        <ele>56</ele>
        <time>2015-02-07T14:20:10Z</time>
      </trkpt>
      <trkpt lat="47.53022" lon="-1.26888">
        <ele>59</ele>
        <time>2015-02-07T14:20:14Z</time>
      </trkpt>
      <trkpt lat="47.53039" lon="-1.26896">
        <ele>60</ele>
        <time>2015-02-07T14:20:19Z</time>
      </trkpt>
      <trkpt lat="47.53063" lon="-1.26905">
        <ele>59</ele>
        <time>2015-02-07T14:20:26Z</time>
      </trkpt>
      <trkpt lat="47.53072" lon="-1.26898">
        <ele>56</ele>
        <time>2015-02-07T14:20:29Z</time>
      </trkpt>
      <trkpt lat="47.53078" lon="-1.26873">
        <ele>53</ele>
        <time>2015-02-07T14:20:34Z</time>
      </trkpt>
      <trkpt lat="47.53084" lon="-1.26844">
        <ele>57</ele>
        <time>2015-02-07T14:20:40Z</time>
      </trkpt>
      <trkpt lat="47.53091" lon="-1.2682">
        <ele>59</ele>
        <time>2015-02-07T14:20:44Z</time>
      </trkpt>
      <trkpt lat="47.531" lon="-1.26791">
        <ele>59</ele>
        <time>2015-02-07T14:20:49Z</time>
      </trkpt>
      <trkpt lat="47.53109" lon="-1.26758">
        <ele>51</ele>
        <time>2015-02-07T14:20:54Z</time>
      </trkpt>
      <trkpt lat="47.53117" lon="-1.26722">
        <ele>49</ele>
        <time>2015-02-07T14:20:59Z</time>
      </trkpt>
      <trkpt lat="47.5313" lon="-1.26673">
        <ele>48</ele>
        <time>2015-02-07T14:21:06Z</time>
      </trkpt>
      <trkpt lat="47.53136" lon="-1.26651">
        <ele>45</ele>
        <time>2015-02-07T14:21:09Z</time>
      </trkpt>
      <trkpt lat="47.53145" lon="-1.26609">
        <ele>45</ele>
        <time>2015-02-07T14:21:14Z</time>
      </trkpt>
      <trkpt lat="47.53152" lon="-1.26572">
        <ele>43</ele>
        <time>2015-02-07T14:21:19Z</time>
      </trkpt>
      <trkpt lat="47.53161" lon="-1.26538">
        <ele>41</ele>
        <time>2015-02-07T14:21:24Z</time>
      </trkpt>
      <trkpt lat="47.53171" lon="-1.26498">
        <ele>43</ele>
        <time>2015-02-07T14:21:33Z</time>
      </trkpt>
      <trkpt lat="47.53173" lon="-1.26496">
        <ele>42</ele>
        <time>2015-02-07T14:21:34Z</time>
      </trkpt>
      <trkpt lat="47.53185" lon="-1.26493">
        <ele>43</ele>
        <time>2015-02-07T14:21:39Z</time>
      </trkpt>
      <trkpt lat="47.53209" lon="-1.26506">
        <ele>46</ele>
        <time>2015-02-07T14:21:45Z</time>
      </trkpt>
      <trkpt lat="47.53234" lon="-1.2652">
        <ele>48</ele>
        <time>2015-02-07T14:21:52Z</time>
      </trkpt>
      <trkpt lat="47.53244" lon="-1.26526">
        <ele>47</ele>
        <time>2015-02-07T14:21:55Z</time>
      </trkpt>
      <trkpt lat="47.53258" lon="-1.26533">
        <ele>48</ele>
        <time>2015-02-07T14:21:59Z</time>
      </trkpt>
      <trkpt lat="47.53283" lon="-1.26547">
        <ele>50</ele>
        <time>2015-02-07T14:22:07Z</time>
      </trkpt>
      <trkpt lat="47.53293" lon="-1.26552">
        <ele>50</ele>
        <time>2015-02-07T14:22:10Z</time>
      </trkpt>
      <trkpt lat="47.53311" lon="-1.26561">
        <ele>51</ele>
        <time>2015-02-07T14:22:15Z</time>
      </trkpt>
      <trkpt lat="47.53325" lon="-1.26568">
        <ele>51</ele>
        <time>2015-02-07T14:22:19Z</time>
      </trkpt>
      <trkpt lat="47.53342" lon="-1.26578">
        <ele>51</ele>
        <time>2015-02-07T14:22:24Z</time>
      </trkpt>
      <trkpt lat="47.53357" lon="-1.26586">
        <ele>51</ele>
        <time>2015-02-07T14:22:29Z</time>
      </trkpt>
      <trkpt lat="47.53372" lon="-1.26593">
        <ele>53</ele>
        <time>2015-02-07T14:22:34Z</time>
      </trkpt>
      <trkpt lat="47.53387" lon="-1.26603">
        <ele>54</ele>
        <time>2015-02-07T14:22:39Z</time>
      </trkpt>
      <trkpt lat="47.53389" lon="-1.26603">
        <ele>53</ele>
        <time>2015-02-07T14:22:45Z</time>
      </trkpt>
      <trkpt lat="47.53389" lon="-1.26602">
        <ele>53</ele>
        <time>2015-02-07T14:22:47Z</time>
      </trkpt>
      <trkpt lat="47.53389" lon="-1.26602">
        <ele>53</ele>
        <time>2015-02-07T14:22:50Z</time>
      </trkpt>
      <trkpt lat="47.53389" lon="-1.26602">
        <ele>54</ele>
        <time>2015-02-07T14:22:54Z</time>
      </trkpt>
      <trkpt lat="47.53389" lon="-1.26602">
        <ele>54</ele>
        <time>2015-02-07T14:22:56Z</time>
      </trkpt>
      <trkpt lat="47.53393" lon="-1.26603">
        <ele>55</ele>
        <time>2015-02-07T14:23:01Z</time>
      </trkpt>
      <trkpt lat="47.53412" lon="-1.26613">
        <ele>53</ele>
        <time>2015-02-07T14:23:07Z</time>
      </trkpt>
      <trkpt lat="47.53423" lon="-1.26619">
        <ele>53</ele>
        <time>2015-02-07T14:23:10Z</time>
      </trkpt>
      <trkpt lat="47.53439" lon="-1.26627">
        <ele>54</ele>
        <time>2015-02-07T14:23:14Z</time>
      </trkpt>
      <trkpt lat="47.53458" lon="-1.26639">
        <ele>51</ele>
        <time>2015-02-07T14:23:19Z</time>
      </trkpt>
      <trkpt lat="47.53475" lon="-1.26649">
        <ele>51</ele>
        <time>2015-02-07T14:23:24Z</time>
      </trkpt>
      <trkpt lat="47.53492" lon="-1.26657">
        <ele>52</ele>
        <time>2015-02-07T14:23:30Z</time>
      </trkpt>
      <trkpt lat="47.53496" lon="-1.26665">
        <ele>53</ele>
        <time>2015-02-07T14:23:34Z</time>
      </trkpt>
      <trkpt lat="47.53494" lon="-1.26666">
        <ele>53</ele>
        <time>2015-02-07T14:23:39Z</time>
      </trkpt>
      <trkpt lat="47.53495" lon="-1.26666">
        <ele>53</ele>
        <time>2015-02-07T14:23:43Z</time>
      </trkpt>
      <trkpt lat="47.53496" lon="-1.26666">
        <ele>53</ele>
        <time>2015-02-07T14:23:45Z</time>
      </trkpt>
      <trkpt lat="47.53496" lon="-1.26666">
        <ele>53</ele>
        <time>2015-02-07T14:23:48Z</time>
      </trkpt>
      <trkpt lat="47.53496" lon="-1.26666">
        <ele>53</ele>
        <time>2015-02-07T14:23:51Z</time>
      </trkpt>
      <trkpt lat="47.53496" lon="-1.26668">
        <ele>55</ele>
        <time>2015-02-07T14:23:54Z</time>
      </trkpt>
      <trkpt lat="47.53493" lon="-1.26672">
        <ele>52</ele>
        <time>2015-02-07T14:23:59Z</time>
      </trkpt>
      <trkpt lat="47.53493" lon="-1.26672">
        <ele>51</ele>
        <time>2015-02-07T14:24:04Z</time>
      </trkpt>
      <trkpt lat="47.53493" lon="-1.26672">
        <ele>51</ele>
        <time>2015-02-07T14:24:07Z</time>
      </trkpt>
      <trkpt lat="47.53493" lon="-1.26672">
        <ele>51</ele>
        <time>2015-02-07T14:24:10Z</time>
      </trkpt>
      <trkpt lat="47.53493" lon="-1.26671">
        <ele>51</ele>
        <time>2015-02-07T14:24:14Z</time>
      </trkpt>
      <trkpt lat="47.53493" lon="-1.26671">
        <ele>51</ele>
        <time>2015-02-07T14:24:16Z</time>
      </trkpt>
      <trkpt lat="47.53493" lon="-1.26671">
        <ele>51</ele>
        <time>2015-02-07T14:24:19Z</time>
      </trkpt>
      <trkpt lat="47.53493" lon="-1.26671">
        <ele>51</ele>
        <time>2015-02-07T14:24:24Z</time>
      </trkpt>
      <trkpt lat="47.53493" lon="-1.26671">
        <ele>51</ele>
        <time>2015-02-07T14:24:25Z</time>
      </trkpt>
      <trkpt lat="47.53493" lon="-1.26671">
        <ele>51</ele>
        <time>2015-02-07T14:24:28Z</time>
      </trkpt>
      <trkpt lat="47.53493" lon="-1.26671">
        <ele>51</ele>
        <time>2015-02-07T14:24:31Z</time>
      </trkpt>
      <trkpt lat="47.53493" lon="-1.26671">
        <ele>51</ele>
        <time>2015-02-07T14:24:34Z</time>
      </trkpt>
      <trkpt lat="47.53493" lon="-1.26671">
        <ele>51</ele>
        <time>2015-02-07T14:24:38Z</time>
      </trkpt>
      <trkpt lat="47.53493" lon="-1.26671">
        <ele>51</ele>
        <time>2015-02-07T14:24:40Z</time>
      </trkpt>
      <trkpt lat="47.53493" lon="-1.26671">
        <ele>51</ele>
        <time>2015-02-07T14:24:43Z</time>
      </trkpt>
      <trkpt lat="47.53493" lon="-1.26671">
        <ele>51</ele>
        <time>2015-02-07T14:24:46Z</time>
      </trkpt>
      <trkpt lat="47.53493" lon="-1.26671">
        <ele>51</ele>
        <time>2015-02-07T14:24:49Z</time>
      </trkpt>
      <trkpt lat="47.53493" lon="-1.26671">
        <ele>51</ele>
        <time>2015-02-07T14:24:54Z</time>
      </trkpt>
      <trkpt lat="47.53492" lon="-1.26673">
        <ele>50</ele>
        <time>2015-02-07T14:24:56Z</time>
      </trkpt>
      <trkpt lat="47.53486" lon="-1.26684">
        <ele>53</ele>
        <time>2015-02-07T14:25:00Z</time>
      </trkpt>
      <trkpt lat="47.53479" lon="-1.26698">
        <ele>55</ele>
        <time>2015-02-07T14:25:05Z</time>
      </trkpt>
      <trkpt lat="47.53468" lon="-1.26717">
        <ele>56</ele>
        <time>2015-02-07T14:25:12Z</time>
      </trkpt>
      <trkpt lat="47.53462" lon="-1.26724">
        <ele>57</ele>
        <time>2015-02-07T14:25:15Z</time>
      </trkpt>
      <trkpt lat="47.53448" lon="-1.26748">
        <ele>57</ele>
        <time>2015-02-07T14:25:24Z</time>
      </trkpt>
      <trkpt lat="47.53446" lon="-1.2675">
        <ele>57</ele>
        <time>2015-02-07T14:25:25Z</time>
      </trkpt>
      <trkpt lat="47.53438" lon="-1.26763">
        <ele>55</ele>
        <time>2015-02-07T14:25:30Z</time>
      </trkpt>
      <trkpt lat="47.53429" lon="-1.26776">
        <ele>54</ele>
        <time>2015-02-07T14:25:35Z</time>
      </trkpt>
      <trkpt lat="47.53421" lon="-1.26789">
        <ele>53</ele>
        <time>2015-02-07T14:25:40Z</time>
      </trkpt>
      <trkpt lat="47.53412" lon="-1.26805">
        <ele>56</ele>
        <time>2015-02-07T14:25:46Z</time>
      </trkpt>
      <trkpt lat="47.53405" lon="-1.26817">
        <ele>56</ele>
        <time>2015-02-07T14:25:50Z</time>
      </trkpt>
      <trkpt lat="47.53394" lon="-1.26834">
        <ele>56</ele>
        <time>2015-02-07T14:25:55Z</time>
      </trkpt>
      <trkpt lat="47.5338" lon="-1.26857">
        <ele>57</ele>
        <time>2015-02-07T14:26:03Z</time>
      </trkpt>
      <trkpt lat="47.53375" lon="-1.26867">
        <ele>55</ele>
        <time>2015-02-07T14:26:07Z</time>
      </trkpt>
      <trkpt lat="47.53373" lon="-1.26872">
        <ele>55</ele>
        <time>2015-02-07T14:26:10Z</time>
      </trkpt>
      <trkpt lat="47.53369" lon="-1.26877">
        <ele>53</ele>
        <time>2015-02-07T14:26:16Z</time>
      </trkpt>
      <trkpt lat="47.53359" lon="-1.26884">
        <ele>54</ele>
        <time>2015-02-07T14:26:24Z</time>
      </trkpt>
      <trkpt lat="47.53358" lon="-1.26887">
        <ele>56</ele>
        <time>2015-02-07T14:26:25Z</time>
      </trkpt>
      <trkpt lat="47.53347" lon="-1.26905">
        <ele>55</ele>
        <time>2015-02-07T14:26:33Z</time>
      </trkpt>
      <trkpt lat="47.5334" lon="-1.26917">
        <ele>56</ele>
        <time>2015-02-07T14:26:37Z</time>
      </trkpt>
      <trkpt lat="47.53334" lon="-1.26925">
        <ele>55</ele>
        <time>2015-02-07T14:26:40Z</time>
      </trkpt>
      <trkpt lat="47.53325" lon="-1.2694">
        <ele>55</ele>
        <time>2015-02-07T14:26:45Z</time>
      </trkpt>
      <trkpt lat="47.53312" lon="-1.26958">
        <ele>58</ele>
        <time>2015-02-07T14:26:51Z</time>
      </trkpt>
      <trkpt lat="47.53303" lon="-1.26972">
        <ele>56</ele>
        <time>2015-02-07T14:26:55Z</time>
      </trkpt>
      <trkpt lat="47.53287" lon="-1.26997">
        <ele>58</ele>
        <time>2015-02-07T14:27:02Z</time>
      </trkpt>
      <trkpt lat="47.5328" lon="-1.27007">
        <ele>60</ele>
        <time>2015-02-07T14:27:05Z</time>
      </trkpt>
      <trkpt lat="47.53269" lon="-1.27025">
        <ele>59</ele>
        <time>2015-02-07T14:27:10Z</time>
      </trkpt>
      <trkpt lat="47.5326" lon="-1.27043">
        <ele>61</ele>
        <time>2015-02-07T14:27:15Z</time>
      </trkpt>
      <trkpt lat="47.53241" lon="-1.27074">
        <ele>56</ele>
        <time>2015-02-07T14:27:24Z</time>
      </trkpt>
      <trkpt lat="47.53239" lon="-1.27077">
        <ele>57</ele>
        <time>2015-02-07T14:27:25Z</time>
      </trkpt>
      <trkpt lat="47.53227" lon="-1.27097">
        <ele>59</ele>
        <time>2015-02-07T14:27:31Z</time>
      </trkpt>
      <trkpt lat="47.53219" lon="-1.27107">
        <ele>60</ele>
        <time>2015-02-07T14:27:35Z</time>
      </trkpt>
      <trkpt lat="47.53207" lon="-1.27125">
        <ele>61</ele>
        <time>2015-02-07T14:27:41Z</time>
      </trkpt>
      <trkpt lat="47.53198" lon="-1.27138">
        <ele>61</ele>
        <time>2015-02-07T14:27:45Z</time>
      </trkpt>
      <trkpt lat="47.53188" lon="-1.27156">
        <ele>60</ele>
        <time>2015-02-07T14:27:50Z</time>
      </trkpt>
      <trkpt lat="47.53175" lon="-1.27173">
        <ele>60</ele>
        <time>2015-02-07T14:27:55Z</time>
      </trkpt>
      <trkpt lat="47.53167" lon="-1.27189">
        <ele>61</ele>
        <time>2015-02-07T14:28:00Z</time>
      </trkpt>
      <trkpt lat="47.53163" lon="-1.2721">
        <ele>61</ele>
        <time>2015-02-07T14:28:06Z</time>
      </trkpt>
      <trkpt lat="47.53161" lon="-1.27232">
        <ele>61</ele>
        <time>2015-02-07T14:28:10Z</time>
      </trkpt>
      <trkpt lat="47.53161" lon="-1.27262">
        <ele>62</ele>
        <time>2015-02-07T14:28:16Z</time>
      </trkpt>
      <trkpt lat="47.53163" lon="-1.27279">
        <ele>63</ele>
        <time>2015-02-07T14:28:20Z</time>
      </trkpt>
      <trkpt lat="47.53161" lon="-1.27321">
        <ele>52</ele>
        <time>2015-02-07T14:28:29Z</time>
      </trkpt>
      <trkpt lat="47.53161" lon="-1.27326">
        <ele>52</ele>
        <time>2015-02-07T14:28:30Z</time>
      </trkpt>
      <trkpt lat="47.53162" lon="-1.27345">
        <ele>53</ele>
        <time>2015-02-07T14:28:35Z</time>
      </trkpt>
      <trkpt lat="47.53159" lon="-1.27381">
        <ele>56</ele>
        <time>2015-02-07T14:28:44Z</time>
      </trkpt>
      <trkpt lat="47.53159" lon="-1.27386">
        <ele>54</ele>
        <time>2015-02-07T14:28:45Z</time>
      </trkpt>
      <trkpt lat="47.53155" lon="-1.27427">
        <ele>58</ele>
        <time>2015-02-07T14:28:54Z</time>
      </trkpt>
      <trkpt lat="47.53155" lon="-1.27432">
        <ele>56</ele>
        <time>2015-02-07T14:28:55Z</time>
      </trkpt>
      <trkpt lat="47.53152" lon="-1.27467">
        <ele>58</ele>
        <time>2015-02-07T14:29:03Z</time>
      </trkpt>
      <trkpt lat="47.53148" lon="-1.27475">
        <ele>59</ele>
        <time>2015-02-07T14:29:05Z</time>
      </trkpt>
      <trkpt lat="47.5314" lon="-1.27491">
        <ele>59</ele>
        <time>2015-02-07T14:29:10Z</time>
      </trkpt>
      <trkpt lat="47.53132" lon="-1.27508">
        <ele>58</ele>
        <time>2015-02-07T14:29:15Z</time>
      </trkpt>
      <trkpt lat="47.53126" lon="-1.27526">
        <ele>61</ele>
        <time>2015-02-07T14:29:20Z</time>
      </trkpt>
      <trkpt lat="47.53119" lon="-1.27547">
        <ele>62</ele>
        <time>2015-02-07T14:29:28Z</time>
      </trkpt>
      <trkpt lat="47.53116" lon="-1.27555">
        <ele>64</ele>
        <time>2015-02-07T14:29:30Z</time>
      </trkpt>
      <trkpt lat="47.53103" lon="-1.27587">
        <ele>63</ele>
        <time>2015-02-07T14:29:38Z</time>
      </trkpt>
      <trkpt lat="47.531" lon="-1.27592">
        <ele>65</ele>
        <time>2015-02-07T14:29:40Z</time>
      </trkpt>
      <trkpt lat="47.53088" lon="-1.27622">
        <ele>64</ele>
        <time>2015-02-07T14:29:48Z</time>
      </trkpt>
      <trkpt lat="47.53085" lon="-1.27631">
        <ele>64</ele>
        <time>2015-02-07T14:29:50Z</time>
      </trkpt>
      <trkpt lat="47.53077" lon="-1.27649">
        <ele>64</ele>
        <time>2015-02-07T14:29:55Z</time>
      </trkpt>
      <trkpt lat="47.53065" lon="-1.27678">
        <ele>63</ele>
        <time>2015-02-07T14:30:03Z</time>
      </trkpt>
      <trkpt lat="47.53061" lon="-1.27689">
        <ele>63</ele>
        <time>2015-02-07T14:30:06Z</time>
      </trkpt>
      <trkpt lat="47.53056" lon="-1.27704">
        <ele>63</ele>
        <time>2015-02-07T14:30:10Z</time>
      </trkpt>
      <trkpt lat="47.5305" lon="-1.27726">
        <ele>63</ele>
        <time>2015-02-07T14:30:16Z</time>
      </trkpt>
      <trkpt lat="47.53046" lon="-1.2774">
        <ele>62</ele>
        <time>2015-02-07T14:30:20Z</time>
      </trkpt>
      <trkpt lat="47.53039" lon="-1.27756">
        <ele>64</ele>
        <time>2015-02-07T14:30:25Z</time>
      </trkpt>
      <trkpt lat="47.53032" lon="-1.27785">
        <ele>61</ele>
        <time>2015-02-07T14:30:33Z</time>
      </trkpt>
      <trkpt lat="47.5303" lon="-1.27793">
        <ele>61</ele>
        <time>2015-02-07T14:30:35Z</time>
      </trkpt>
      <trkpt lat="47.53025" lon="-1.27811">
        <ele>61</ele>
        <time>2015-02-07T14:30:40Z</time>
      </trkpt>
      <trkpt lat="47.53015" lon="-1.27843">
        <ele>60</ele>
        <time>2015-02-07T14:30:49Z</time>
      </trkpt>
      <trkpt lat="47.53014" lon="-1.27847">
        <ele>59</ele>
        <time>2015-02-07T14:30:50Z</time>
      </trkpt>
      <trkpt lat="47.53006" lon="-1.27865">
        <ele>59</ele>
        <time>2015-02-07T14:30:55Z</time>
      </trkpt>
      <trkpt lat="47.52998" lon="-1.27882">
        <ele>65</ele>
        <time>2015-02-07T14:31:01Z</time>
      </trkpt>
      <trkpt lat="47.52992" lon="-1.27894">
        <ele>64</ele>
        <time>2015-02-07T14:31:06Z</time>
      </trkpt>
      <trkpt lat="47.52986" lon="-1.27923">
        <ele>65</ele>
        <time>2015-02-07T14:31:14Z</time>
      </trkpt>
      <trkpt lat="47.52985" lon="-1.27927">
        <ele>66</ele>
        <time>2015-02-07T14:31:15Z</time>
      </trkpt>
      <trkpt lat="47.52982" lon="-1.27945">
        <ele>64</ele>
        <time>2015-02-07T14:31:20Z</time>
      </trkpt>
      <trkpt lat="47.52979" lon="-1.27963">
        <ele>67</ele>
        <time>2015-02-07T14:31:25Z</time>
      </trkpt>
      <trkpt lat="47.52976" lon="-1.27977">
        <ele>68</ele>
        <time>2015-02-07T14:31:30Z</time>
      </trkpt>
      <trkpt lat="47.52978" lon="-1.27998">
        <ele>69</ele>
        <time>2015-02-07T14:31:35Z</time>
      </trkpt>
      <trkpt lat="47.52977" lon="-1.2802">
        <ele>69</ele>
        <time>2015-02-07T14:31:40Z</time>
      </trkpt>
      <trkpt lat="47.52974" lon="-1.28045">
        <ele>70</ele>
        <time>2015-02-07T14:31:46Z</time>
      </trkpt>
      <trkpt lat="47.5297" lon="-1.28069">
        <ele>70</ele>
        <time>2015-02-07T14:31:52Z</time>
      </trkpt>
      <trkpt lat="47.52969" lon="-1.28081">
        <ele>69</ele>
        <time>2015-02-07T14:31:55Z</time>
      </trkpt>
      <trkpt lat="47.52967" lon="-1.28105">
        <ele>71</ele>
        <time>2015-02-07T14:32:00Z</time>
      </trkpt>
      <trkpt lat="47.52962" lon="-1.2813">
        <ele>71</ele>
        <time>2015-02-07T14:32:05Z</time>
      </trkpt>
      <trkpt lat="47.52959" lon="-1.28155">
        <ele>72</ele>
        <time>2015-02-07T14:32:10Z</time>
      </trkpt>
      <trkpt lat="47.52956" lon="-1.2818">
        <ele>70</ele>
        <time>2015-02-07T14:32:15Z</time>
      </trkpt>
      <trkpt lat="47.52953" lon="-1.2821">
        <ele>68</ele>
        <time>2015-02-07T14:32:21Z</time>
      </trkpt>
      <trkpt lat="47.52951" lon="-1.28236">
        <ele>64</ele>
        <time>2015-02-07T14:32:26Z</time>
      </trkpt>
      <trkpt lat="47.52949" lon="-1.28256">
        <ele>63</ele>
        <time>2015-02-07T14:32:30Z</time>
      </trkpt>
      <trkpt lat="47.52946" lon="-1.28282">
        <ele>63</ele>
        <time>2015-02-07T14:32:35Z</time>
      </trkpt>
      <trkpt lat="47.52944" lon="-1.28305">
        <ele>62</ele>
        <time>2015-02-07T14:32:40Z</time>
      </trkpt>
      <trkpt lat="47.52943" lon="-1.28325">
        <ele>64</ele>
        <time>2015-02-07T14:32:45Z</time>
      </trkpt>
      <trkpt lat="47.52938" lon="-1.28349">
        <ele>62</ele>
        <time>2015-02-07T14:32:50Z</time>
      </trkpt>
      <trkpt lat="47.52933" lon="-1.28388">
        <ele>62</ele>
        <time>2015-02-07T14:32:58Z</time>
      </trkpt>
      <trkpt lat="47.52929" lon="-1.28422">
        <ele>60</ele>
        <time>2015-02-07T14:33:04Z</time>
      </trkpt>
      <trkpt lat="47.52928" lon="-1.28428">
        <ele>62</ele>
        <time>2015-02-07T14:33:05Z</time>
      </trkpt>
      <trkpt lat="47.52925" lon="-1.28457">
        <ele>61</ele>
        <time>2015-02-07T14:33:10Z</time>
      </trkpt>
      <trkpt lat="47.52922" lon="-1.28486">
        <ele>61</ele>
        <time>2015-02-07T14:33:15Z</time>
      </trkpt>
      <trkpt lat="47.52919" lon="-1.28521">
        <ele>62</ele>
        <time>2015-02-07T14:33:21Z</time>
      </trkpt>
      <trkpt lat="47.52915" lon="-1.28552">
        <ele>61</ele>
        <time>2015-02-07T14:33:26Z</time>
      </trkpt>
      <trkpt lat="47.52912" lon="-1.28578">
        <ele>61</ele>
        <time>2015-02-07T14:33:30Z</time>
      </trkpt>
      <trkpt lat="47.52908" lon="-1.28616">
        <ele>59</ele>
        <time>2015-02-07T14:33:36Z</time>
      </trkpt>
      <trkpt lat="47.52903" lon="-1.28646">
        <ele>58</ele>
        <time>2015-02-07T14:33:41Z</time>
      </trkpt>
      <trkpt lat="47.529" lon="-1.28671">
        <ele>59</ele>
        <time>2015-02-07T14:33:45Z</time>
      </trkpt>
      <trkpt lat="47.52896" lon="-1.28705">
        <ele>58</ele>
        <time>2015-02-07T14:33:50Z</time>
      </trkpt>
      <trkpt lat="47.52893" lon="-1.28737">
        <ele>58</ele>
        <time>2015-02-07T14:33:55Z</time>
      </trkpt>
      <trkpt lat="47.52886" lon="-1.28796">
        <ele>57</ele>
        <time>2015-02-07T14:34:04Z</time>
      </trkpt>
      <trkpt lat="47.52884" lon="-1.28812">
        <ele>57</ele>
        <time>2015-02-07T14:34:07Z</time>
      </trkpt>
      <trkpt lat="47.5289" lon="-1.28826">
        <ele>58</ele>
        <time>2015-02-07T14:34:13Z</time>
      </trkpt>
      <trkpt lat="47.52899" lon="-1.28822">
        <ele>56</ele>
        <time>2015-02-07T14:34:16Z</time>
      </trkpt>
      <trkpt lat="47.52914" lon="-1.28816">
        <ele>55</ele>
        <time>2015-02-07T14:34:20Z</time>
      </trkpt>
      <trkpt lat="47.52935" lon="-1.28807">
        <ele>55</ele>
        <time>2015-02-07T14:34:26Z</time>
      </trkpt>
      <trkpt lat="47.52949" lon="-1.288">
        <ele>54</ele>
        <time>2015-02-07T14:34:30Z</time>
      </trkpt>
      <trkpt lat="47.52975" lon="-1.28789">
        <ele>57</ele>
        <time>2015-02-07T14:34:36Z</time>
      </trkpt>
      <trkpt lat="47.52991" lon="-1.28782">
        <ele>56</ele>
        <time>2015-02-07T14:34:40Z</time>
      </trkpt>
      <trkpt lat="47.53015" lon="-1.28771">
        <ele>56</ele>
        <time>2015-02-07T14:34:46Z</time>
      </trkpt>
      <trkpt lat="47.53031" lon="-1.28765">
        <ele>56</ele>
        <time>2015-02-07T14:34:50Z</time>
      </trkpt>
      <trkpt lat="47.53047" lon="-1.28808">
        <ele>59</ele>
        <time>2015-02-07T14:34:58Z</time>
      </trkpt>
      <trkpt lat="47.53051" lon="-1.28818">
        <ele>60</ele>
        <time>2015-02-07T14:35:00Z</time>
      </trkpt>
      <trkpt lat="47.53067" lon="-1.2886">
        <ele>58</ele>
        <time>2015-02-07T14:35:07Z</time>
      </trkpt>
      <trkpt lat="47.53078" lon="-1.28893">
        <ele>58</ele>
        <time>2015-02-07T14:35:11Z</time>
      </trkpt>
      <trkpt lat="47.53091" lon="-1.28924">
        <ele>57</ele>
        <time>2015-02-07T14:35:15Z</time>
      </trkpt>
      <trkpt lat="47.5311" lon="-1.28968">
        <ele>56</ele>
        <time>2015-02-07T14:35:20Z</time>
      </trkpt>
      <trkpt lat="47.5312" lon="-1.28993">
        <ele>51</ele>
        <time>2015-02-07T14:35:25Z</time>
      </trkpt>
      <trkpt lat="47.53122" lon="-1.2901">
        <ele>52</ele>
        <time>2015-02-07T14:35:31Z</time>
      </trkpt>
      <trkpt lat="47.53124" lon="-1.29016">
        <ele>52</ele>
        <time>2015-02-07T14:35:35Z</time>
      </trkpt>
      <trkpt lat="47.53126" lon="-1.29027">
        <ele>54</ele>
        <time>2015-02-07T14:35:40Z</time>
      </trkpt>
      <trkpt lat="47.53128" lon="-1.29039">
        <ele>52</ele>
        <time>2015-02-07T14:35:45Z</time>
      </trkpt>
      <trkpt lat="47.53129" lon="-1.29049">
        <ele>52</ele>
        <time>2015-02-07T14:35:50Z</time>
      </trkpt>
      <trkpt lat="47.5313" lon="-1.29056">
        <ele>54</ele>
        <time>2015-02-07T14:35:58Z</time>
      </trkpt>
      <trkpt lat="47.5313" lon="-1.29058">
        <ele>55</ele>
        <time>2015-02-07T14:36:00Z</time>
      </trkpt>
      <trkpt lat="47.53133" lon="-1.29073">
        <ele>55</ele>
        <time>2015-02-07T14:36:05Z</time>
      </trkpt>
      <trkpt lat="47.53135" lon="-1.29083">
        <ele>56</ele>
        <time>2015-02-07T14:36:10Z</time>
      </trkpt>
      <trkpt lat="47.53137" lon="-1.29101">
        <ele>55</ele>
        <time>2015-02-07T14:36:16Z</time>
      </trkpt>
      <trkpt lat="47.53139" lon="-1.29115">
        <ele>56</ele>
        <time>2015-02-07T14:36:20Z</time>
      </trkpt>
      <trkpt lat="47.53143" lon="-1.29138">
        <ele>57</ele>
        <time>2015-02-07T14:36:26Z</time>
      </trkpt>
      <trkpt lat="47.53147" lon="-1.29153">
        <ele>58</ele>
        <time>2015-02-07T14:36:30Z</time>
      </trkpt>
      <trkpt lat="47.5315" lon="-1.29173">
        <ele>58</ele>
        <time>2015-02-07T14:36:35Z</time>
      </trkpt>
      <trkpt lat="47.53156" lon="-1.29202">
        <ele>55</ele>
        <time>2015-02-07T14:36:42Z</time>
      </trkpt>
      <trkpt lat="47.53156" lon="-1.29212">
        <ele>56</ele>
        <time>2015-02-07T14:36:45Z</time>
      </trkpt>
      <trkpt lat="47.53155" lon="-1.2923">
        <ele>57</ele>
        <time>2015-02-07T14:36:50Z</time>
      </trkpt>
      <trkpt lat="47.53164" lon="-1.29234">
        <ele>59</ele>
        <time>2015-02-07T14:36:56Z</time>
      </trkpt>
      <trkpt lat="47.53172" lon="-1.29236">
        <ele>60</ele>
        <time>2015-02-07T14:37:00Z</time>
      </trkpt>
      <trkpt lat="47.53175" lon="-1.2925">
        <ele>60</ele>
        <time>2015-02-07T14:37:05Z</time>
      </trkpt>
      <trkpt lat="47.53177" lon="-1.29264">
        <ele>61</ele>
        <time>2015-02-07T14:37:10Z</time>
      </trkpt>
      <trkpt lat="47.53177" lon="-1.29281">
        <ele>61</ele>
        <time>2015-02-07T14:37:16Z</time>
      </trkpt>
      <trkpt lat="47.53175" lon="-1.29298">
        <ele>60</ele>
        <time>2015-02-07T14:37:22Z</time>
      </trkpt>
      <trkpt lat="47.53172" lon="-1.29308">
        <ele>61</ele>
        <time>2015-02-07T14:37:25Z</time>
      </trkpt>
      <trkpt lat="47.5317" lon="-1.29327">
        <ele>61</ele>
        <time>2015-02-07T14:37:30Z</time>
      </trkpt>
      <trkpt lat="47.5317" lon="-1.29348">
        <ele>60</ele>
        <time>2015-02-07T14:37:35Z</time>
      </trkpt>
      <trkpt lat="47.53171" lon="-1.29368">
        <ele>57</ele>
        <time>2015-02-07T14:37:40Z</time>
      </trkpt>
      <trkpt lat="47.5317" lon="-1.29393">
        <ele>58</ele>
        <time>2015-02-07T14:37:46Z</time>
      </trkpt>
      <trkpt lat="47.53169" lon="-1.2941">
        <ele>58</ele>
        <time>2015-02-07T14:37:50Z</time>
      </trkpt>
      <trkpt lat="47.53168" lon="-1.29432">
        <ele>57</ele>
        <time>2015-02-07T14:37:55Z</time>
      </trkpt>
      <trkpt lat="47.53165" lon="-1.29458">
        <ele>58</ele>
        <time>2015-02-07T14:38:00Z</time>
      </trkpt>
      <trkpt lat="47.53167" lon="-1.29484">
        <ele>59</ele>
        <time>2015-02-07T14:38:05Z</time>
      </trkpt>
      <trkpt lat="47.53169" lon="-1.29511">
        <ele>59</ele>
        <time>2015-02-07T14:38:10Z</time>
      </trkpt>
      <trkpt lat="47.53171" lon="-1.29544">
        <ele>61</ele>
        <time>2015-02-07T14:38:16Z</time>
      </trkpt>
      <trkpt lat="47.53172" lon="-1.29575">
        <ele>58</ele>
        <time>2015-02-07T14:38:22Z</time>
      </trkpt>
      <trkpt lat="47.53173" lon="-1.29596">
        <ele>59</ele>
        <time>2015-02-07T14:38:26Z</time>
      </trkpt>
      <trkpt lat="47.53176" lon="-1.29632">
        <ele>60</ele>
        <time>2015-02-07T14:38:34Z</time>
      </trkpt>
      <trkpt lat="47.53176" lon="-1.29637">
        <ele>59</ele>
        <time>2015-02-07T14:38:35Z</time>
      </trkpt>
      <trkpt lat="47.53173" lon="-1.2965">
        <ele>61</ele>
        <time>2015-02-07T14:38:40Z</time>
      </trkpt>
      <trkpt lat="47.53168" lon="-1.29657">
        <ele>60</ele>
        <time>2015-02-07T14:38:45Z</time>
      </trkpt>
      <trkpt lat="47.53167" lon="-1.29676">
        <ele>60</ele>
        <time>2015-02-07T14:38:51Z</time>
      </trkpt>
      <trkpt lat="47.53167" lon="-1.29702">
        <ele>60</ele>
        <time>2015-02-07T14:38:58Z</time>
      </trkpt>
      <trkpt lat="47.53166" lon="-1.29713">
        <ele>61</ele>
        <time>2015-02-07T14:39:01Z</time>
      </trkpt>
      <trkpt lat="47.53162" lon="-1.29745">
        <ele>62</ele>
        <time>2015-02-07T14:39:09Z</time>
      </trkpt>
      <trkpt lat="47.53161" lon="-1.29753">
        <ele>64</ele>
        <time>2015-02-07T14:39:11Z</time>
      </trkpt>
      <trkpt lat="47.53158" lon="-1.2977">
        <ele>66</ele>
        <time>2015-02-07T14:39:15Z</time>
      </trkpt>
      <trkpt lat="47.53155" lon="-1.29792">
        <ele>65</ele>
        <time>2015-02-07T14:39:20Z</time>
      </trkpt>
      <trkpt lat="47.53152" lon="-1.29814">
        <ele>64</ele>
        <time>2015-02-07T14:39:25Z</time>
      </trkpt>
      <trkpt lat="47.53149" lon="-1.29836">
        <ele>64</ele>
        <time>2015-02-07T14:39:30Z</time>
      </trkpt>
      <trkpt lat="47.53142" lon="-1.29869">
        <ele>64</ele>
        <time>2015-02-07T14:39:38Z</time>
      </trkpt>
      <trkpt lat="47.53139" lon="-1.29876">
        <ele>63</ele>
        <time>2015-02-07T14:39:40Z</time>
      </trkpt>
      <trkpt lat="47.53134" lon="-1.29892">
        <ele>62</ele>
        <time>2015-02-07T14:39:45Z</time>
      </trkpt>
      <trkpt lat="47.53129" lon="-1.2991">
        <ele>62</ele>
        <time>2015-02-07T14:39:50Z</time>
      </trkpt>
      <trkpt lat="47.53125" lon="-1.29926">
        <ele>61</ele>
        <time>2015-02-07T14:39:55Z</time>
      </trkpt>
      <trkpt lat="47.53121" lon="-1.29943">
        <ele>62</ele>
        <time>2015-02-07T14:40:00Z</time>
      </trkpt>
      <trkpt lat="47.53116" lon="-1.29963">
        <ele>62</ele>
        <time>2015-02-07T14:40:05Z</time>
      </trkpt>
      <trkpt lat="47.53112" lon="-1.29985">
        <ele>61</ele>
        <time>2015-02-07T14:40:10Z</time>
      </trkpt>
      <trkpt lat="47.53107" lon="-1.30008">
        <ele>57</ele>
        <time>2015-02-07T14:40:15Z</time>
      </trkpt>
      <trkpt lat="47.531" lon="-1.30047">
        <ele>58</ele>
        <time>2015-02-07T14:40:24Z</time>
      </trkpt>
      <trkpt lat="47.531" lon="-1.30051">
        <ele>58</ele>
        <time>2015-02-07T14:40:25Z</time>
      </trkpt>
      <trkpt lat="47.53095" lon="-1.30072">
        <ele>59</ele>
        <time>2015-02-07T14:40:30Z</time>
      </trkpt>
      <trkpt lat="47.53093" lon="-1.30096">
        <ele>57</ele>
        <time>2015-02-07T14:40:35Z</time>
      </trkpt>
      <trkpt lat="47.53095" lon="-1.30119">
        <ele>56</ele>
        <time>2015-02-07T14:40:40Z</time>
      </trkpt>
      <trkpt lat="47.53098" lon="-1.30143">
        <ele>55</ele>
        <time>2015-02-07T14:40:45Z</time>
      </trkpt>
      <trkpt lat="47.53102" lon="-1.3017">
        <ele>54</ele>
        <time>2015-02-07T14:40:50Z</time>
      </trkpt>
      <trkpt lat="47.53106" lon="-1.30197">
        <ele>54</ele>
        <time>2015-02-07T14:40:55Z</time>
      </trkpt>
      <trkpt lat="47.53111" lon="-1.30223">
        <ele>55</ele>
        <time>2015-02-07T14:41:00Z</time>
      </trkpt>
      <trkpt lat="47.53117" lon="-1.30249">
        <ele>55</ele>
        <time>2015-02-07T14:41:05Z</time>
      </trkpt>
      <trkpt lat="47.53123" lon="-1.30276">
        <ele>55</ele>
        <time>2015-02-07T14:41:10Z</time>
      </trkpt>
      <trkpt lat="47.53136" lon="-1.30315">
        <ele>58</ele>
        <time>2015-02-07T14:41:17Z</time>
      </trkpt>
      <trkpt lat="47.53149" lon="-1.30337">
        <ele>59</ele>
        <time>2015-02-07T14:41:21Z</time>
      </trkpt>
      <trkpt lat="47.53165" lon="-1.30365">
        <ele>56</ele>
        <time>2015-02-07T14:41:27Z</time>
      </trkpt>
      <trkpt lat="47.53172" lon="-1.3038">
        <ele>56</ele>
        <time>2015-02-07T14:41:30Z</time>
      </trkpt>
      <trkpt lat="47.53183" lon="-1.30411">
        <ele>56</ele>
        <time>2015-02-07T14:41:35Z</time>
      </trkpt>
      <trkpt lat="47.53192" lon="-1.30439">
        <ele>56</ele>
        <time>2015-02-07T14:41:40Z</time>
      </trkpt>
      <trkpt lat="47.532" lon="-1.30469">
        <ele>55</ele>
        <time>2015-02-07T14:41:45Z</time>
      </trkpt>
      <trkpt lat="47.53209" lon="-1.30498">
        <ele>55</ele>
        <time>2015-02-07T14:41:50Z</time>
      </trkpt>
      <trkpt lat="47.5322" lon="-1.3055">
        <ele>53</ele>
        <time>2015-02-07T14:41:59Z</time>
      </trkpt>
      <trkpt lat="47.53219" lon="-1.30568">
        <ele>53</ele>
        <time>2015-02-07T14:42:02Z</time>
      </trkpt>
      <trkpt lat="47.53219" lon="-1.30586">
        <ele>53</ele>
        <time>2015-02-07T14:42:05Z</time>
      </trkpt>
      <trkpt lat="47.5322" lon="-1.30612">
        <ele>54</ele>
        <time>2015-02-07T14:42:10Z</time>
      </trkpt>
      <trkpt lat="47.5323" lon="-1.30631">
        <ele>54</ele>
        <time>2015-02-07T14:42:17Z</time>
      </trkpt>
      <trkpt lat="47.53236" lon="-1.30641">
        <ele>53</ele>
        <time>2015-02-07T14:42:20Z</time>
      </trkpt>
      <trkpt lat="47.53226" lon="-1.30658">
        <ele>52</ele>
        <time>2015-02-07T14:42:25Z</time>
      </trkpt>
      <trkpt lat="47.5321" lon="-1.30664">
        <ele>50</ele>
        <time>2015-02-07T14:42:31Z</time>
      </trkpt>
      <trkpt lat="47.53194" lon="-1.3067">
        <ele>49</ele>
        <time>2015-02-07T14:42:35Z</time>
      </trkpt>
      <trkpt lat="47.53172" lon="-1.30685">
        <ele>50</ele>
        <time>2015-02-07T14:42:43Z</time>
      </trkpt>
      <trkpt lat="47.53174" lon="-1.3069">
        <ele>51</ele>
        <time>2015-02-07T14:42:45Z</time>
      </trkpt>
      <trkpt lat="47.53187" lon="-1.30711">
        <ele>50</ele>
        <time>2015-02-07T14:42:50Z</time>
      </trkpt>
      <trkpt lat="47.53206" lon="-1.30734">
        <ele>51</ele>
        <time>2015-02-07T14:42:55Z</time>
      </trkpt>
      <trkpt lat="47.53233" lon="-1.30758">
        <ele>50</ele>
        <time>2015-02-07T14:43:02Z</time>
      </trkpt>
      <trkpt lat="47.53254" lon="-1.30765">
        <ele>52</ele>
        <time>2015-02-07T14:43:07Z</time>
      </trkpt>
      <trkpt lat="47.53287" lon="-1.30766">
        <ele>45</ele>
        <time>2015-02-07T14:43:13Z</time>
      </trkpt>
      <trkpt lat="47.53298" lon="-1.30763">
        <ele>44</ele>
        <time>2015-02-07T14:43:15Z</time>
      </trkpt>
      <trkpt lat="47.53322" lon="-1.30769">
        <ele>42</ele>
        <time>2015-02-07T14:43:20Z</time>
      </trkpt>
      <trkpt lat="47.53348" lon="-1.30753">
        <ele>41</ele>
        <time>2015-02-07T14:43:26Z</time>
      </trkpt>
      <trkpt lat="47.53353" lon="-1.30734">
        <ele>42</ele>
        <time>2015-02-07T14:43:30Z</time>
      </trkpt>
      <trkpt lat="47.5336" lon="-1.30735">
        <ele>42</ele>
        <time>2015-02-07T14:43:35Z</time>
      </trkpt>
      <trkpt lat="47.53375" lon="-1.30755">
        <ele>42</ele>
        <time>2015-02-07T14:43:40Z</time>
      </trkpt>
      <trkpt lat="47.53388" lon="-1.3078">
        <ele>44</ele>
        <time>2015-02-07T14:43:45Z</time>
      </trkpt>
      <trkpt lat="47.53401" lon="-1.30806">
        <ele>45</ele>
        <time>2015-02-07T14:43:50Z</time>
      </trkpt>
      <trkpt lat="47.53416" lon="-1.3083">
        <ele>47</ele>
        <time>2015-02-07T14:43:55Z</time>
      </trkpt>
      <trkpt lat="47.53443" lon="-1.30878">
        <ele>48</ele>
        <time>2015-02-07T14:44:04Z</time>
      </trkpt>
      <trkpt lat="47.53457" lon="-1.30897">
        <ele>50</ele>
        <time>2015-02-07T14:44:09Z</time>
      </trkpt>
      <trkpt lat="47.53461" lon="-1.30899">
        <ele>49</ele>
        <time>2015-02-07T14:44:10Z</time>
      </trkpt>
      <trkpt lat="47.53471" lon="-1.30899">
        <ele>51</ele>
        <time>2015-02-07T14:44:15Z</time>
      </trkpt>
      <trkpt lat="47.53471" lon="-1.30898">
        <ele>50</ele>
        <time>2015-02-07T14:44:22Z</time>
      </trkpt>
      <trkpt lat="47.53471" lon="-1.30898">
        <ele>49</ele>
        <time>2015-02-07T14:44:23Z</time>
      </trkpt>
      <trkpt lat="47.5347" lon="-1.30898">
        <ele>49</ele>
        <time>2015-02-07T14:44:26Z</time>
      </trkpt>
      <trkpt lat="47.5347" lon="-1.30898">
        <ele>48</ele>
        <time>2015-02-07T14:44:30Z</time>
      </trkpt>
      <trkpt lat="47.5347" lon="-1.30898">
        <ele>49</ele>
        <time>2015-02-07T14:44:32Z</time>
      </trkpt>
      <trkpt lat="47.5347" lon="-1.30898">
        <ele>48</ele>
        <time>2015-02-07T14:44:35Z</time>
      </trkpt>
      <trkpt lat="47.53471" lon="-1.30898">
        <ele>48</ele>
        <time>2015-02-07T14:44:38Z</time>
      </trkpt>
      <trkpt lat="47.53462" lon="-1.30904">
        <ele>50</ele>
        <time>2015-02-07T14:44:45Z</time>
      </trkpt>
      <trkpt lat="47.53462" lon="-1.30905">
        <ele>50</ele>
        <time>2015-02-07T14:44:46Z</time>
      </trkpt>
      <trkpt lat="47.53463" lon="-1.30904">
        <ele>48</ele>
        <time>2015-02-07T14:44:52Z</time>
      </trkpt>
      <trkpt lat="47.53455" lon="-1.30912">
        <ele>47</ele>
        <time>2015-02-07T14:44:57Z</time>
      </trkpt>
      <trkpt lat="47.5345" lon="-1.30921">
        <ele>46</ele>
        <time>2015-02-07T14:44:59Z</time>
      </trkpt>
      <trkpt lat="47.5344" lon="-1.30949">
        <ele>45</ele>
        <time>2015-02-07T14:45:04Z</time>
      </trkpt>
      <trkpt lat="47.53427" lon="-1.3099">
        <ele>46</ele>
        <time>2015-02-07T14:45:10Z</time>
      </trkpt>
      <trkpt lat="47.53422" lon="-1.31017">
        <ele>47</ele>
        <time>2015-02-07T14:45:14Z</time>
      </trkpt>
      <trkpt lat="47.5342" lon="-1.3107">
        <ele>50</ele>
        <time>2015-02-07T14:45:22Z</time>
      </trkpt>
      <trkpt lat="47.5342" lon="-1.31086">
        <ele>50</ele>
        <time>2015-02-07T14:45:24Z</time>
      </trkpt>
      <trkpt lat="47.53424" lon="-1.31133">
        <ele>49</ele>
        <time>2015-02-07T14:45:31Z</time>
      </trkpt>
      <trkpt lat="47.53427" lon="-1.31153">
        <ele>48</ele>
        <time>2015-02-07T14:45:34Z</time>
      </trkpt>
      <trkpt lat="47.53438" lon="-1.3121">
        <ele>50</ele>
        <time>2015-02-07T14:45:43Z</time>
      </trkpt>
      <trkpt lat="47.53439" lon="-1.31216">
        <ele>51</ele>
        <time>2015-02-07T14:45:44Z</time>
      </trkpt>
      <trkpt lat="47.53444" lon="-1.31248">
        <ele>53</ele>
        <time>2015-02-07T14:45:49Z</time>
      </trkpt>
      <trkpt lat="47.53454" lon="-1.31299">
        <ele>54</ele>
        <time>2015-02-07T14:45:57Z</time>
      </trkpt>
      <trkpt lat="47.53456" lon="-1.31312">
        <ele>54</ele>
        <time>2015-02-07T14:45:59Z</time>
      </trkpt>
      <trkpt lat="47.53466" lon="-1.31369">
        <ele>54</ele>
        <time>2015-02-07T14:46:08Z</time>
      </trkpt>
      <trkpt lat="47.53471" lon="-1.31388">
        <ele>54</ele>
        <time>2015-02-07T14:46:11Z</time>
      </trkpt>
      <trkpt lat="47.53478" lon="-1.31438">
        <ele>57</ele>
        <time>2015-02-07T14:46:18Z</time>
      </trkpt>
      <trkpt lat="47.5348" lon="-1.31446">
        <ele>57</ele>
        <time>2015-02-07T14:46:19Z</time>
      </trkpt>
      <trkpt lat="47.53486" lon="-1.31482">
        <ele>56</ele>
        <time>2015-02-07T14:46:24Z</time>
      </trkpt>
      <trkpt lat="47.53493" lon="-1.31527">
        <ele>56</ele>
        <time>2015-02-07T14:46:30Z</time>
      </trkpt>
      <trkpt lat="47.53498" lon="-1.31555">
        <ele>56</ele>
        <time>2015-02-07T14:46:34Z</time>
      </trkpt>
      <trkpt lat="47.53499" lon="-1.31591">
        <ele>56</ele>
        <time>2015-02-07T14:46:41Z</time>
      </trkpt>
      <trkpt lat="47.5349" lon="-1.31598">
        <ele>53</ele>
        <time>2015-02-07T14:46:44Z</time>
      </trkpt>
      <trkpt lat="47.53476" lon="-1.31607">
        <ele>53</ele>
        <time>2015-02-07T14:46:49Z</time>
      </trkpt>
      <trkpt lat="47.53458" lon="-1.3162">
        <ele>51</ele>
        <time>2015-02-07T14:46:54Z</time>
      </trkpt>
      <trkpt lat="47.53439" lon="-1.31633">
        <ele>49</ele>
        <time>2015-02-07T14:46:59Z</time>
      </trkpt>
      <trkpt lat="47.53421" lon="-1.31646">
        <ele>50</ele>
        <time>2015-02-07T14:47:04Z</time>
      </trkpt>
      <trkpt lat="47.53399" lon="-1.31662">
        <ele>48</ele>
        <time>2015-02-07T14:47:10Z</time>
      </trkpt>
      <trkpt lat="47.53387" lon="-1.31675">
        <ele>47</ele>
        <time>2015-02-07T14:47:14Z</time>
      </trkpt>
      <trkpt lat="47.53381" lon="-1.31692">
        <ele>47</ele>
        <time>2015-02-07T14:47:20Z</time>
      </trkpt>
      <trkpt lat="47.53382" lon="-1.31691">
        <ele>47</ele>
        <time>2015-02-07T14:47:24Z</time>
      </trkpt>
      <trkpt lat="47.53381" lon="-1.31691">
        <ele>47</ele>
        <time>2015-02-07T14:47:27Z</time>
      </trkpt>
      <trkpt lat="47.53381" lon="-1.31693">
        <ele>47</ele>
        <time>2015-02-07T14:47:31Z</time>
      </trkpt>
      <trkpt lat="47.53378" lon="-1.31706">
        <ele>47</ele>
        <time>2015-02-07T14:47:35Z</time>
      </trkpt>
      <trkpt lat="47.53374" lon="-1.31728">
        <ele>48</ele>
        <time>2015-02-07T14:47:40Z</time>
      </trkpt>
      <trkpt lat="47.53369" lon="-1.31751">
        <ele>48</ele>
        <time>2015-02-07T14:47:45Z</time>
      </trkpt>
      <trkpt lat="47.53365" lon="-1.31774">
        <ele>48</ele>
        <time>2015-02-07T14:47:50Z</time>
      </trkpt>
      <trkpt lat="47.5336" lon="-1.31796">
        <ele>49</ele>
        <time>2015-02-07T14:47:55Z</time>
      </trkpt>
      <trkpt lat="47.53357" lon="-1.31816">
        <ele>49</ele>
        <time>2015-02-07T14:48:00Z</time>
      </trkpt>
      <trkpt lat="47.53354" lon="-1.31838">
        <ele>48</ele>
        <time>2015-02-07T14:48:06Z</time>
      </trkpt>
      <trkpt lat="47.53353" lon="-1.31851">
        <ele>49</ele>
        <time>2015-02-07T14:48:10Z</time>
      </trkpt>
      <trkpt lat="47.53354" lon="-1.31872">
        <ele>49</ele>
        <time>2015-02-07T14:48:15Z</time>
      </trkpt>
      <trkpt lat="47.53361" lon="-1.31893">
        <ele>49</ele>
        <time>2015-02-07T14:48:20Z</time>
      </trkpt>
      <trkpt lat="47.53367" lon="-1.31914">
        <ele>49</ele>
        <time>2015-02-07T14:48:25Z</time>
      </trkpt>
      <trkpt lat="47.53373" lon="-1.31935">
        <ele>50</ele>
        <time>2015-02-07T14:48:30Z</time>
      </trkpt>
      <trkpt lat="47.53378" lon="-1.31956">
        <ele>50</ele>
        <time>2015-02-07T14:48:35Z</time>
      </trkpt>
      <trkpt lat="47.5338" lon="-1.31993">
        <ele>50</ele>
        <time>2015-02-07T14:48:44Z</time>
      </trkpt>
      <trkpt lat="47.5338" lon="-1.31997">
        <ele>50</ele>
        <time>2015-02-07T14:48:45Z</time>
      </trkpt>
      <trkpt lat="47.53379" lon="-1.32003">
        <ele>49</ele>
        <time>2015-02-07T14:48:50Z</time>
      </trkpt>
      <trkpt lat="47.53379" lon="-1.32003">
        <ele>50</ele>
        <time>2015-02-07T14:48:55Z</time>
      </trkpt>
      <trkpt lat="47.53379" lon="-1.32003">
        <ele>49</ele>
        <time>2015-02-07T14:48:58Z</time>
      </trkpt>
      <trkpt lat="47.53379" lon="-1.32004">
        <ele>49</ele>
        <time>2015-02-07T14:49:01Z</time>
      </trkpt>
      <trkpt lat="47.53379" lon="-1.32014">
        <ele>50</ele>
        <time>2015-02-07T14:49:04Z</time>
      </trkpt>
      <trkpt lat="47.53378" lon="-1.32038">
        <ele>50</ele>
        <time>2015-02-07T14:49:09Z</time>
      </trkpt>
      <trkpt lat="47.53377" lon="-1.32061">
        <ele>50</ele>
        <time>2015-02-07T14:49:14Z</time>
      </trkpt>
      <trkpt lat="47.53376" lon="-1.32087">
        <ele>49</ele>
        <time>2015-02-07T14:49:19Z</time>
      </trkpt>
      <trkpt lat="47.53374" lon="-1.32114">
        <ele>48</ele>
        <time>2015-02-07T14:49:24Z</time>
      </trkpt>
      <trkpt lat="47.53374" lon="-1.32141">
        <ele>48</ele>
        <time>2015-02-07T14:49:29Z</time>
      </trkpt>
      <trkpt lat="47.53371" lon="-1.32177">
        <ele>43</ele>
        <time>2015-02-07T14:49:36Z</time>
      </trkpt>
      <trkpt lat="47.53368" lon="-1.32192">
        <ele>42</ele>
        <time>2015-02-07T14:49:39Z</time>
      </trkpt>
      <trkpt lat="47.53364" lon="-1.32219">
        <ele>41</ele>
        <time>2015-02-07T14:49:44Z</time>
      </trkpt>
      <trkpt lat="47.5336" lon="-1.32247">
        <ele>42</ele>
        <time>2015-02-07T14:49:49Z</time>
      </trkpt>
      <trkpt lat="47.53354" lon="-1.32276">
        <ele>42</ele>
        <time>2015-02-07T14:49:54Z</time>
      </trkpt>
      <trkpt lat="47.53347" lon="-1.32309">
        <ele>42</ele>
        <time>2015-02-07T14:49:59Z</time>
      </trkpt>
      <trkpt lat="47.53335" lon="-1.32335">
        <ele>39</ele>
        <time>2015-02-07T14:50:04Z</time>
      </trkpt>
      <trkpt lat="47.53314" lon="-1.32344">
        <ele>38</ele>
        <time>2015-02-07T14:50:09Z</time>
      </trkpt>
      <trkpt lat="47.53297" lon="-1.32348">
        <ele>37</ele>
        <time>2015-02-07T14:50:14Z</time>
      </trkpt>
      <trkpt lat="47.53278" lon="-1.32352">
        <ele>36</ele>
        <time>2015-02-07T14:50:19Z</time>
      </trkpt>
      <trkpt lat="47.53259" lon="-1.32356">
        <ele>36</ele>
        <time>2015-02-07T14:50:24Z</time>
      </trkpt>
      <trkpt lat="47.53241" lon="-1.32359">
        <ele>37</ele>
        <time>2015-02-07T14:50:29Z</time>
      </trkpt>
      <trkpt lat="47.53223" lon="-1.32364">
        <ele>37</ele>
        <time>2015-02-07T14:50:34Z</time>
      </trkpt>
      <trkpt lat="47.53206" lon="-1.32368">
        <ele>39</ele>
        <time>2015-02-07T14:50:39Z</time>
      </trkpt>
      <trkpt lat="47.53189" lon="-1.3237">
        <ele>37</ele>
        <time>2015-02-07T14:50:44Z</time>
      </trkpt>
      <trkpt lat="47.53172" lon="-1.32373">
        <ele>34</ele>
        <time>2015-02-07T14:50:49Z</time>
      </trkpt>
      <trkpt lat="47.53155" lon="-1.32377">
        <ele>37</ele>
        <time>2015-02-07T14:50:54Z</time>
      </trkpt>
      <trkpt lat="47.53127" lon="-1.32383">
        <ele>36</ele>
        <time>2015-02-07T14:51:03Z</time>
      </trkpt>
      <trkpt lat="47.53125" lon="-1.32384">
        <ele>36</ele>
        <time>2015-02-07T14:51:04Z</time>
      </trkpt>
      <trkpt lat="47.53123" lon="-1.32411">
        <ele>37</ele>
        <time>2015-02-07T14:51:12Z</time>
      </trkpt>
      <trkpt lat="47.53123" lon="-1.32421">
        <ele>36</ele>
        <time>2015-02-07T14:51:14Z</time>
      </trkpt>
      <trkpt lat="47.53121" lon="-1.32447">
        <ele>36</ele>
        <time>2015-02-07T14:51:19Z</time>
      </trkpt>
      <trkpt lat="47.53111" lon="-1.32473">
        <ele>35</ele>
        <time>2015-02-07T14:51:24Z</time>
      </trkpt>
      <trkpt lat="47.53093" lon="-1.32485">
        <ele>34</ele>
        <time>2015-02-07T14:51:29Z</time>
      </trkpt>
      <trkpt lat="47.53073" lon="-1.32494">
        <ele>36</ele>
        <time>2015-02-07T14:51:34Z</time>
      </trkpt>
      <trkpt lat="47.53058" lon="-1.32503">
        <ele>35</ele>
        <time>2015-02-07T14:51:39Z</time>
      </trkpt>
      <trkpt lat="47.53044" lon="-1.32513">
        <ele>33</ele>
        <time>2015-02-07T14:51:47Z</time>
      </trkpt>
      <trkpt lat="47.53037" lon="-1.32517">
        <ele>33</ele>
        <time>2015-02-07T14:51:49Z</time>
      </trkpt>
      <trkpt lat="47.53019" lon="-1.32528">
        <ele>32</ele>
        <time>2015-02-07T14:51:54Z</time>
      </trkpt>
      <trkpt lat="47.53011" lon="-1.32541">
        <ele>33</ele>
        <time>2015-02-07T14:51:59Z</time>
      </trkpt>
      <trkpt lat="47.53003" lon="-1.32556">
        <ele>35</ele>
        <time>2015-02-07T14:52:04Z</time>
      </trkpt>
      <trkpt lat="47.52995" lon="-1.32572">
        <ele>37</ele>
        <time>2015-02-07T14:52:09Z</time>
      </trkpt>
      <trkpt lat="47.52982" lon="-1.326">
        <ele>38</ele>
        <time>2015-02-07T14:52:16Z</time>
      </trkpt>
      <trkpt lat="47.5298" lon="-1.32609">
        <ele>38</ele>
        <time>2015-02-07T14:52:19Z</time>
      </trkpt>
      <trkpt lat="47.52977" lon="-1.32623">
        <ele>38</ele>
        <time>2015-02-07T14:52:24Z</time>
      </trkpt>
      <trkpt lat="47.52976" lon="-1.32653">
        <ele>38</ele>
        <time>2015-02-07T14:52:32Z</time>
      </trkpt>
      <trkpt lat="47.52976" lon="-1.32662">
        <ele>38</ele>
        <time>2015-02-07T14:52:34Z</time>
      </trkpt>
      <trkpt lat="47.52975" lon="-1.32684">
        <ele>38</ele>
        <time>2015-02-07T14:52:39Z</time>
      </trkpt>
      <trkpt lat="47.52974" lon="-1.327">
        <ele>37</ele>
        <time>2015-02-07T14:52:44Z</time>
      </trkpt>
      <trkpt lat="47.52973" lon="-1.32725">
        <ele>37</ele>
        <time>2015-02-07T14:52:50Z</time>
      </trkpt>
      <trkpt lat="47.5297" lon="-1.32744">
        <ele>38</ele>
        <time>2015-02-07T14:52:54Z</time>
      </trkpt>
      <trkpt lat="47.52965" lon="-1.32764">
        <ele>38</ele>
        <time>2015-02-07T14:52:59Z</time>
      </trkpt>
      <trkpt lat="47.52956" lon="-1.32809">
        <ele>36</ele>
        <time>2015-02-07T14:53:08Z</time>
      </trkpt>
      <trkpt lat="47.52953" lon="-1.32825">
        <ele>37</ele>
        <time>2015-02-07T14:53:11Z</time>
      </trkpt>
      <trkpt lat="47.52949" lon="-1.32838">
        <ele>36</ele>
        <time>2015-02-07T14:53:14Z</time>
      </trkpt>
      <trkpt lat="47.52939" lon="-1.3286">
        <ele>36</ele>
        <time>2015-02-07T14:53:22Z</time>
      </trkpt>
      <trkpt lat="47.52937" lon="-1.32866">
        <ele>36</ele>
        <time>2015-02-07T14:53:25Z</time>
      </trkpt>
      <trkpt lat="47.52932" lon="-1.32876">
        <ele>38</ele>
        <time>2015-02-07T14:53:29Z</time>
      </trkpt>
      <trkpt lat="47.52929" lon="-1.32885">
        <ele>39</ele>
        <time>2015-02-07T14:53:34Z</time>
      </trkpt>
      <trkpt lat="47.52929" lon="-1.32887">
        <ele>39</ele>
        <time>2015-02-07T14:53:39Z</time>
      </trkpt>
      <trkpt lat="47.52928" lon="-1.32893">
        <ele>39</ele>
        <time>2015-02-07T14:53:42Z</time>
      </trkpt>
      <trkpt lat="47.52924" lon="-1.3292">
        <ele>38</ele>
        <time>2015-02-07T14:53:50Z</time>
      </trkpt>
      <trkpt lat="47.52923" lon="-1.32927">
        <ele>39</ele>
        <time>2015-02-07T14:53:52Z</time>
      </trkpt>
      <trkpt lat="47.52923" lon="-1.32938">
        <ele>36</ele>
        <time>2015-02-07T14:53:57Z</time>
      </trkpt>
      <trkpt lat="47.5292" lon="-1.3295">
        <ele>37</ele>
        <time>2015-02-07T14:54:02Z</time>
      </trkpt>
      <trkpt lat="47.52914" lon="-1.32965">
        <ele>37</ele>
        <time>2015-02-07T14:54:07Z</time>
      </trkpt>
      <trkpt lat="47.52908" lon="-1.3298">
        <ele>36</ele>
        <time>2015-02-07T14:54:12Z</time>
      </trkpt>
      <trkpt lat="47.52902" lon="-1.32992">
        <ele>37</ele>
        <time>2015-02-07T14:54:17Z</time>
      </trkpt>
      <trkpt lat="47.52896" lon="-1.33004">
        <ele>36</ele>
        <time>2015-02-07T14:54:22Z</time>
      </trkpt>
      <trkpt lat="47.52895" lon="-1.33012">
        <ele>37</ele>
        <time>2015-02-07T14:54:27Z</time>
      </trkpt>
      <trkpt lat="47.52901" lon="-1.33021">
        <ele>37</ele>
        <time>2015-02-07T14:54:32Z</time>
      </trkpt>
      <trkpt lat="47.52902" lon="-1.33022">
        <ele>38</ele>
        <time>2015-02-07T14:54:37Z</time>
      </trkpt>
      <trkpt lat="47.52901" lon="-1.33021">
        <ele>39</ele>
        <time>2015-02-07T14:54:42Z</time>
      </trkpt>
      <trkpt lat="47.52901" lon="-1.33022">
        <ele>38</ele>
        <time>2015-02-07T14:54:43Z</time>
      </trkpt>
      <trkpt lat="47.52901" lon="-1.33022">
        <ele>37</ele>
        <time>2015-02-07T14:54:46Z</time>
      </trkpt>
      <trkpt lat="47.529" lon="-1.33022">
        <ele>38</ele>
        <time>2015-02-07T14:54:49Z</time>
      </trkpt>
      <trkpt lat="47.52901" lon="-1.33022">
        <ele>39</ele>
        <time>2015-02-07T14:54:54Z</time>
      </trkpt>
      <trkpt lat="47.52901" lon="-1.33022">
        <ele>39</ele>
        <time>2015-02-07T14:54:55Z</time>
      </trkpt>
      <trkpt lat="47.52901" lon="-1.33022">
        <ele>39</ele>
        <time>2015-02-07T14:54:58Z</time>
      </trkpt>
      <trkpt lat="47.52901" lon="-1.33022">
        <ele>39</ele>
        <time>2015-02-07T14:55:01Z</time>
      </trkpt>
      <trkpt lat="47.52901" lon="-1.33022">
        <ele>39</ele>
        <time>2015-02-07T14:55:04Z</time>
      </trkpt>
      <trkpt lat="47.52901" lon="-1.33022">
        <ele>39</ele>
        <time>2015-02-07T14:55:07Z</time>
      </trkpt>
      <trkpt lat="47.52901" lon="-1.33022">
        <ele>39</ele>
        <time>2015-02-07T14:55:10Z</time>
      </trkpt>
      <trkpt lat="47.52901" lon="-1.33022">
        <ele>38</ele>
        <time>2015-02-07T14:55:14Z</time>
      </trkpt>
      <trkpt lat="47.52901" lon="-1.33022">
        <ele>38</ele>
        <time>2015-02-07T14:55:16Z</time>
      </trkpt>
      <trkpt lat="47.52901" lon="-1.33022">
        <ele>38</ele>
        <time>2015-02-07T14:55:19Z</time>
      </trkpt>
      <trkpt lat="47.52901" lon="-1.33021">
        <ele>39</ele>
        <time>2015-02-07T14:55:22Z</time>
      </trkpt>
      <trkpt lat="47.52901" lon="-1.33021">
        <ele>39</ele>
        <time>2015-02-07T14:55:25Z</time>
      </trkpt>
      <trkpt lat="47.52901" lon="-1.33021">
        <ele>39</ele>
        <time>2015-02-07T14:55:28Z</time>
      </trkpt>
      <trkpt lat="47.52901" lon="-1.33021">
        <ele>39</ele>
        <time>2015-02-07T14:55:31Z</time>
      </trkpt>
      <trkpt lat="47.52901" lon="-1.33022">
        <ele>39</ele>
        <time>2015-02-07T14:55:34Z</time>
      </trkpt>
      <trkpt lat="47.52904" lon="-1.33027">
        <ele>36</ele>
        <time>2015-02-07T14:55:37Z</time>
      </trkpt>
      <trkpt lat="47.5291" lon="-1.3304">
        <ele>33</ele>
        <time>2015-02-07T14:55:42Z</time>
      </trkpt>
      <trkpt lat="47.52923" lon="-1.33071">
        <ele>33</ele>
        <time>2015-02-07T14:55:51Z</time>
      </trkpt>
      <trkpt lat="47.52925" lon="-1.33074">
        <ele>34</ele>
        <time>2015-02-07T14:55:52Z</time>
      </trkpt>
      <trkpt lat="47.52933" lon="-1.33093">
        <ele>33</ele>
        <time>2015-02-07T14:55:57Z</time>
      </trkpt>
      <trkpt lat="47.52927" lon="-1.33138">
        <ele>37</ele>
        <time>2015-02-07T14:56:06Z</time>
      </trkpt>
      <trkpt lat="47.52926" lon="-1.33141">
        <ele>37</ele>
        <time>2015-02-07T14:56:07Z</time>
      </trkpt>
      <trkpt lat="47.52921" lon="-1.33164">
        <ele>38</ele>
        <time>2015-02-07T14:56:14Z</time>
      </trkpt>
      <trkpt lat="47.5292" lon="-1.3317">
        <ele>39</ele>
        <time>2015-02-07T14:56:17Z</time>
      </trkpt>
      <trkpt lat="47.52921" lon="-1.33169">
        <ele>38</ele>
        <time>2015-02-07T14:56:22Z</time>
      </trkpt>
      <trkpt lat="47.52921" lon="-1.33168">
        <ele>38</ele>
        <time>2015-02-07T14:56:25Z</time>
      </trkpt>
      <trkpt lat="47.52922" lon="-1.33171">
        <ele>38</ele>
        <time>2015-02-07T14:56:29Z</time>
      </trkpt>
      <trkpt lat="47.52925" lon="-1.33194">
        <ele>37</ele>
        <time>2015-02-07T14:56:36Z</time>
      </trkpt>
      <trkpt lat="47.52923" lon="-1.33214">
        <ele>37</ele>
        <time>2015-02-07T14:56:41Z</time>
      </trkpt>
      <trkpt lat="47.52921" lon="-1.33228">
        <ele>37</ele>
        <time>2015-02-07T14:56:44Z</time>
      </trkpt>
      <trkpt lat="47.52917" lon="-1.33247">
        <ele>40</ele>
        <time>2015-02-07T14:56:48Z</time>
      </trkpt>
      <trkpt lat="47.52913" lon="-1.33271">
        <ele>40</ele>
        <time>2015-02-07T14:56:53Z</time>
      </trkpt>
      <trkpt lat="47.5291" lon="-1.33294">
        <ele>41</ele>
        <time>2015-02-07T14:56:58Z</time>
      </trkpt>
      <trkpt lat="47.52916" lon="-1.33312">
        <ele>41</ele>
        <time>2015-02-07T14:57:05Z</time>
      </trkpt>
      <trkpt lat="47.52926" lon="-1.33314">
        <ele>42</ele>
        <time>2015-02-07T14:57:10Z</time>
      </trkpt>
      <trkpt lat="47.52932" lon="-1.33316">
        <ele>40</ele>
        <time>2015-02-07T14:57:13Z</time>
      </trkpt>
      <trkpt lat="47.52945" lon="-1.33322">
        <ele>40</ele>
        <time>2015-02-07T14:57:18Z</time>
      </trkpt>
      <trkpt lat="47.5296" lon="-1.33327">
        <ele>39</ele>
        <time>2015-02-07T14:57:23Z</time>
      </trkpt>
      <trkpt lat="47.52975" lon="-1.33333">
        <ele>40</ele>
        <time>2015-02-07T14:57:28Z</time>
      </trkpt>
      <trkpt lat="47.5299" lon="-1.33339">
        <ele>40</ele>
        <time>2015-02-07T14:57:33Z</time>
      </trkpt>
      <trkpt lat="47.53004" lon="-1.33344">
        <ele>37</ele>
        <time>2015-02-07T14:57:38Z</time>
      </trkpt>
      <trkpt lat="47.53019" lon="-1.33349">
        <ele>38</ele>
        <time>2015-02-07T14:57:43Z</time>
      </trkpt>
      <trkpt lat="47.53038" lon="-1.33355">
        <ele>38</ele>
        <time>2015-02-07T14:57:49Z</time>
      </trkpt>
      <trkpt lat="47.53066" lon="-1.33362">
        <ele>42</ele>
        <time>2015-02-07T14:57:57Z</time>
      </trkpt>
      <trkpt lat="47.53083" lon="-1.33365">
        <ele>42</ele>
        <time>2015-02-07T14:58:02Z</time>
      </trkpt>
      <trkpt lat="47.53086" lon="-1.33365">
        <ele>43</ele>
        <time>2015-02-07T14:58:03Z</time>
      </trkpt>
      <trkpt lat="47.53101" lon="-1.33362">
        <ele>43</ele>
        <time>2015-02-07T14:58:08Z</time>
      </trkpt>
      <trkpt lat="47.53115" lon="-1.33354">
        <ele>43</ele>
        <time>2015-02-07T14:58:13Z</time>
      </trkpt>
      <trkpt lat="47.53129" lon="-1.33353">
        <ele>44</ele>
        <time>2015-02-07T14:58:18Z</time>
      </trkpt>
      <trkpt lat="47.53141" lon="-1.33367">
        <ele>45</ele>
        <time>2015-02-07T14:58:23Z</time>
      </trkpt>
      <trkpt lat="47.53152" lon="-1.33382">
        <ele>45</ele>
        <time>2015-02-07T14:58:28Z</time>
      </trkpt>
      <trkpt lat="47.53163" lon="-1.33398">
        <ele>46</ele>
        <time>2015-02-07T14:58:33Z</time>
      </trkpt>
      <trkpt lat="47.53175" lon="-1.33415">
        <ele>46</ele>
        <time>2015-02-07T14:58:38Z</time>
      </trkpt>
      <trkpt lat="47.53185" lon="-1.33434">
        <ele>46</ele>
        <time>2015-02-07T14:58:43Z</time>
      </trkpt>
      <trkpt lat="47.53196" lon="-1.33451">
        <ele>47</ele>
        <time>2015-02-07T14:58:48Z</time>
      </trkpt>
      <trkpt lat="47.53209" lon="-1.33471">
        <ele>47</ele>
        <time>2015-02-07T14:58:54Z</time>
      </trkpt>
      <trkpt lat="47.53221" lon="-1.33489">
        <ele>49</ele>
        <time>2015-02-07T14:58:59Z</time>
      </trkpt>
      <trkpt lat="47.53229" lon="-1.33506">
        <ele>48</ele>
        <time>2015-02-07T14:59:03Z</time>
      </trkpt>
      <trkpt lat="47.53239" lon="-1.3353">
        <ele>51</ele>
        <time>2015-02-07T14:59:08Z</time>
      </trkpt>
      <trkpt lat="47.53254" lon="-1.33571">
        <ele>49</ele>
        <time>2015-02-07T14:59:17Z</time>
      </trkpt>
      <trkpt lat="47.53258" lon="-1.3358">
        <ele>51</ele>
        <time>2015-02-07T14:59:19Z</time>
      </trkpt>
      <trkpt lat="47.5327" lon="-1.33612">
        <ele>53</ele>
        <time>2015-02-07T14:59:26Z</time>
      </trkpt>
      <trkpt lat="47.53278" lon="-1.3364">
        <ele>53</ele>
        <time>2015-02-07T14:59:32Z</time>
      </trkpt>
      <trkpt lat="47.53279" lon="-1.33644">
        <ele>53</ele>
        <time>2015-02-07T14:59:33Z</time>
      </trkpt>
      <trkpt lat="47.53284" lon="-1.33669">
        <ele>54</ele>
        <time>2015-02-07T14:59:38Z</time>
      </trkpt>
      <trkpt lat="47.53291" lon="-1.33696">
        <ele>50</ele>
        <time>2015-02-07T14:59:43Z</time>
      </trkpt>
      <trkpt lat="47.53304" lon="-1.33735">
        <ele>53</ele>
        <time>2015-02-07T14:59:51Z</time>
      </trkpt>
      <trkpt lat="47.53308" lon="-1.33745">
        <ele>53</ele>
        <time>2015-02-07T14:59:53Z</time>
      </trkpt>
      <trkpt lat="47.53324" lon="-1.33768">
        <ele>52</ele>
        <time>2015-02-07T14:59:59Z</time>
      </trkpt>
      <trkpt lat="47.53337" lon="-1.33779">
        <ele>51</ele>
        <time>2015-02-07T15:00:03Z</time>
      </trkpt>
      <trkpt lat="47.53353" lon="-1.33787">
        <ele>53</ele>
        <time>2015-02-07T15:00:08Z</time>
      </trkpt>
      <trkpt lat="47.53367" lon="-1.33792">
        <ele>54</ele>
        <time>2015-02-07T15:00:13Z</time>
      </trkpt>
      <trkpt lat="47.53382" lon="-1.33797">
        <ele>56</ele>
        <time>2015-02-07T15:00:18Z</time>
      </trkpt>
      <trkpt lat="47.53394" lon="-1.33804">
        <ele>56</ele>
        <time>2015-02-07T15:00:23Z</time>
      </trkpt>
      <trkpt lat="47.53394" lon="-1.33818">
        <ele>56</ele>
        <time>2015-02-07T15:00:28Z</time>
      </trkpt>
      <trkpt lat="47.53381" lon="-1.33837">
        <ele>55</ele>
        <time>2015-02-07T15:00:33Z</time>
      </trkpt>
      <trkpt lat="47.53365" lon="-1.33858">
        <ele>54</ele>
        <time>2015-02-07T15:00:38Z</time>
      </trkpt>
      <trkpt lat="47.53349" lon="-1.33884">
        <ele>54</ele>
        <time>2015-02-07T15:00:43Z</time>
      </trkpt>
      <trkpt lat="47.53337" lon="-1.33911">
        <ele>53</ele>
        <time>2015-02-07T15:00:48Z</time>
      </trkpt>
      <trkpt lat="47.53326" lon="-1.33939">
        <ele>54</ele>
        <time>2015-02-07T15:00:53Z</time>
      </trkpt>
      <trkpt lat="47.53315" lon="-1.3397">
        <ele>53</ele>
        <time>2015-02-07T15:00:58Z</time>
      </trkpt>
      <trkpt lat="47.53301" lon="-1.34">
        <ele>52</ele>
        <time>2015-02-07T15:01:03Z</time>
      </trkpt>
      <trkpt lat="47.53288" lon="-1.34041">
        <ele>53</ele>
        <time>2015-02-07T15:01:09Z</time>
      </trkpt>
      <trkpt lat="47.53287" lon="-1.34074">
        <ele>53</ele>
        <time>2015-02-07T15:01:13Z</time>
      </trkpt>
      <trkpt lat="47.53295" lon="-1.34135">
        <ele>53</ele>
        <time>2015-02-07T15:01:20Z</time>
      </trkpt>
      <trkpt lat="47.533" lon="-1.34159">
        <ele>53</ele>
        <time>2015-02-07T15:01:23Z</time>
      </trkpt>
      <trkpt lat="47.53309" lon="-1.34209">
        <ele>53</ele>
        <time>2015-02-07T15:01:29Z</time>
      </trkpt>
      <trkpt lat="47.53317" lon="-1.34235">
        <ele>53</ele>
        <time>2015-02-07T15:01:33Z</time>
      </trkpt>
      <trkpt lat="47.53324" lon="-1.3427">
        <ele>54</ele>
        <time>2015-02-07T15:01:38Z</time>
      </trkpt>
      <trkpt lat="47.53331" lon="-1.34307">
        <ele>55</ele>
        <time>2015-02-07T15:01:43Z</time>
      </trkpt>
      <trkpt lat="47.53343" lon="-1.34343">
        <ele>55</ele>
        <time>2015-02-07T15:01:48Z</time>
      </trkpt>
      <trkpt lat="47.53343" lon="-1.3439">
        <ele>56</ele>
        <time>2015-02-07T15:01:54Z</time>
      </trkpt>
      <trkpt lat="47.53335" lon="-1.34421">
        <ele>54</ele>
        <time>2015-02-07T15:01:58Z</time>
      </trkpt>
      <trkpt lat="47.53323" lon="-1.34453">
        <ele>53</ele>
        <time>2015-02-07T15:02:03Z</time>
      </trkpt>
      <trkpt lat="47.53315" lon="-1.34475">
        <ele>51</ele>
        <time>2015-02-07T15:02:08Z</time>
      </trkpt>
      <trkpt lat="47.53301" lon="-1.34522">
        <ele>50</ele>
        <time>2015-02-07T15:02:15Z</time>
      </trkpt>
      <trkpt lat="47.53297" lon="-1.34544">
        <ele>50</ele>
        <time>2015-02-07T15:02:18Z</time>
      </trkpt>
      <trkpt lat="47.53291" lon="-1.34581">
        <ele>50</ele>
        <time>2015-02-07T15:02:23Z</time>
      </trkpt>
      <trkpt lat="47.53285" lon="-1.34643">
        <ele>50</ele>
        <time>2015-02-07T15:02:31Z</time>
      </trkpt>
      <trkpt lat="47.53282" lon="-1.34668">
        <ele>49</ele>
        <time>2015-02-07T15:02:34Z</time>
      </trkpt>
      <trkpt lat="47.53279" lon="-1.34707">
        <ele>50</ele>
        <time>2015-02-07T15:02:39Z</time>
      </trkpt>
      <trkpt lat="47.53281" lon="-1.3475">
        <ele>49</ele>
        <time>2015-02-07T15:02:45Z</time>
      </trkpt>
      <trkpt lat="47.53286" lon="-1.34772">
        <ele>49</ele>
        <time>2015-02-07T15:02:49Z</time>
      </trkpt>
      <trkpt lat="47.53298" lon="-1.34801">
        <ele>52</ele>
        <time>2015-02-07T15:02:56Z</time>
      </trkpt>
      <trkpt lat="47.53309" lon="-1.34811">
        <ele>51</ele>
        <time>2015-02-07T15:03:01Z</time>
      </trkpt>
      <trkpt lat="47.53313" lon="-1.34812">
        <ele>51</ele>
        <time>2015-02-07T15:03:03Z</time>
      </trkpt>
      <trkpt lat="47.53325" lon="-1.3481">
        <ele>52</ele>
        <time>2015-02-07T15:03:08Z</time>
      </trkpt>
      <trkpt lat="47.53336" lon="-1.34806">
        <ele>53</ele>
        <time>2015-02-07T15:03:13Z</time>
      </trkpt>
      <trkpt lat="47.5335" lon="-1.34802">
        <ele>54</ele>
        <time>2015-02-07T15:03:18Z</time>
      </trkpt>
      <trkpt lat="47.53365" lon="-1.34798">
        <ele>54</ele>
        <time>2015-02-07T15:03:23Z</time>
      </trkpt>
      <trkpt lat="47.53381" lon="-1.34795">
        <ele>53</ele>
        <time>2015-02-07T15:03:28Z</time>
      </trkpt>
      <trkpt lat="47.53397" lon="-1.34791">
        <ele>56</ele>
        <time>2015-02-07T15:03:33Z</time>
      </trkpt>
      <trkpt lat="47.53412" lon="-1.34787">
        <ele>55</ele>
        <time>2015-02-07T15:03:38Z</time>
      </trkpt>
      <trkpt lat="47.53423" lon="-1.34785">
        <ele>56</ele>
        <time>2015-02-07T15:03:43Z</time>
      </trkpt>
      <trkpt lat="47.53439" lon="-1.34781">
        <ele>56</ele>
        <time>2015-02-07T15:03:48Z</time>
      </trkpt>
      <trkpt lat="47.53456" lon="-1.34776">
        <ele>56</ele>
        <time>2015-02-07T15:03:53Z</time>
      </trkpt>
      <trkpt lat="47.53474" lon="-1.34771">
        <ele>55</ele>
        <time>2015-02-07T15:03:58Z</time>
      </trkpt>
      <trkpt lat="47.53492" lon="-1.34767">
        <ele>54</ele>
        <time>2015-02-07T15:04:03Z</time>
      </trkpt>
      <trkpt lat="47.53511" lon="-1.34761">
        <ele>55</ele>
        <time>2015-02-07T15:04:08Z</time>
      </trkpt>
      <trkpt lat="47.5353" lon="-1.34756">
        <ele>53</ele>
        <time>2015-02-07T15:04:13Z</time>
      </trkpt>
      <trkpt lat="47.53549" lon="-1.34751">
        <ele>53</ele>
        <time>2015-02-07T15:04:18Z</time>
      </trkpt>
      <trkpt lat="47.5357" lon="-1.34745">
        <ele>53</ele>
        <time>2015-02-07T15:04:23Z</time>
      </trkpt>
      <trkpt lat="47.53592" lon="-1.34739">
        <ele>53</ele>
        <time>2015-02-07T15:04:28Z</time>
      </trkpt>
      <trkpt lat="47.53614" lon="-1.34734">
        <ele>52</ele>
        <time>2015-02-07T15:04:33Z</time>
      </trkpt>
      <trkpt lat="47.53633" lon="-1.34729">
        <ele>52</ele>
        <time>2015-02-07T15:04:38Z</time>
      </trkpt>
      <trkpt lat="47.53651" lon="-1.34724">
        <ele>53</ele>
        <time>2015-02-07T15:04:43Z</time>
      </trkpt>
      <trkpt lat="47.53666" lon="-1.3472">
        <ele>53</ele>
        <time>2015-02-07T15:04:48Z</time>
      </trkpt>
      <trkpt lat="47.53667" lon="-1.34732">
        <ele>55</ele>
        <time>2015-02-07T15:04:53Z</time>
      </trkpt>
      <trkpt lat="47.53664" lon="-1.34732">
        <ele>55</ele>
        <time>2015-02-07T15:04:58Z</time>
      </trkpt>
      <trkpt lat="47.53663" lon="-1.34731">
        <ele>56</ele>
        <time>2015-02-07T15:05:03Z</time>
      </trkpt>
      <trkpt lat="47.53663" lon="-1.34731">
        <ele>55</ele>
        <time>2015-02-07T15:05:06Z</time>
      </trkpt>
      <trkpt lat="47.53663" lon="-1.34731">
        <ele>55</ele>
        <time>2015-02-07T15:05:09Z</time>
      </trkpt>
      <trkpt lat="47.53663" lon="-1.34731">
        <ele>55</ele>
        <time>2015-02-07T15:05:12Z</time>
      </trkpt>
      <trkpt lat="47.53663" lon="-1.34733">
        <ele>55</ele>
        <time>2015-02-07T15:05:16Z</time>
      </trkpt>
      <trkpt lat="47.53665" lon="-1.34744">
        <ele>53</ele>
        <time>2015-02-07T15:05:20Z</time>
      </trkpt>
      <trkpt lat="47.53668" lon="-1.34771">
        <ele>54</ele>
        <time>2015-02-07T15:05:25Z</time>
      </trkpt>
      <trkpt lat="47.53672" lon="-1.34797">
        <ele>50</ele>
        <time>2015-02-07T15:05:30Z</time>
      </trkpt>
      <trkpt lat="47.53675" lon="-1.34824">
        <ele>52</ele>
        <time>2015-02-07T15:05:35Z</time>
      </trkpt>
      <trkpt lat="47.53678" lon="-1.34849">
        <ele>54</ele>
        <time>2015-02-07T15:05:40Z</time>
      </trkpt>
      <trkpt lat="47.53681" lon="-1.34874">
        <ele>57</ele>
        <time>2015-02-07T15:05:46Z</time>
      </trkpt>
      <trkpt lat="47.53686" lon="-1.34901">
        <ele>55</ele>
        <time>2015-02-07T15:05:52Z</time>
      </trkpt>
      <trkpt lat="47.53689" lon="-1.3492">
        <ele>57</ele>
        <time>2015-02-07T15:05:55Z</time>
      </trkpt>
      <trkpt lat="47.53702" lon="-1.34952">
        <ele>60</ele>
        <time>2015-02-07T15:06:02Z</time>
      </trkpt>
      <trkpt lat="47.53709" lon="-1.34963">
        <ele>56</ele>
        <time>2015-02-07T15:06:05Z</time>
      </trkpt>
      <trkpt lat="47.53719" lon="-1.34978">
        <ele>57</ele>
        <time>2015-02-07T15:06:10Z</time>
      </trkpt>
      <trkpt lat="47.53725" lon="-1.34988">
        <ele>60</ele>
        <time>2015-02-07T15:06:15Z</time>
      </trkpt>
      <trkpt lat="47.5373" lon="-1.35001">
        <ele>64</ele>
        <time>2015-02-07T15:06:20Z</time>
      </trkpt>
      <trkpt lat="47.53737" lon="-1.35016">
        <ele>67</ele>
        <time>2015-02-07T15:06:26Z</time>
      </trkpt>
      <trkpt lat="47.53746" lon="-1.35036">
        <ele>64</ele>
        <time>2015-02-07T15:06:30Z</time>
      </trkpt>
      <trkpt lat="47.53754" lon="-1.35062">
        <ele>60</ele>
        <time>2015-02-07T15:06:35Z</time>
      </trkpt>
      <trkpt lat="47.53761" lon="-1.35085">
        <ele>58</ele>
        <time>2015-02-07T15:06:40Z</time>
      </trkpt>
      <trkpt lat="47.53766" lon="-1.35105">
        <ele>64</ele>
        <time>2015-02-07T15:06:45Z</time>
      </trkpt>
      <trkpt lat="47.53771" lon="-1.35129">
        <ele>65</ele>
        <time>2015-02-07T15:06:51Z</time>
      </trkpt>
      <trkpt lat="47.53773" lon="-1.35146">
        <ele>65</ele>
        <time>2015-02-07T15:06:55Z</time>
      </trkpt>
      <trkpt lat="47.53778" lon="-1.35169">
        <ele>63</ele>
        <time>2015-02-07T15:07:00Z</time>
      </trkpt>
      <trkpt lat="47.53779" lon="-1.35192">
        <ele>66</ele>
        <time>2015-02-07T15:07:05Z</time>
      </trkpt>
      <trkpt lat="47.53779" lon="-1.35218">
        <ele>68</ele>
        <time>2015-02-07T15:07:11Z</time>
      </trkpt>
      <trkpt lat="47.53781" lon="-1.35232">
        <ele>69</ele>
        <time>2015-02-07T15:07:15Z</time>
      </trkpt>
      <trkpt lat="47.53781" lon="-1.35268">
        <ele>65</ele>
        <time>2015-02-07T15:07:23Z</time>
      </trkpt>
      <trkpt lat="47.53782" lon="-1.35278">
        <ele>67</ele>
        <time>2015-02-07T15:07:25Z</time>
      </trkpt>
      <trkpt lat="47.53783" lon="-1.35304">
        <ele>66</ele>
        <time>2015-02-07T15:07:30Z</time>
      </trkpt>
      <trkpt lat="47.53784" lon="-1.35331">
        <ele>63</ele>
        <time>2015-02-07T15:07:35Z</time>
      </trkpt>
      <trkpt lat="47.53785" lon="-1.35362">
        <ele>63</ele>
        <time>2015-02-07T15:07:41Z</time>
      </trkpt>
      <trkpt lat="47.53777" lon="-1.35382">
        <ele>59</ele>
        <time>2015-02-07T15:07:47Z</time>
      </trkpt>
      <trkpt lat="47.53769" lon="-1.35385">
        <ele>58</ele>
        <time>2015-02-07T15:07:50Z</time>
      </trkpt>
      <trkpt lat="47.53754" lon="-1.35394">
        <ele>55</ele>
        <time>2015-02-07T15:07:55Z</time>
      </trkpt>
      <trkpt lat="47.53737" lon="-1.35402">
        <ele>53</ele>
        <time>2015-02-07T15:08:01Z</time>
      </trkpt>
      <trkpt lat="47.53726" lon="-1.35409">
        <ele>54</ele>
        <time>2015-02-07T15:08:05Z</time>
      </trkpt>
      <trkpt lat="47.53709" lon="-1.35421">
        <ele>52</ele>
        <time>2015-02-07T15:08:11Z</time>
      </trkpt>
      <trkpt lat="47.53698" lon="-1.3543">
        <ele>54</ele>
        <time>2015-02-07T15:08:15Z</time>
      </trkpt>
      <trkpt lat="47.53682" lon="-1.3544">
        <ele>54</ele>
        <time>2015-02-07T15:08:20Z</time>
      </trkpt>
      <trkpt lat="47.53653" lon="-1.35458">
        <ele>52</ele>
        <time>2015-02-07T15:08:28Z</time>
      </trkpt>
      <trkpt lat="47.53647" lon="-1.35462">
        <ele>52</ele>
        <time>2015-02-07T15:08:30Z</time>
      </trkpt>
      <trkpt lat="47.53631" lon="-1.3547">
        <ele>49</ele>
        <time>2015-02-07T15:08:35Z</time>
      </trkpt>
      <trkpt lat="47.53616" lon="-1.35477">
        <ele>50</ele>
        <time>2015-02-07T15:08:40Z</time>
      </trkpt>
      <trkpt lat="47.53606" lon="-1.35485">
        <ele>51</ele>
        <time>2015-02-07T15:08:45Z</time>
      </trkpt>
      <trkpt lat="47.53614" lon="-1.35499">
        <ele>56</ele>
        <time>2015-02-07T15:08:51Z</time>
      </trkpt>
      <trkpt lat="47.53618" lon="-1.35514">
        <ele>56</ele>
        <time>2015-02-07T15:08:55Z</time>
      </trkpt>
      <trkpt lat="47.53625" lon="-1.35535">
        <ele>58</ele>
        <time>2015-02-07T15:09:00Z</time>
      </trkpt>
      <trkpt lat="47.53632" lon="-1.35554">
        <ele>59</ele>
        <time>2015-02-07T15:09:05Z</time>
      </trkpt>
      <trkpt lat="47.53639" lon="-1.35578">
        <ele>60</ele>
        <time>2015-02-07T15:09:11Z</time>
      </trkpt>
      <trkpt lat="47.53646" lon="-1.356">
        <ele>59</ele>
        <time>2015-02-07T15:09:16Z</time>
      </trkpt>
      <trkpt lat="47.53651" lon="-1.35618">
        <ele>59</ele>
        <time>2015-02-07T15:09:20Z</time>
      </trkpt>
      <trkpt lat="47.53661" lon="-1.35654">
        <ele>61</ele>
        <time>2015-02-07T15:09:28Z</time>
      </trkpt>
      <trkpt lat="47.53666" lon="-1.35675">
        <ele>62</ele>
        <time>2015-02-07T15:09:33Z</time>
      </trkpt>
      <trkpt lat="47.53668" lon="-1.35684">
        <ele>60</ele>
        <time>2015-02-07T15:09:35Z</time>
      </trkpt>
      <trkpt lat="47.53675" lon="-1.35707">
        <ele>61</ele>
        <time>2015-02-07T15:09:40Z</time>
      </trkpt>
      <trkpt lat="47.53681" lon="-1.3573">
        <ele>61</ele>
        <time>2015-02-07T15:09:45Z</time>
      </trkpt>
      <trkpt lat="47.53685" lon="-1.35753">
        <ele>61</ele>
        <time>2015-02-07T15:09:51Z</time>
      </trkpt>
      <trkpt lat="47.53679" lon="-1.35784">
        <ele>58</ele>
        <time>2015-02-07T15:09:59Z</time>
      </trkpt>
      <trkpt lat="47.53678" lon="-1.35792">
        <ele>58</ele>
        <time>2015-02-07T15:10:01Z</time>
      </trkpt>
      <trkpt lat="47.53677" lon="-1.35807">
        <ele>56</ele>
        <time>2015-02-07T15:10:05Z</time>
      </trkpt>
      <trkpt lat="47.53677" lon="-1.35826">
        <ele>56</ele>
        <time>2015-02-07T15:10:10Z</time>
      </trkpt>
      <trkpt lat="47.53679" lon="-1.35845">
        <ele>57</ele>
        <time>2015-02-07T15:10:15Z</time>
      </trkpt>
      <trkpt lat="47.53685" lon="-1.35876">
        <ele>58</ele>
        <time>2015-02-07T15:10:23Z</time>
      </trkpt>
      <trkpt lat="47.53687" lon="-1.35884">
        <ele>57</ele>
        <time>2015-02-07T15:10:25Z</time>
      </trkpt>
      <trkpt lat="47.53694" lon="-1.35902">
        <ele>58</ele>
        <time>2015-02-07T15:10:30Z</time>
      </trkpt>
      <trkpt lat="47.53702" lon="-1.35922">
        <ele>58</ele>
        <time>2015-02-07T15:10:35Z</time>
      </trkpt>
      <trkpt lat="47.53708" lon="-1.35941">
        <ele>60</ele>
        <time>2015-02-07T15:10:40Z</time>
      </trkpt>
      <trkpt lat="47.53716" lon="-1.3596">
        <ele>63</ele>
        <time>2015-02-07T15:10:45Z</time>
      </trkpt>
      <trkpt lat="47.53723" lon="-1.35982">
        <ele>68</ele>
        <time>2015-02-07T15:10:51Z</time>
      </trkpt>
      <trkpt lat="47.53732" lon="-1.35998">
        <ele>65</ele>
        <time>2015-02-07T15:10:56Z</time>
      </trkpt>
      <trkpt lat="47.53738" lon="-1.36008">
        <ele>64</ele>
        <time>2015-02-07T15:11:03Z</time>
      </trkpt>
      <trkpt lat="47.53738" lon="-1.36008">
        <ele>65</ele>
        <time>2015-02-07T15:11:05Z</time>
      </trkpt>
      <trkpt lat="47.53738" lon="-1.36008">
        <ele>65</ele>
        <time>2015-02-07T15:11:08Z</time>
      </trkpt>
      <trkpt lat="47.53738" lon="-1.36008">
        <ele>62</ele>
        <time>2015-02-07T15:11:11Z</time>
      </trkpt>
      <trkpt lat="47.53737" lon="-1.36009">
        <ele>62</ele>
        <time>2015-02-07T15:11:15Z</time>
      </trkpt>
      <trkpt lat="47.53738" lon="-1.36011">
        <ele>58</ele>
        <time>2015-02-07T15:11:17Z</time>
      </trkpt>
      <trkpt lat="47.53739" lon="-1.3601">
        <ele>59</ele>
        <time>2015-02-07T15:11:22Z</time>
      </trkpt>
      <trkpt lat="47.53739" lon="-1.36011">
        <ele>60</ele>
        <time>2015-02-07T15:11:25Z</time>
      </trkpt>
      <trkpt lat="47.53739" lon="-1.36011">
        <ele>60</ele>
        <time>2015-02-07T15:11:28Z</time>
      </trkpt>
      <trkpt lat="47.53739" lon="-1.36011">
        <ele>60</ele>
        <time>2015-02-07T15:11:31Z</time>
      </trkpt>
      <trkpt lat="47.53739" lon="-1.3601">
        <ele>61</ele>
        <time>2015-02-07T15:11:36Z</time>
      </trkpt>
      <trkpt lat="47.53739" lon="-1.3601">
        <ele>61</ele>
        <time>2015-02-07T15:11:37Z</time>
      </trkpt>
      <trkpt lat="47.53739" lon="-1.3601">
        <ele>61</ele>
        <time>2015-02-07T15:11:40Z</time>
      </trkpt>
      <trkpt lat="47.53739" lon="-1.3601">
        <ele>61</ele>
        <time>2015-02-07T15:11:45Z</time>
      </trkpt>
      <trkpt lat="47.53739" lon="-1.3601">
        <ele>61</ele>
        <time>2015-02-07T15:11:46Z</time>
      </trkpt>
      <trkpt lat="47.53739" lon="-1.3601">
        <ele>61</ele>
        <time>2015-02-07T15:11:50Z</time>
      </trkpt>
      <trkpt lat="47.53739" lon="-1.3601">
        <ele>61</ele>
        <time>2015-02-07T15:11:52Z</time>
      </trkpt>
      <trkpt lat="47.53739" lon="-1.3601">
        <ele>61</ele>
        <time>2015-02-07T15:11:55Z</time>
      </trkpt>
      <trkpt lat="47.53739" lon="-1.3601">
        <ele>61</ele>
        <time>2015-02-07T15:11:58Z</time>
      </trkpt>
      <trkpt lat="47.53739" lon="-1.3601">
        <ele>61</ele>
        <time>2015-02-07T15:12:03Z</time>
      </trkpt>
      <trkpt lat="47.53739" lon="-1.3601">
        <ele>61</ele>
        <time>2015-02-07T15:12:04Z</time>
      </trkpt>
      <trkpt lat="47.53739" lon="-1.3601">
        <ele>61</ele>
        <time>2015-02-07T15:12:07Z</time>
      </trkpt>
      <trkpt lat="47.53739" lon="-1.3601">
        <ele>61</ele>
        <time>2015-02-07T15:12:10Z</time>
      </trkpt>
      <trkpt lat="47.53739" lon="-1.36011">
        <ele>58</ele>
        <time>2015-02-07T15:12:13Z</time>
      </trkpt>
      <trkpt lat="47.53744" lon="-1.36013">
        <ele>58</ele>
        <time>2015-02-07T15:12:18Z</time>
      </trkpt>
      <trkpt lat="47.53749" lon="-1.36005">
        <ele>57</ele>
        <time>2015-02-07T15:12:21Z</time>
      </trkpt>
      <trkpt lat="47.53761" lon="-1.35991">
        <ele>56</ele>
        <time>2015-02-07T15:12:26Z</time>
      </trkpt>
      <trkpt lat="47.53771" lon="-1.35977">
        <ele>57</ele>
        <time>2015-02-07T15:12:31Z</time>
      </trkpt>
      <trkpt lat="47.53777" lon="-1.35967">
        <ele>57</ele>
        <time>2015-02-07T15:12:36Z</time>
      </trkpt>
      <trkpt lat="47.53789" lon="-1.3595">
        <ele>57</ele>
        <time>2015-02-07T15:12:41Z</time>
      </trkpt>
      <trkpt lat="47.53801" lon="-1.35934">
        <ele>58</ele>
        <time>2015-02-07T15:12:46Z</time>
      </trkpt>
      <trkpt lat="47.53814" lon="-1.35917">
        <ele>57</ele>
        <time>2015-02-07T15:12:51Z</time>
      </trkpt>
      <trkpt lat="47.53827" lon="-1.35902">
        <ele>57</ele>
        <time>2015-02-07T15:12:56Z</time>
      </trkpt>
      <trkpt lat="47.5384" lon="-1.35887">
        <ele>58</ele>
        <time>2015-02-07T15:13:01Z</time>
      </trkpt>
      <trkpt lat="47.53857" lon="-1.3587">
        <ele>58</ele>
        <time>2015-02-07T15:13:07Z</time>
      </trkpt>
      <trkpt lat="47.53868" lon="-1.35858">
        <ele>57</ele>
        <time>2015-02-07T15:13:11Z</time>
      </trkpt>
      <trkpt lat="47.53882" lon="-1.35843">
        <ele>56</ele>
        <time>2015-02-07T15:13:16Z</time>
      </trkpt>
      <trkpt lat="47.53897" lon="-1.35828">
        <ele>56</ele>
        <time>2015-02-07T15:13:21Z</time>
      </trkpt>
      <trkpt lat="47.53913" lon="-1.35813">
        <ele>57</ele>
        <time>2015-02-07T15:13:26Z</time>
      </trkpt>
      <trkpt lat="47.53924" lon="-1.35804">
        <ele>56</ele>
        <time>2015-02-07T15:13:31Z</time>
      </trkpt>
      <trkpt lat="47.53925" lon="-1.35803">
        <ele>55</ele>
        <time>2015-02-07T15:13:36Z</time>
      </trkpt>
      <trkpt lat="47.53927" lon="-1.35802">
        <ele>56</ele>
        <time>2015-02-07T15:13:39Z</time>
      </trkpt>
      <trkpt lat="47.53928" lon="-1.35802">
        <ele>56</ele>
        <time>2015-02-07T15:13:44Z</time>
      </trkpt>
      <trkpt lat="47.53927" lon="-1.35801">
        <ele>56</ele>
        <time>2015-02-07T15:13:47Z</time>
      </trkpt>
      <trkpt lat="47.53928" lon="-1.35799">
        <ele>58</ele>
        <time>2015-02-07T15:13:50Z</time>
      </trkpt>
      <trkpt lat="47.53928" lon="-1.35799">
        <ele>58</ele>
        <time>2015-02-07T15:13:55Z</time>
      </trkpt>
      <trkpt lat="47.53929" lon="-1.35799">
        <ele>57</ele>
        <time>2015-02-07T15:13:58Z</time>
      </trkpt>
      <trkpt lat="47.53929" lon="-1.358">
        <ele>58</ele>
        <time>2015-02-07T15:14:01Z</time>
      </trkpt>
      <trkpt lat="47.53929" lon="-1.358">
        <ele>58</ele>
        <time>2015-02-07T15:14:04Z</time>
      </trkpt>
      <trkpt lat="47.53929" lon="-1.358">
        <ele>58</ele>
        <time>2015-02-07T15:14:07Z</time>
      </trkpt>
      <trkpt lat="47.53929" lon="-1.358">
        <ele>58</ele>
        <time>2015-02-07T15:14:10Z</time>
      </trkpt>
      <trkpt lat="47.53929" lon="-1.358">
        <ele>58</ele>
        <time>2015-02-07T15:14:13Z</time>
      </trkpt>
      <trkpt lat="47.53929" lon="-1.358">
        <ele>58</ele>
        <time>2015-02-07T15:14:16Z</time>
      </trkpt>
      <trkpt lat="47.53929" lon="-1.358">
        <ele>58</ele>
        <time>2015-02-07T15:14:20Z</time>
      </trkpt>
      <trkpt lat="47.53929" lon="-1.358">
        <ele>58</ele>
        <time>2015-02-07T15:14:22Z</time>
      </trkpt>
      <trkpt lat="47.53929" lon="-1.358">
        <ele>58</ele>
        <time>2015-02-07T15:14:26Z</time>
      </trkpt>
      <trkpt lat="47.53929" lon="-1.358">
        <ele>58</ele>
        <time>2015-02-07T15:14:28Z</time>
      </trkpt>
      <trkpt lat="47.53929" lon="-1.358">
        <ele>58</ele>
        <time>2015-02-07T15:14:31Z</time>
      </trkpt>
      <trkpt lat="47.53929" lon="-1.358">
        <ele>58</ele>
        <time>2015-02-07T15:14:34Z</time>
      </trkpt>
      <trkpt lat="47.53929" lon="-1.358">
        <ele>58</ele>
        <time>2015-02-07T15:14:39Z</time>
      </trkpt>
      <trkpt lat="47.53929" lon="-1.358">
        <ele>58</ele>
        <time>2015-02-07T15:14:40Z</time>
      </trkpt>
      <trkpt lat="47.53929" lon="-1.358">
        <ele>58</ele>
        <time>2015-02-07T15:14:44Z</time>
      </trkpt>
      <trkpt lat="47.53929" lon="-1.358">
        <ele>58</ele>
        <time>2015-02-07T15:14:46Z</time>
      </trkpt>
      <trkpt lat="47.53929" lon="-1.358">
        <ele>58</ele>
        <time>2015-02-07T15:14:49Z</time>
      </trkpt>
      <trkpt lat="47.53929" lon="-1.358">
        <ele>58</ele>
        <time>2015-02-07T15:14:53Z</time>
      </trkpt>
      <trkpt lat="47.53929" lon="-1.358">
        <ele>58</ele>
        <time>2015-02-07T15:14:55Z</time>
      </trkpt>
      <trkpt lat="47.53929" lon="-1.358">
        <ele>58</ele>
        <time>2015-02-07T15:14:59Z</time>
      </trkpt>
      <trkpt lat="47.53929" lon="-1.358">
        <ele>58</ele>
        <time>2015-02-07T15:15:01Z</time>
      </trkpt>
      <trkpt lat="47.53929" lon="-1.358">
        <ele>58</ele>
        <time>2015-02-07T15:15:04Z</time>
      </trkpt>
      <trkpt lat="47.53929" lon="-1.358">
        <ele>58</ele>
        <time>2015-02-07T15:15:07Z</time>
      </trkpt>
      <trkpt lat="47.53929" lon="-1.358">
        <ele>58</ele>
        <time>2015-02-07T15:15:10Z</time>
      </trkpt>
      <trkpt lat="47.53929" lon="-1.358">
        <ele>58</ele>
        <time>2015-02-07T15:15:13Z</time>
      </trkpt>
      <trkpt lat="47.53929" lon="-1.358">
        <ele>58</ele>
        <time>2015-02-07T15:15:16Z</time>
      </trkpt>
      <trkpt lat="47.53929" lon="-1.358">
        <ele>58</ele>
        <time>2015-02-07T15:15:20Z</time>
      </trkpt>
      <trkpt lat="47.53929" lon="-1.358">
        <ele>58</ele>
        <time>2015-02-07T15:15:22Z</time>
      </trkpt>
      <trkpt lat="47.53929" lon="-1.358">
        <ele>58</ele>
        <time>2015-02-07T15:15:25Z</time>
      </trkpt>
      <trkpt lat="47.53929" lon="-1.358">
        <ele>58</ele>
        <time>2015-02-07T15:15:28Z</time>
      </trkpt>
      <trkpt lat="47.53929" lon="-1.358">
        <ele>58</ele>
        <time>2015-02-07T15:15:31Z</time>
      </trkpt>
      <trkpt lat="47.53929" lon="-1.358">
        <ele>58</ele>
        <time>2015-02-07T15:15:36Z</time>
      </trkpt>
      <trkpt lat="47.53929" lon="-1.358">
        <ele>58</ele>
        <time>2015-02-07T15:15:37Z</time>
      </trkpt>
      <trkpt lat="47.53929" lon="-1.358">
        <ele>58</ele>
        <time>2015-02-07T15:15:40Z</time>
      </trkpt>
      <trkpt lat="47.53929" lon="-1.358">
        <ele>58</ele>
        <time>2015-02-07T15:15:45Z</time>
      </trkpt>
      <trkpt lat="47.53929" lon="-1.358">
        <ele>58</ele>
        <time>2015-02-07T15:15:46Z</time>
      </trkpt>
      <trkpt lat="47.53929" lon="-1.358">
        <ele>58</ele>
        <time>2015-02-07T15:15:49Z</time>
      </trkpt>
      <trkpt lat="47.53929" lon="-1.358">
        <ele>58</ele>
        <time>2015-02-07T15:15:52Z</time>
      </trkpt>
      <trkpt lat="47.53929" lon="-1.358">
        <ele>58</ele>
        <time>2015-02-07T15:15:57Z</time>
      </trkpt>
      <trkpt lat="47.53929" lon="-1.358">
        <ele>58</ele>
        <time>2015-02-07T15:15:58Z</time>
      </trkpt>
      <trkpt lat="47.53929" lon="-1.358">
        <ele>58</ele>
        <time>2015-02-07T15:16:01Z</time>
      </trkpt>
      <trkpt lat="47.53929" lon="-1.358">
        <ele>58</ele>
        <time>2015-02-07T15:16:04Z</time>
      </trkpt>
      <trkpt lat="47.53929" lon="-1.358">
        <ele>58</ele>
        <time>2015-02-07T15:16:08Z</time>
      </trkpt>
      <trkpt lat="47.53929" lon="-1.358">
        <ele>58</ele>
        <time>2015-02-07T15:16:12Z</time>
      </trkpt>
      <trkpt lat="47.53929" lon="-1.358">
        <ele>58</ele>
        <time>2015-02-07T15:16:15Z</time>
      </trkpt>
      <trkpt lat="47.53929" lon="-1.358">
        <ele>58</ele>
        <time>2015-02-07T15:16:18Z</time>
      </trkpt>
      <trkpt lat="47.53929" lon="-1.358">
        <ele>58</ele>
        <time>2015-02-07T15:16:21Z</time>
      </trkpt>
      <trkpt lat="47.53929" lon="-1.358">
        <ele>58</ele>
        <time>2015-02-07T15:16:22Z</time>
      </trkpt>
      <trkpt lat="47.53929" lon="-1.358">
        <ele>58</ele>
        <time>2015-02-07T15:16:25Z</time>
      </trkpt>
      <trkpt lat="47.53929" lon="-1.358">
        <ele>58</ele>
        <time>2015-02-07T15:16:28Z</time>
      </trkpt>
      <trkpt lat="47.53929" lon="-1.358">
        <ele>58</ele>
        <time>2015-02-07T15:16:31Z</time>
      </trkpt>
      <trkpt lat="47.53929" lon="-1.358">
        <ele>58</ele>
        <time>2015-02-07T15:16:34Z</time>
      </trkpt>
      <trkpt lat="47.53929" lon="-1.358">
        <ele>58</ele>
        <time>2015-02-07T15:16:37Z</time>
      </trkpt>
      <trkpt lat="47.53929" lon="-1.358">
        <ele>58</ele>
        <time>2015-02-07T15:16:40Z</time>
      </trkpt>
      <trkpt lat="47.53929" lon="-1.358">
        <ele>58</ele>
        <time>2015-02-07T15:16:43Z</time>
      </trkpt>
      <trkpt lat="47.53929" lon="-1.358">
        <ele>58</ele>
        <time>2015-02-07T15:16:46Z</time>
      </trkpt>
      <trkpt lat="47.53929" lon="-1.358">
        <ele>58</ele>
        <time>2015-02-07T15:16:51Z</time>
      </trkpt>
      <trkpt lat="47.53929" lon="-1.358">
        <ele>58</ele>
        <time>2015-02-07T15:16:52Z</time>
      </trkpt>
      <trkpt lat="47.53929" lon="-1.358">
        <ele>58</ele>
        <time>2015-02-07T15:16:55Z</time>
      </trkpt>
      <trkpt lat="47.53929" lon="-1.358">
        <ele>58</ele>
        <time>2015-02-07T15:16:59Z</time>
      </trkpt>
      <trkpt lat="47.53929" lon="-1.358">
        <ele>58</ele>
        <time>2015-02-07T15:17:01Z</time>
      </trkpt>
      <trkpt lat="47.53929" lon="-1.358">
        <ele>58</ele>
        <time>2015-02-07T15:17:04Z</time>
      </trkpt>
      <trkpt lat="47.53929" lon="-1.358">
        <ele>58</ele>
        <time>2015-02-07T15:17:07Z</time>
      </trkpt>
      <trkpt lat="47.53929" lon="-1.358">
        <ele>58</ele>
        <time>2015-02-07T15:17:10Z</time>
      </trkpt>
      <trkpt lat="47.53929" lon="-1.358">
        <ele>58</ele>
        <time>2015-02-07T15:17:13Z</time>
      </trkpt>
      <trkpt lat="47.53929" lon="-1.358">
        <ele>58</ele>
        <time>2015-02-07T15:17:16Z</time>
      </trkpt>
      <trkpt lat="47.53929" lon="-1.358">
        <ele>58</ele>
        <time>2015-02-07T15:17:19Z</time>
      </trkpt>
      <trkpt lat="47.53929" lon="-1.358">
        <ele>58</ele>
        <time>2015-02-07T15:17:22Z</time>
      </trkpt>
      <trkpt lat="47.53929" lon="-1.358">
        <ele>58</ele>
        <time>2015-02-07T15:17:25Z</time>
      </trkpt>
      <trkpt lat="47.53929" lon="-1.358">
        <ele>58</ele>
        <time>2015-02-07T15:17:28Z</time>
      </trkpt>
      <trkpt lat="47.53929" lon="-1.358">
        <ele>58</ele>
        <time>2015-02-07T15:17:31Z</time>
      </trkpt>
      <trkpt lat="47.53929" lon="-1.358">
        <ele>58</ele>
        <time>2015-02-07T15:17:35Z</time>
      </trkpt>
      <trkpt lat="47.53929" lon="-1.358">
        <ele>58</ele>
        <time>2015-02-07T15:17:37Z</time>
      </trkpt>
      <trkpt lat="47.53929" lon="-1.358">
        <ele>58</ele>
        <time>2015-02-07T15:17:42Z</time>
      </trkpt>
      <trkpt lat="47.53929" lon="-1.358">
        <ele>58</ele>
        <time>2015-02-07T15:17:43Z</time>
      </trkpt>
      <trkpt lat="47.53929" lon="-1.358">
        <ele>58</ele>
        <time>2015-02-07T15:17:46Z</time>
      </trkpt>
      <trkpt lat="47.53929" lon="-1.358">
        <ele>58</ele>
        <time>2015-02-07T15:17:49Z</time>
      </trkpt>
      <trkpt lat="47.53929" lon="-1.358">
        <ele>58</ele>
        <time>2015-02-07T15:17:52Z</time>
      </trkpt>
      <trkpt lat="47.53929" lon="-1.358">
        <ele>58</ele>
        <time>2015-02-07T15:17:56Z</time>
      </trkpt>
      <trkpt lat="47.53929" lon="-1.358">
        <ele>58</ele>
        <time>2015-02-07T15:18:00Z</time>
      </trkpt>
      <trkpt lat="47.53929" lon="-1.358">
        <ele>58</ele>
        <time>2015-02-07T15:18:01Z</time>
      </trkpt>
      <trkpt lat="47.53929" lon="-1.358">
        <ele>58</ele>
        <time>2015-02-07T15:18:04Z</time>
      </trkpt>
      <trkpt lat="47.53929" lon="-1.358">
        <ele>58</ele>
        <time>2015-02-07T15:18:08Z</time>
      </trkpt>
      <trkpt lat="47.53929" lon="-1.358">
        <ele>58</ele>
        <time>2015-02-07T15:18:10Z</time>
      </trkpt>
      <trkpt lat="47.53929" lon="-1.358">
        <ele>58</ele>
        <time>2015-02-07T15:18:13Z</time>
      </trkpt>
      <trkpt lat="47.53929" lon="-1.358">
        <ele>58</ele>
        <time>2015-02-07T15:18:18Z</time>
      </trkpt>
      <trkpt lat="47.53929" lon="-1.358">
        <ele>58</ele>
        <time>2015-02-07T15:18:19Z</time>
      </trkpt>
      <trkpt lat="47.53929" lon="-1.358">
        <ele>58</ele>
        <time>2015-02-07T15:18:22Z</time>
      </trkpt>
      <trkpt lat="47.53929" lon="-1.358">
        <ele>58</ele>
        <time>2015-02-07T15:18:25Z</time>
      </trkpt>
      <trkpt lat="47.53929" lon="-1.358">
        <ele>58</ele>
        <time>2015-02-07T15:18:28Z</time>
      </trkpt>
      <trkpt lat="47.53929" lon="-1.358">
        <ele>58</ele>
        <time>2015-02-07T15:18:31Z</time>
      </trkpt>
      <trkpt lat="47.53929" lon="-1.358">
        <ele>58</ele>
        <time>2015-02-07T15:18:34Z</time>
      </trkpt>
      <trkpt lat="47.53929" lon="-1.358">
        <ele>58</ele>
        <time>2015-02-07T15:18:37Z</time>
      </trkpt>
      <trkpt lat="47.53929" lon="-1.358">
        <ele>58</ele>
        <time>2015-02-07T15:18:40Z</time>
      </trkpt>
      <trkpt lat="47.53929" lon="-1.358">
        <ele>58</ele>
        <time>2015-02-07T15:18:43Z</time>
      </trkpt>
      <trkpt lat="47.53929" lon="-1.358">
        <ele>58</ele>
        <time>2015-02-07T15:18:46Z</time>
      </trkpt>
      <trkpt lat="47.53929" lon="-1.358">
        <ele>58</ele>
        <time>2015-02-07T15:18:49Z</time>
      </trkpt>
      <trkpt lat="47.53929" lon="-1.358">
        <ele>57</ele>
        <time>2015-02-07T15:18:52Z</time>
      </trkpt>
      <trkpt lat="47.53929" lon="-1.35802">
        <ele>57</ele>
        <time>2015-02-07T15:18:55Z</time>
      </trkpt>
      <trkpt lat="47.53929" lon="-1.35803">
        <ele>57</ele>
        <time>2015-02-07T15:18:58Z</time>
      </trkpt>
      <trkpt lat="47.53929" lon="-1.35801">
        <ele>58</ele>
        <time>2015-02-07T15:19:02Z</time>
      </trkpt>
      <trkpt lat="47.5393" lon="-1.35801">
        <ele>58</ele>
        <time>2015-02-07T15:19:04Z</time>
      </trkpt>
      <trkpt lat="47.5393" lon="-1.35801">
        <ele>58</ele>
        <time>2015-02-07T15:19:07Z</time>
      </trkpt>
      <trkpt lat="47.5393" lon="-1.35801">
        <ele>58</ele>
        <time>2015-02-07T15:19:10Z</time>
      </trkpt>
      <trkpt lat="47.5393" lon="-1.35801">
        <ele>58</ele>
        <time>2015-02-07T15:19:13Z</time>
      </trkpt>
      <trkpt lat="47.5393" lon="-1.358">
        <ele>60</ele>
        <time>2015-02-07T15:19:16Z</time>
      </trkpt>
      <trkpt lat="47.53931" lon="-1.358">
        <ele>61</ele>
        <time>2015-02-07T15:19:19Z</time>
      </trkpt>
      <trkpt lat="47.53931" lon="-1.35799">
        <ele>62</ele>
        <time>2015-02-07T15:19:23Z</time>
      </trkpt>
      <trkpt lat="47.5393" lon="-1.358">
        <ele>62</ele>
        <time>2015-02-07T15:19:25Z</time>
      </trkpt>
      <trkpt lat="47.5393" lon="-1.35799">
        <ele>62</ele>
        <time>2015-02-07T15:19:28Z</time>
      </trkpt>
      <trkpt lat="47.5393" lon="-1.358">
        <ele>62</ele>
        <time>2015-02-07T15:19:31Z</time>
      </trkpt>
      <trkpt lat="47.53931" lon="-1.358">
        <ele>61</ele>
        <time>2015-02-07T15:19:34Z</time>
      </trkpt>
      <trkpt lat="47.53931" lon="-1.35801">
        <ele>61</ele>
        <time>2015-02-07T15:19:37Z</time>
      </trkpt>
      <trkpt lat="47.53931" lon="-1.35802">
        <ele>59</ele>
        <time>2015-02-07T15:19:41Z</time>
      </trkpt>
      <trkpt lat="47.5393" lon="-1.35802">
        <ele>59</ele>
        <time>2015-02-07T15:19:43Z</time>
      </trkpt>
      <trkpt lat="47.5393" lon="-1.35801">
        <ele>60</ele>
        <time>2015-02-07T15:19:48Z</time>
      </trkpt>
      <trkpt lat="47.5393" lon="-1.35801">
        <ele>60</ele>
        <time>2015-02-07T15:19:49Z</time>
      </trkpt>
      <trkpt lat="47.5393" lon="-1.35801">
        <ele>60</ele>
        <time>2015-02-07T15:19:52Z</time>
      </trkpt>
      <trkpt lat="47.5393" lon="-1.35801">
        <ele>60</ele>
        <time>2015-02-07T15:19:57Z</time>
      </trkpt>
      <trkpt lat="47.5393" lon="-1.35801">
        <ele>60</ele>
        <time>2015-02-07T15:19:58Z</time>
      </trkpt>
      <trkpt lat="47.5393" lon="-1.35801">
        <ele>60</ele>
        <time>2015-02-07T15:20:01Z</time>
      </trkpt>
      <trkpt lat="47.5393" lon="-1.35801">
        <ele>60</ele>
        <time>2015-02-07T15:20:05Z</time>
      </trkpt>
      <trkpt lat="47.5393" lon="-1.35801">
        <ele>60</ele>
        <time>2015-02-07T15:20:07Z</time>
      </trkpt>
      <trkpt lat="47.5393" lon="-1.35801">
        <ele>60</ele>
        <time>2015-02-07T15:20:11Z</time>
      </trkpt>
      <trkpt lat="47.5393" lon="-1.35801">
        <ele>60</ele>
        <time>2015-02-07T15:20:13Z</time>
      </trkpt>
      <trkpt lat="47.5393" lon="-1.35801">
        <ele>60</ele>
        <time>2015-02-07T15:20:18Z</time>
      </trkpt>
      <trkpt lat="47.5393" lon="-1.35801">
        <ele>60</ele>
        <time>2015-02-07T15:20:20Z</time>
      </trkpt>
      <trkpt lat="47.5393" lon="-1.35801">
        <ele>60</ele>
        <time>2015-02-07T15:20:22Z</time>
      </trkpt>
      <trkpt lat="47.5393" lon="-1.358">
        <ele>60</ele>
        <time>2015-02-07T15:20:25Z</time>
      </trkpt>
      <trkpt lat="47.53931" lon="-1.358">
        <ele>60</ele>
        <time>2015-02-07T15:20:29Z</time>
      </trkpt>
      <trkpt lat="47.5393" lon="-1.358">
        <ele>61</ele>
        <time>2015-02-07T15:20:31Z</time>
      </trkpt>
      <trkpt lat="47.5393" lon="-1.35799">
        <ele>61</ele>
        <time>2015-02-07T15:20:34Z</time>
      </trkpt>
      <trkpt lat="47.53938" lon="-1.35788">
        <ele>59</ele>
        <time>2015-02-07T15:20:41Z</time>
      </trkpt>
      <trkpt lat="47.53947" lon="-1.35806">
        <ele>57</ele>
        <time>2015-02-07T15:20:46Z</time>
      </trkpt>
      <trkpt lat="47.53948" lon="-1.35811">
        <ele>57</ele>
        <time>2015-02-07T15:20:47Z</time>
      </trkpt>
      <trkpt lat="47.5395" lon="-1.35836">
        <ele>61</ele>
        <time>2015-02-07T15:20:52Z</time>
      </trkpt>
      <trkpt lat="47.53952" lon="-1.3586">
        <ele>59</ele>
        <time>2015-02-07T15:20:57Z</time>
      </trkpt>
      <trkpt lat="47.53954" lon="-1.35884">
        <ele>63</ele>
        <time>2015-02-07T15:21:02Z</time>
      </trkpt>
      <trkpt lat="47.53957" lon="-1.35911">
        <ele>59</ele>
        <time>2015-02-07T15:21:07Z</time>
      </trkpt>
      <trkpt lat="47.5396" lon="-1.3594">
        <ele>59</ele>
        <time>2015-02-07T15:21:12Z</time>
      </trkpt>
      <trkpt lat="47.53964" lon="-1.35986">
        <ele>60</ele>
        <time>2015-02-07T15:21:20Z</time>
      </trkpt>
      <trkpt lat="47.53965" lon="-1.35998">
        <ele>60</ele>
        <time>2015-02-07T15:21:22Z</time>
      </trkpt>
      <trkpt lat="47.53972" lon="-1.36051">
        <ele>57</ele>
        <time>2015-02-07T15:21:31Z</time>
      </trkpt>
      <trkpt lat="47.53973" lon="-1.36057">
        <ele>57</ele>
        <time>2015-02-07T15:21:32Z</time>
      </trkpt>
      <trkpt lat="47.5398" lon="-1.36096">
        <ele>56</ele>
        <time>2015-02-07T15:21:39Z</time>
      </trkpt>
      <trkpt lat="47.53982" lon="-1.36126">
        <ele>58</ele>
        <time>2015-02-07T15:21:44Z</time>
      </trkpt>
      <trkpt lat="47.5398" lon="-1.36144">
        <ele>56</ele>
        <time>2015-02-07T15:21:47Z</time>
      </trkpt>
      <trkpt lat="47.53974" lon="-1.36174">
        <ele>55</ele>
        <time>2015-02-07T15:21:52Z</time>
      </trkpt>
      <trkpt lat="47.53966" lon="-1.36204">
        <ele>54</ele>
        <time>2015-02-07T15:21:57Z</time>
      </trkpt>
      <trkpt lat="47.53957" lon="-1.36238">
        <ele>54</ele>
        <time>2015-02-07T15:22:02Z</time>
      </trkpt>
      <trkpt lat="47.5395" lon="-1.3627">
        <ele>54</ele>
        <time>2015-02-07T15:22:07Z</time>
      </trkpt>
      <trkpt lat="47.53945" lon="-1.36305">
        <ele>54</ele>
        <time>2015-02-07T15:22:12Z</time>
      </trkpt>
      <trkpt lat="47.53944" lon="-1.36336">
        <ele>53</ele>
        <time>2015-02-07T15:22:17Z</time>
      </trkpt>
      <trkpt lat="47.53958" lon="-1.36362">
        <ele>53</ele>
        <time>2015-02-07T15:22:22Z</time>
      </trkpt>
      <trkpt lat="47.53983" lon="-1.36368">
        <ele>51</ele>
        <time>2015-02-07T15:22:27Z</time>
      </trkpt>
      <trkpt lat="47.54009" lon="-1.36369">
        <ele>51</ele>
        <time>2015-02-07T15:22:32Z</time>
      </trkpt>
      <trkpt lat="47.54032" lon="-1.36385">
        <ele>52</ele>
        <time>2015-02-07T15:22:37Z</time>
      </trkpt>
      <trkpt lat="47.54037" lon="-1.36416">
        <ele>50</ele>
        <time>2015-02-07T15:22:42Z</time>
      </trkpt>
      <trkpt lat="47.54034" lon="-1.36446">
        <ele>49</ele>
        <time>2015-02-07T15:22:47Z</time>
      </trkpt>
      <trkpt lat="47.5403" lon="-1.36484">
        <ele>49</ele>
        <time>2015-02-07T15:22:52Z</time>
      </trkpt>
      <trkpt lat="47.54028" lon="-1.36542">
        <ele>49</ele>
        <time>2015-02-07T15:23:00Z</time>
      </trkpt>
      <trkpt lat="47.5403" lon="-1.36554">
        <ele>48</ele>
        <time>2015-02-07T15:23:02Z</time>
      </trkpt>
      <trkpt lat="47.54037" lon="-1.36583">
        <ele>47</ele>
        <time>2015-02-07T15:23:07Z</time>
      </trkpt>
      <trkpt lat="47.5405" lon="-1.36617">
        <ele>47</ele>
        <time>2015-02-07T15:23:12Z</time>
      </trkpt>
      <trkpt lat="47.54063" lon="-1.36653">
        <ele>47</ele>
        <time>2015-02-07T15:23:17Z</time>
      </trkpt>
      <trkpt lat="47.54078" lon="-1.36685">
        <ele>47</ele>
        <time>2015-02-07T15:23:22Z</time>
      </trkpt>
      <trkpt lat="47.54103" lon="-1.36725">
        <ele>47</ele>
        <time>2015-02-07T15:23:29Z</time>
      </trkpt>
      <trkpt lat="47.54115" lon="-1.36743">
        <ele>45</ele>
        <time>2015-02-07T15:23:32Z</time>
      </trkpt>
      <trkpt lat="47.54137" lon="-1.36771">
        <ele>48</ele>
        <time>2015-02-07T15:23:37Z</time>
      </trkpt>
      <trkpt lat="47.54168" lon="-1.36809">
        <ele>47</ele>
        <time>2015-02-07T15:23:44Z</time>
      </trkpt>
      <trkpt lat="47.54197" lon="-1.36832">
        <ele>43</ele>
        <time>2015-02-07T15:23:50Z</time>
      </trkpt>
      <trkpt lat="47.54211" lon="-1.36839">
        <ele>45</ele>
        <time>2015-02-07T15:23:53Z</time>
      </trkpt>
      <trkpt lat="47.54228" lon="-1.3685">
        <ele>47</ele>
        <time>2015-02-07T15:23:57Z</time>
      </trkpt>
      <trkpt lat="47.54246" lon="-1.36867">
        <ele>46</ele>
        <time>2015-02-07T15:24:02Z</time>
      </trkpt>
      <trkpt lat="47.54262" lon="-1.36885">
        <ele>46</ele>
        <time>2015-02-07T15:24:07Z</time>
      </trkpt>
      <trkpt lat="47.54283" lon="-1.36911">
        <ele>48</ele>
        <time>2015-02-07T15:24:13Z</time>
      </trkpt>
      <trkpt lat="47.54309" lon="-1.36951">
        <ele>48</ele>
        <time>2015-02-07T15:24:21Z</time>
      </trkpt>
      <trkpt lat="47.5432" lon="-1.36963">
        <ele>48</ele>
        <time>2015-02-07T15:24:24Z</time>
      </trkpt>
      <trkpt lat="47.5434" lon="-1.36983">
        <ele>48</ele>
        <time>2015-02-07T15:24:29Z</time>
      </trkpt>
      <trkpt lat="47.54353" lon="-1.36992">
        <ele>47</ele>
        <time>2015-02-07T15:24:32Z</time>
      </trkpt>
      <trkpt lat="47.54375" lon="-1.37005">
        <ele>48</ele>
        <time>2015-02-07T15:24:37Z</time>
      </trkpt>
      <trkpt lat="47.54397" lon="-1.37019">
        <ele>48</ele>
        <time>2015-02-07T15:24:42Z</time>
      </trkpt>
      <trkpt lat="47.54419" lon="-1.37032">
        <ele>49</ele>
        <time>2015-02-07T15:24:47Z</time>
      </trkpt>
      <trkpt lat="47.5444" lon="-1.37047">
        <ele>48</ele>
        <time>2015-02-07T15:24:52Z</time>
      </trkpt>
      <trkpt lat="47.5446" lon="-1.37063">
        <ele>48</ele>
        <time>2015-02-07T15:24:57Z</time>
      </trkpt>
      <trkpt lat="47.54482" lon="-1.37079">
        <ele>49</ele>
        <time>2015-02-07T15:25:02Z</time>
      </trkpt>
      <trkpt lat="47.54502" lon="-1.37096">
        <ele>47</ele>
        <time>2015-02-07T15:25:07Z</time>
      </trkpt>
      <trkpt lat="47.54512" lon="-1.37115">
        <ele>46</ele>
        <time>2015-02-07T15:25:12Z</time>
      </trkpt>
      <trkpt lat="47.54507" lon="-1.37129">
        <ele>47</ele>
        <time>2015-02-07T15:25:17Z</time>
      </trkpt>
      <trkpt lat="47.54494" lon="-1.37145">
        <ele>46</ele>
        <time>2015-02-07T15:25:22Z</time>
      </trkpt>
      <trkpt lat="47.54477" lon="-1.37166">
        <ele>46</ele>
        <time>2015-02-07T15:25:27Z</time>
      </trkpt>
      <trkpt lat="47.54452" lon="-1.37197">
        <ele>47</ele>
        <time>2015-02-07T15:25:33Z</time>
      </trkpt>
      <trkpt lat="47.54436" lon="-1.3722">
        <ele>46</ele>
        <time>2015-02-07T15:25:37Z</time>
      </trkpt>
      <trkpt lat="47.54411" lon="-1.37267">
        <ele>45</ele>
        <time>2015-02-07T15:25:44Z</time>
      </trkpt>
      <trkpt lat="47.5439" lon="-1.37305">
        <ele>47</ele>
        <time>2015-02-07T15:25:49Z</time>
      </trkpt>
      <trkpt lat="47.54382" lon="-1.37332">
        <ele>45</ele>
        <time>2015-02-07T15:25:52Z</time>
      </trkpt>
      <trkpt lat="47.54364" lon="-1.37403">
        <ele>43</ele>
        <time>2015-02-07T15:26:00Z</time>
      </trkpt>
      <trkpt lat="47.54359" lon="-1.37419">
        <ele>42</ele>
        <time>2015-02-07T15:26:02Z</time>
      </trkpt>
      <trkpt lat="47.5434" lon="-1.37452">
        <ele>41</ele>
        <time>2015-02-07T15:26:07Z</time>
      </trkpt>
      <trkpt lat="47.54321" lon="-1.37485">
        <ele>41</ele>
        <time>2015-02-07T15:26:12Z</time>
      </trkpt>
      <trkpt lat="47.54303" lon="-1.37517">
        <ele>41</ele>
        <time>2015-02-07T15:26:17Z</time>
      </trkpt>
      <trkpt lat="47.54288" lon="-1.37546">
        <ele>41</ele>
        <time>2015-02-07T15:26:22Z</time>
      </trkpt>
      <trkpt lat="47.54272" lon="-1.37577">
        <ele>41</ele>
        <time>2015-02-07T15:26:27Z</time>
      </trkpt>
      <trkpt lat="47.54256" lon="-1.37606">
        <ele>42</ele>
        <time>2015-02-07T15:26:32Z</time>
      </trkpt>
      <trkpt lat="47.5424" lon="-1.37638">
        <ele>42</ele>
        <time>2015-02-07T15:26:37Z</time>
      </trkpt>
      <trkpt lat="47.54224" lon="-1.3767">
        <ele>44</ele>
        <time>2015-02-07T15:26:42Z</time>
      </trkpt>
      <trkpt lat="47.54206" lon="-1.37702">
        <ele>44</ele>
        <time>2015-02-07T15:26:47Z</time>
      </trkpt>
      <trkpt lat="47.54189" lon="-1.37734">
        <ele>46</ele>
        <time>2015-02-07T15:26:52Z</time>
      </trkpt>
      <trkpt lat="47.54172" lon="-1.37763">
        <ele>46</ele>
        <time>2015-02-07T15:26:57Z</time>
      </trkpt>
      <trkpt lat="47.54156" lon="-1.37793">
        <ele>47</ele>
        <time>2015-02-07T15:27:02Z</time>
      </trkpt>
      <trkpt lat="47.54141" lon="-1.37822">
        <ele>46</ele>
        <time>2015-02-07T15:27:07Z</time>
      </trkpt>
      <trkpt lat="47.54125" lon="-1.37852">
        <ele>46</ele>
        <time>2015-02-07T15:27:12Z</time>
      </trkpt>
      <trkpt lat="47.54108" lon="-1.37884">
        <ele>46</ele>
        <time>2015-02-07T15:27:17Z</time>
      </trkpt>
      <trkpt lat="47.54091" lon="-1.37915">
        <ele>45</ele>
        <time>2015-02-07T15:27:22Z</time>
      </trkpt>
      <trkpt lat="47.54075" lon="-1.37946">
        <ele>46</ele>
        <time>2015-02-07T15:27:27Z</time>
      </trkpt>
      <trkpt lat="47.54059" lon="-1.37977">
        <ele>46</ele>
        <time>2015-02-07T15:27:32Z</time>
      </trkpt>
      <trkpt lat="47.54044" lon="-1.3801">
        <ele>45</ele>
        <time>2015-02-07T15:27:37Z</time>
      </trkpt>
      <trkpt lat="47.54028" lon="-1.38042">
        <ele>46</ele>
        <time>2015-02-07T15:27:42Z</time>
      </trkpt>
      <trkpt lat="47.54012" lon="-1.38071">
        <ele>45</ele>
        <time>2015-02-07T15:27:47Z</time>
      </trkpt>
      <trkpt lat="47.53992" lon="-1.38106">
        <ele>45</ele>
        <time>2015-02-07T15:27:53Z</time>
      </trkpt>
      <trkpt lat="47.53978" lon="-1.38128">
        <ele>45</ele>
        <time>2015-02-07T15:27:57Z</time>
      </trkpt>
      <trkpt lat="47.53964" lon="-1.38157">
        <ele>45</ele>
        <time>2015-02-07T15:28:02Z</time>
      </trkpt>
      <trkpt lat="47.53938" lon="-1.38186">
        <ele>42</ele>
        <time>2015-02-07T15:28:07Z</time>
      </trkpt>
      <trkpt lat="47.5392" lon="-1.38216">
        <ele>43</ele>
        <time>2015-02-07T15:28:12Z</time>
      </trkpt>
      <trkpt lat="47.53898" lon="-1.38266">
        <ele>47</ele>
        <time>2015-02-07T15:28:20Z</time>
      </trkpt>
      <trkpt lat="47.53892" lon="-1.38302">
        <ele>46</ele>
        <time>2015-02-07T15:28:25Z</time>
      </trkpt>
      <trkpt lat="47.53891" lon="-1.38315">
        <ele>44</ele>
        <time>2015-02-07T15:28:27Z</time>
      </trkpt>
      <trkpt lat="47.53885" lon="-1.38345">
        <ele>42</ele>
        <time>2015-02-07T15:28:32Z</time>
      </trkpt>
      <trkpt lat="47.53878" lon="-1.38376">
        <ele>43</ele>
        <time>2015-02-07T15:28:37Z</time>
      </trkpt>
      <trkpt lat="47.53872" lon="-1.38413">
        <ele>43</ele>
        <time>2015-02-07T15:28:43Z</time>
      </trkpt>
      <trkpt lat="47.53865" lon="-1.38428">
        <ele>46</ele>
        <time>2015-02-07T15:28:48Z</time>
      </trkpt>
      <trkpt lat="47.53863" lon="-1.38432">
        <ele>48</ele>
        <time>2015-02-07T15:28:52Z</time>
      </trkpt>
      <trkpt lat="47.53863" lon="-1.38433">
        <ele>50</ele>
        <time>2015-02-07T15:28:58Z</time>
      </trkpt>
      <trkpt lat="47.53863" lon="-1.38433">
        <ele>50</ele>
        <time>2015-02-07T15:29:00Z</time>
      </trkpt>
      <trkpt lat="47.53862" lon="-1.38431">
        <ele>50</ele>
        <time>2015-02-07T15:29:03Z</time>
      </trkpt>
      <trkpt lat="47.53862" lon="-1.3843">
        <ele>49</ele>
        <time>2015-02-07T15:29:08Z</time>
      </trkpt>
      <trkpt lat="47.53863" lon="-1.3843">
        <ele>51</ele>
        <time>2015-02-07T15:29:11Z</time>
      </trkpt>
      <trkpt lat="47.53863" lon="-1.38429">
        <ele>51</ele>
        <time>2015-02-07T15:29:14Z</time>
      </trkpt>
      <trkpt lat="47.53863" lon="-1.38429">
        <ele>51</ele>
        <time>2015-02-07T15:29:17Z</time>
      </trkpt>
      <trkpt lat="47.53863" lon="-1.38429">
        <ele>51</ele>
        <time>2015-02-07T15:29:20Z</time>
      </trkpt>
      <trkpt lat="47.53863" lon="-1.38429">
        <ele>51</ele>
        <time>2015-02-07T15:29:23Z</time>
      </trkpt>
      <trkpt lat="47.53862" lon="-1.38428">
        <ele>49</ele>
        <time>2015-02-07T15:29:27Z</time>
      </trkpt>
      <trkpt lat="47.53862" lon="-1.38428">
        <ele>49</ele>
        <time>2015-02-07T15:29:29Z</time>
      </trkpt>
      <trkpt lat="47.53861" lon="-1.38427">
        <ele>50</ele>
        <time>2015-02-07T15:29:32Z</time>
      </trkpt>
      <trkpt lat="47.5385" lon="-1.3842">
        <ele>49</ele>
        <time>2015-02-07T15:29:37Z</time>
      </trkpt>
      <trkpt lat="47.5384" lon="-1.38417">
        <ele>48</ele>
        <time>2015-02-07T15:29:40Z</time>
      </trkpt>
      <trkpt lat="47.53814" lon="-1.3842">
        <ele>46</ele>
        <time>2015-02-07T15:29:46Z</time>
      </trkpt>
      <trkpt lat="47.53796" lon="-1.38425">
        <ele>48</ele>
        <time>2015-02-07T15:29:50Z</time>
      </trkpt>
      <trkpt lat="47.53773" lon="-1.38435">
        <ele>51</ele>
        <time>2015-02-07T15:29:55Z</time>
      </trkpt>
      <trkpt lat="47.53753" lon="-1.38444">
        <ele>51</ele>
        <time>2015-02-07T15:30:00Z</time>
      </trkpt>
      <trkpt lat="47.53733" lon="-1.38443">
        <ele>50</ele>
        <time>2015-02-07T15:30:08Z</time>
      </trkpt>
      <trkpt lat="47.53733" lon="-1.38436">
        <ele>51</ele>
        <time>2015-02-07T15:30:10Z</time>
      </trkpt>
      <trkpt lat="47.53731" lon="-1.3841">
        <ele>51</ele>
        <time>2015-02-07T15:30:15Z</time>
      </trkpt>
      <trkpt lat="47.53729" lon="-1.38377">
        <ele>50</ele>
        <time>2015-02-07T15:30:20Z</time>
      </trkpt>
      <trkpt lat="47.53726" lon="-1.38343">
        <ele>50</ele>
        <time>2015-02-07T15:30:25Z</time>
      </trkpt>
      <trkpt lat="47.53722" lon="-1.38311">
        <ele>51</ele>
        <time>2015-02-07T15:30:30Z</time>
      </trkpt>
      <trkpt lat="47.53716" lon="-1.38247">
        <ele>49</ele>
        <time>2015-02-07T15:30:39Z</time>
      </trkpt>
      <trkpt lat="47.53716" lon="-1.3824">
        <ele>49</ele>
        <time>2015-02-07T15:30:40Z</time>
      </trkpt>
      <trkpt lat="47.53713" lon="-1.38201">
        <ele>49</ele>
        <time>2015-02-07T15:30:45Z</time>
      </trkpt>
      <trkpt lat="47.5371" lon="-1.38161">
        <ele>50</ele>
        <time>2015-02-07T15:30:50Z</time>
      </trkpt>
      <trkpt lat="47.53705" lon="-1.38093">
        <ele>54</ele>
        <time>2015-02-07T15:30:59Z</time>
      </trkpt>
      <trkpt lat="47.53689" lon="-1.38076">
        <ele>49</ele>
        <time>2015-02-07T15:31:04Z</time>
      </trkpt>
      <trkpt lat="47.53666" lon="-1.38083">
        <ele>46</ele>
        <time>2015-02-07T15:31:09Z</time>
      </trkpt>
      <trkpt lat="47.53656" lon="-1.38086">
        <ele>45</ele>
        <time>2015-02-07T15:31:11Z</time>
      </trkpt>
      <trkpt lat="47.53638" lon="-1.38093">
        <ele>44</ele>
        <time>2015-02-07T15:31:15Z</time>
      </trkpt>
      <trkpt lat="47.53614" lon="-1.38102">
        <ele>45</ele>
        <time>2015-02-07T15:31:20Z</time>
      </trkpt>
      <trkpt lat="47.53591" lon="-1.38109">
        <ele>45</ele>
        <time>2015-02-07T15:31:25Z</time>
      </trkpt>
      <trkpt lat="47.53563" lon="-1.38118">
        <ele>45</ele>
        <time>2015-02-07T15:31:31Z</time>
      </trkpt>
      <trkpt lat="47.53545" lon="-1.38125">
        <ele>45</ele>
        <time>2015-02-07T15:31:35Z</time>
      </trkpt>
      <trkpt lat="47.53522" lon="-1.38132">
        <ele>44</ele>
        <time>2015-02-07T15:31:40Z</time>
      </trkpt>
      <trkpt lat="47.53495" lon="-1.38143">
        <ele>46</ele>
        <time>2015-02-07T15:31:46Z</time>
      </trkpt>
      <trkpt lat="47.53476" lon="-1.38147">
        <ele>48</ele>
        <time>2015-02-07T15:31:51Z</time>
      </trkpt>
      <trkpt lat="47.53434" lon="-1.38161">
        <ele>42</ele>
        <time>2015-02-07T15:31:59Z</time>
      </trkpt>
      <trkpt lat="47.53408" lon="-1.38168">
        <ele>41</ele>
        <time>2015-02-07T15:32:04Z</time>
      </trkpt>
      <trkpt lat="47.53404" lon="-1.38169">
        <ele>42</ele>
        <time>2015-02-07T15:32:05Z</time>
      </trkpt>
      <trkpt lat="47.53375" lon="-1.38174">
        <ele>39</ele>
        <time>2015-02-07T15:32:10Z</time>
      </trkpt>
      <trkpt lat="47.53346" lon="-1.38182">
        <ele>38</ele>
        <time>2015-02-07T15:32:15Z</time>
      </trkpt>
      <trkpt lat="47.53309" lon="-1.38193">
        <ele>39</ele>
        <time>2015-02-07T15:32:21Z</time>
      </trkpt>
      <trkpt lat="47.53276" lon="-1.38202">
        <ele>42</ele>
        <time>2015-02-07T15:32:27Z</time>
      </trkpt>
      <trkpt lat="47.53256" lon="-1.38207">
        <ele>42</ele>
        <time>2015-02-07T15:32:31Z</time>
      </trkpt>
      <trkpt lat="47.53239" lon="-1.38214">
        <ele>43</ele>
        <time>2015-02-07T15:32:35Z</time>
      </trkpt>
      <trkpt lat="47.53224" lon="-1.38222">
        <ele>45</ele>
        <time>2015-02-07T15:32:40Z</time>
      </trkpt>
      <trkpt lat="47.53224" lon="-1.3825">
        <ele>44</ele>
        <time>2015-02-07T15:32:45Z</time>
      </trkpt>
      <trkpt lat="47.53227" lon="-1.38284">
        <ele>44</ele>
        <time>2015-02-07T15:32:51Z</time>
      </trkpt>
      <trkpt lat="47.53227" lon="-1.38318">
        <ele>44</ele>
        <time>2015-02-07T15:32:57Z</time>
      </trkpt>
      <trkpt lat="47.53228" lon="-1.38346">
        <ele>44</ele>
        <time>2015-02-07T15:33:02Z</time>
      </trkpt>
      <trkpt lat="47.53228" lon="-1.38362">
        <ele>45</ele>
        <time>2015-02-07T15:33:05Z</time>
      </trkpt>
      <trkpt lat="47.53228" lon="-1.3839">
        <ele>46</ele>
        <time>2015-02-07T15:33:10Z</time>
      </trkpt>
      <trkpt lat="47.53227" lon="-1.38419">
        <ele>47</ele>
        <time>2015-02-07T15:33:15Z</time>
      </trkpt>
      <trkpt lat="47.53227" lon="-1.3845">
        <ele>48</ele>
        <time>2015-02-07T15:33:20Z</time>
      </trkpt>
      <trkpt lat="47.53227" lon="-1.38481">
        <ele>48</ele>
        <time>2015-02-07T15:33:25Z</time>
      </trkpt>
      <trkpt lat="47.53226" lon="-1.3852">
        <ele>48</ele>
        <time>2015-02-07T15:33:31Z</time>
      </trkpt>
      <trkpt lat="47.53227" lon="-1.38563">
        <ele>49</ele>
        <time>2015-02-07T15:33:38Z</time>
      </trkpt>
      <trkpt lat="47.53227" lon="-1.38576">
        <ele>49</ele>
        <time>2015-02-07T15:33:40Z</time>
      </trkpt>
      <trkpt lat="47.53229" lon="-1.38618">
        <ele>47</ele>
        <time>2015-02-07T15:33:49Z</time>
      </trkpt>
      <trkpt lat="47.53228" lon="-1.38621">
        <ele>48</ele>
        <time>2015-02-07T15:33:50Z</time>
      </trkpt>
      <trkpt lat="47.53204" lon="-1.38615">
        <ele>47</ele>
        <time>2015-02-07T15:33:58Z</time>
      </trkpt>
      <trkpt lat="47.53197" lon="-1.38612">
        <ele>47</ele>
        <time>2015-02-07T15:34:00Z</time>
      </trkpt>
      <trkpt lat="47.53178" lon="-1.38605">
        <ele>49</ele>
        <time>2015-02-07T15:34:05Z</time>
      </trkpt>
      <trkpt lat="47.53156" lon="-1.38597">
        <ele>49</ele>
        <time>2015-02-07T15:34:11Z</time>
      </trkpt>
      <trkpt lat="47.53141" lon="-1.38591">
        <ele>48</ele>
        <time>2015-02-07T15:34:15Z</time>
      </trkpt>
      <trkpt lat="47.53121" lon="-1.38586">
        <ele>48</ele>
        <time>2015-02-07T15:34:20Z</time>
      </trkpt>
      <trkpt lat="47.531" lon="-1.38578">
        <ele>48</ele>
        <time>2015-02-07T15:34:25Z</time>
      </trkpt>
      <trkpt lat="47.5308" lon="-1.38571">
        <ele>50</ele>
        <time>2015-02-07T15:34:30Z</time>
      </trkpt>
      <trkpt lat="47.53057" lon="-1.38563">
        <ele>49</ele>
        <time>2015-02-07T15:34:36Z</time>
      </trkpt>
      <trkpt lat="47.53031" lon="-1.38552">
        <ele>49</ele>
        <time>2015-02-07T15:34:43Z</time>
      </trkpt>
      <trkpt lat="47.53023" lon="-1.38549">
        <ele>49</ele>
        <time>2015-02-07T15:34:45Z</time>
      </trkpt>
      <trkpt lat="47.53004" lon="-1.38542">
        <ele>50</ele>
        <time>2015-02-07T15:34:50Z</time>
      </trkpt>
      <trkpt lat="47.52986" lon="-1.38533">
        <ele>51</ele>
        <time>2015-02-07T15:34:55Z</time>
      </trkpt>
      <trkpt lat="47.52967" lon="-1.38521">
        <ele>51</ele>
        <time>2015-02-07T15:35:00Z</time>
      </trkpt>
      <trkpt lat="47.52942" lon="-1.38504">
        <ele>50</ele>
        <time>2015-02-07T15:35:06Z</time>
      </trkpt>
      <trkpt lat="47.52908" lon="-1.38483">
        <ele>49</ele>
        <time>2015-02-07T15:35:13Z</time>
      </trkpt>
      <trkpt lat="47.52897" lon="-1.38477">
        <ele>48</ele>
        <time>2015-02-07T15:35:14Z</time>
      </trkpt>
      <trkpt lat="47.5284" lon="-1.38441">
        <ele>47</ele>
        <time>2015-02-07T15:35:24Z</time>
      </trkpt>
      <trkpt lat="47.52833" lon="-1.38435">
        <ele>47</ele>
        <time>2015-02-07T15:35:24Z</time>
      </trkpt>
      <trkpt lat="47.52788" lon="-1.38385">
        <ele>49</ele>
        <time>2015-02-07T15:35:33Z</time>
      </trkpt>
      <trkpt lat="47.52777" lon="-1.38367">
        <ele>47</ele>
        <time>2015-02-07T15:35:34Z</time>
      </trkpt>
      <trkpt lat="47.52745" lon="-1.38319">
        <ele>47</ele>
        <time>2015-02-07T15:35:40Z</time>
      </trkpt>
      <trkpt lat="47.52702" lon="-1.38259">
        <ele>40</ele>
        <time>2015-02-07T15:35:49Z</time>
      </trkpt>
      <trkpt lat="47.52687" lon="-1.38251">
        <ele>38</ele>
        <time>2015-02-07T15:35:50Z</time>
      </trkpt>
      <trkpt lat="47.52659" lon="-1.38246">
        <ele>39</ele>
        <time>2015-02-07T15:35:54Z</time>
      </trkpt>
      <trkpt lat="47.52618" lon="-1.38225">
        <ele>38</ele>
        <time>2015-02-07T15:36:03Z</time>
      </trkpt>
      <trkpt lat="47.52603" lon="-1.3821">
        <ele>40</ele>
        <time>2015-02-07T15:36:06Z</time>
      </trkpt>
      <trkpt lat="47.52582" lon="-1.38189">
        <ele>42</ele>
        <time>2015-02-07T15:36:12Z</time>
      </trkpt>
      <trkpt lat="47.52576" lon="-1.38183">
        <ele>43</ele>
        <time>2015-02-07T15:36:15Z</time>
      </trkpt>
      <trkpt lat="47.52556" lon="-1.38173">
        <ele>43</ele>
        <time>2015-02-07T15:36:19Z</time>
      </trkpt>
      <trkpt lat="47.52532" lon="-1.38177">
        <ele>43</ele>
        <time>2015-02-07T15:36:26Z</time>
      </trkpt>
      <trkpt lat="47.52498" lon="-1.38191">
        <ele>44</ele>
        <time>2015-02-07T15:36:33Z</time>
      </trkpt>
      <trkpt lat="47.52493" lon="-1.38192">
        <ele>42</ele>
        <time>2015-02-07T15:36:34Z</time>
      </trkpt>
      <trkpt lat="47.52471" lon="-1.38196">
        <ele>42</ele>
        <time>2015-02-07T15:36:39Z</time>
      </trkpt>
      <trkpt lat="47.52435" lon="-1.38203">
        <ele>44</ele>
        <time>2015-02-07T15:36:48Z</time>
      </trkpt>
      <trkpt lat="47.52432" lon="-1.38204">
        <ele>43</ele>
        <time>2015-02-07T15:36:49Z</time>
      </trkpt>
      <trkpt lat="47.52424" lon="-1.38206">
        <ele>41</ele>
        <time>2015-02-07T15:36:55Z</time>
      </trkpt>
      <trkpt lat="47.52423" lon="-1.38204">
        <ele>40</ele>
        <time>2015-02-07T15:36:59Z</time>
      </trkpt>
      <trkpt lat="47.52427" lon="-1.38199">
        <ele>43</ele>
        <time>2015-02-07T15:37:05Z</time>
      </trkpt>
      <trkpt lat="47.52427" lon="-1.38188">
        <ele>44</ele>
        <time>2015-02-07T15:37:07Z</time>
      </trkpt>
      <trkpt lat="47.52426" lon="-1.38146">
        <ele>43</ele>
        <time>2015-02-07T15:37:17Z</time>
      </trkpt>
      <trkpt lat="47.52426" lon="-1.38142">
        <ele>44</ele>
        <time>2015-02-07T15:37:17Z</time>
      </trkpt>
      <trkpt lat="47.52425" lon="-1.38124">
        <ele>43</ele>
        <time>2015-02-07T15:37:23Z</time>
      </trkpt>
      <trkpt lat="47.52422" lon="-1.38097">
        <ele>44</ele>
        <time>2015-02-07T15:37:29Z</time>
      </trkpt>
      <trkpt lat="47.52422" lon="-1.38078">
        <ele>44</ele>
        <time>2015-02-07T15:37:32Z</time>
      </trkpt>
      <trkpt lat="47.52421" lon="-1.38043">
        <ele>47</ele>
        <time>2015-02-07T15:37:39Z</time>
      </trkpt>
      <trkpt lat="47.5242" lon="-1.38022">
        <ele>47</ele>
        <time>2015-02-07T15:37:45Z</time>
      </trkpt>
      <trkpt lat="47.5242" lon="-1.38011">
        <ele>48</ele>
        <time>2015-02-07T15:37:47Z</time>
      </trkpt>
      <trkpt lat="47.52419" lon="-1.37987">
        <ele>47</ele>
        <time>2015-02-07T15:37:53Z</time>
      </trkpt>
      <trkpt lat="47.52419" lon="-1.37961">
        <ele>47</ele>
        <time>2015-02-07T15:37:58Z</time>
      </trkpt>
      <trkpt lat="47.5242" lon="-1.37933">
        <ele>47</ele>
        <time>2015-02-07T15:38:04Z</time>
      </trkpt>
      <trkpt lat="47.52419" lon="-1.37921">
        <ele>47</ele>
        <time>2015-02-07T15:38:08Z</time>
      </trkpt>
      <trkpt lat="47.52418" lon="-1.37903">
        <ele>45</ele>
        <time>2015-02-07T15:38:12Z</time>
      </trkpt>
      <trkpt lat="47.52417" lon="-1.37883">
        <ele>47</ele>
        <time>2015-02-07T15:38:17Z</time>
      </trkpt>
      <trkpt lat="47.52414" lon="-1.37864">
        <ele>51</ele>
        <time>2015-02-07T15:38:23Z</time>
      </trkpt>
      <trkpt lat="47.52412" lon="-1.3784">
        <ele>46</ele>
        <time>2015-02-07T15:38:27Z</time>
      </trkpt>
      <trkpt lat="47.52413" lon="-1.37815">
        <ele>46</ele>
        <time>2015-02-07T15:38:32Z</time>
      </trkpt>
      <trkpt lat="47.52416" lon="-1.37789">
        <ele>50</ele>
        <time>2015-02-07T15:38:41Z</time>
      </trkpt>
      <trkpt lat="47.52416" lon="-1.37789">
        <ele>50</ele>
        <time>2015-02-07T15:38:42Z</time>
      </trkpt>
      <trkpt lat="47.52416" lon="-1.3779">
        <ele>49</ele>
        <time>2015-02-07T15:38:45Z</time>
      </trkpt>
      <trkpt lat="47.52416" lon="-1.3779">
        <ele>50</ele>
        <time>2015-02-07T15:38:49Z</time>
      </trkpt>
      <trkpt lat="47.52416" lon="-1.37791">
        <ele>50</ele>
        <time>2015-02-07T15:38:51Z</time>
      </trkpt>
      <trkpt lat="47.52415" lon="-1.37791">
        <ele>51</ele>
        <time>2015-02-07T15:38:55Z</time>
      </trkpt>
      <trkpt lat="47.52414" lon="-1.3779">
        <ele>51</ele>
        <time>2015-02-07T15:38:57Z</time>
      </trkpt>
      <trkpt lat="47.52414" lon="-1.3779">
        <ele>51</ele>
        <time>2015-02-07T15:39:00Z</time>
      </trkpt>
      <trkpt lat="47.52415" lon="-1.3779">
        <ele>52</ele>
        <time>2015-02-07T15:39:03Z</time>
      </trkpt>
      <trkpt lat="47.52415" lon="-1.3779">
        <ele>52</ele>
        <time>2015-02-07T15:39:06Z</time>
      </trkpt>
      <trkpt lat="47.52415" lon="-1.3779">
        <ele>52</ele>
        <time>2015-02-07T15:39:10Z</time>
      </trkpt>
      <trkpt lat="47.52415" lon="-1.37789">
        <ele>52</ele>
        <time>2015-02-07T15:39:13Z</time>
      </trkpt>
      <trkpt lat="47.52415" lon="-1.3779">
        <ele>53</ele>
        <time>2015-02-07T15:39:17Z</time>
      </trkpt>
      <trkpt lat="47.52414" lon="-1.37788">
        <ele>51</ele>
        <time>2015-02-07T15:39:20Z</time>
      </trkpt>
      <trkpt lat="47.52414" lon="-1.37775">
        <ele>52</ele>
        <time>2015-02-07T15:39:24Z</time>
      </trkpt>
      <trkpt lat="47.52412" lon="-1.37761">
        <ele>51</ele>
        <time>2015-02-07T15:39:30Z</time>
      </trkpt>
      <trkpt lat="47.52411" lon="-1.37745">
        <ele>50</ele>
        <time>2015-02-07T15:39:34Z</time>
      </trkpt>
      <trkpt lat="47.52412" lon="-1.37728">
        <ele>46</ele>
        <time>2015-02-07T15:39:40Z</time>
      </trkpt>
      <trkpt lat="47.52415" lon="-1.37724">
        <ele>45</ele>
        <time>2015-02-07T15:39:43Z</time>
      </trkpt>
      <trkpt lat="47.52428" lon="-1.3772">
        <ele>44</ele>
        <time>2015-02-07T15:39:48Z</time>
      </trkpt>
      <trkpt lat="47.52433" lon="-1.37713">
        <ele>46</ele>
        <time>2015-02-07T15:39:55Z</time>
      </trkpt>
      <trkpt lat="47.52434" lon="-1.37708">
        <ele>47</ele>
        <time>2015-02-07T15:40:00Z</time>
      </trkpt>
      <trkpt lat="47.52432" lon="-1.37706">
        <ele>47</ele>
        <time>2015-02-07T15:40:03Z</time>
      </trkpt>
      <trkpt lat="47.5243" lon="-1.37708">
        <ele>46</ele>
        <time>2015-02-07T15:40:10Z</time>
      </trkpt>
      <trkpt lat="47.52425" lon="-1.37709">
        <ele>46</ele>
        <time>2015-02-07T15:40:15Z</time>
      </trkpt>
      <trkpt lat="47.52423" lon="-1.37708">
        <ele>47</ele>
        <time>2015-02-07T15:40:18Z</time>
      </trkpt>
      <trkpt lat="47.52425" lon="-1.3771">
        <ele>47</ele>
        <time>2015-02-07T15:40:21Z</time>
      </trkpt>
      <trkpt lat="47.52425" lon="-1.37709">
        <ele>48</ele>
        <time>2015-02-07T15:40:27Z</time>
      </trkpt>
      <trkpt lat="47.52425" lon="-1.37708">
        <ele>48</ele>
        <time>2015-02-07T15:40:29Z</time>
      </trkpt>
      <trkpt lat="47.52419" lon="-1.37694">
        <ele>44</ele>
        <time>2015-02-07T15:40:34Z</time>
      </trkpt>
      <trkpt lat="47.52417" lon="-1.3767">
        <ele>44</ele>
        <time>2015-02-07T15:40:39Z</time>
      </trkpt>
      <trkpt lat="47.52414" lon="-1.37643">
        <ele>44</ele>
        <time>2015-02-07T15:40:44Z</time>
      </trkpt>
      <trkpt lat="47.52413" lon="-1.37608">
        <ele>42</ele>
        <time>2015-02-07T15:40:50Z</time>
      </trkpt>
      <trkpt lat="47.52415" lon="-1.37587">
        <ele>41</ele>
        <time>2015-02-07T15:40:55Z</time>
      </trkpt>
      <trkpt lat="47.52416" lon="-1.37571">
        <ele>44</ele>
        <time>2015-02-07T15:40:59Z</time>
      </trkpt>
      <trkpt lat="47.52408" lon="-1.37564">
        <ele>45</ele>
        <time>2015-02-07T15:41:05Z</time>
      </trkpt>
      <trkpt lat="47.52408" lon="-1.37544">
        <ele>43</ele>
        <time>2015-02-07T15:41:09Z</time>
      </trkpt>
      <trkpt lat="47.52412" lon="-1.37519">
        <ele>43</ele>
        <time>2015-02-07T15:41:14Z</time>
      </trkpt>
      <trkpt lat="47.52404" lon="-1.37505">
        <ele>43</ele>
        <time>2015-02-07T15:41:19Z</time>
      </trkpt>
      <trkpt lat="47.52403" lon="-1.37491">
        <ele>41</ele>
        <time>2015-02-07T15:41:24Z</time>
      </trkpt>
      <trkpt lat="47.52403" lon="-1.37474">
        <ele>41</ele>
        <time>2015-02-07T15:41:29Z</time>
      </trkpt>
      <trkpt lat="47.52401" lon="-1.37453">
        <ele>49</ele>
        <time>2015-02-07T15:41:37Z</time>
      </trkpt>
      <trkpt lat="47.52402" lon="-1.37448">
        <ele>48</ele>
        <time>2015-02-07T15:41:39Z</time>
      </trkpt>
      <trkpt lat="47.52403" lon="-1.37445">
        <ele>48</ele>
        <time>2015-02-07T15:41:44Z</time>
      </trkpt>
      <trkpt lat="47.52403" lon="-1.37444">
        <ele>49</ele>
        <time>2015-02-07T15:41:49Z</time>
      </trkpt>
      <trkpt lat="47.52403" lon="-1.37444">
        <ele>49</ele>
        <time>2015-02-07T15:41:52Z</time>
      </trkpt>
      <trkpt lat="47.52403" lon="-1.37444">
        <ele>49</ele>
        <time>2015-02-07T15:41:57Z</time>
      </trkpt>
      <trkpt lat="47.52403" lon="-1.37444">
        <ele>49</ele>
        <time>2015-02-07T15:41:58Z</time>
      </trkpt>
      <trkpt lat="47.52402" lon="-1.37439">
        <ele>45</ele>
        <time>2015-02-07T15:42:02Z</time>
      </trkpt>
      <trkpt lat="47.52391" lon="-1.37412">
        <ele>45</ele>
        <time>2015-02-07T15:42:09Z</time>
      </trkpt>
      <trkpt lat="47.52379" lon="-1.37398">
        <ele>36</ele>
        <time>2015-02-07T15:42:13Z</time>
      </trkpt>
      <trkpt lat="47.52368" lon="-1.37392">
        <ele>37</ele>
        <time>2015-02-07T15:42:17Z</time>
      </trkpt>
      <trkpt lat="47.52355" lon="-1.37387">
        <ele>38</ele>
        <time>2015-02-07T15:42:21Z</time>
      </trkpt>
      <trkpt lat="47.52338" lon="-1.37382">
        <ele>41</ele>
        <time>2015-02-07T15:42:26Z</time>
      </trkpt>
      <trkpt lat="47.52315" lon="-1.37374">
        <ele>37</ele>
        <time>2015-02-07T15:42:33Z</time>
      </trkpt>
      <trkpt lat="47.52304" lon="-1.37368">
        <ele>37</ele>
        <time>2015-02-07T15:42:39Z</time>
      </trkpt>
      <trkpt lat="47.52292" lon="-1.37363">
        <ele>39</ele>
        <time>2015-02-07T15:42:43Z</time>
      </trkpt>
      <trkpt lat="47.52283" lon="-1.37359">
        <ele>38</ele>
        <time>2015-02-07T15:42:47Z</time>
      </trkpt>
      <trkpt lat="47.52267" lon="-1.37353">
        <ele>37</ele>
        <time>2015-02-07T15:42:51Z</time>
      </trkpt>
      <trkpt lat="47.52248" lon="-1.37345">
        <ele>36</ele>
        <time>2015-02-07T15:42:57Z</time>
      </trkpt>
      <trkpt lat="47.52228" lon="-1.37337">
        <ele>31</ele>
        <time>2015-02-07T15:43:04Z</time>
      </trkpt>
      <trkpt lat="47.52223" lon="-1.37335">
        <ele>31</ele>
        <time>2015-02-07T15:43:06Z</time>
      </trkpt>
      <trkpt lat="47.52213" lon="-1.37329">
        <ele>28</ele>
        <time>2015-02-07T15:43:12Z</time>
      </trkpt>
      <trkpt lat="47.52203" lon="-1.37324">
        <ele>30</ele>
        <time>2015-02-07T15:43:16Z</time>
      </trkpt>
      <trkpt lat="47.52184" lon="-1.37316">
        <ele>31</ele>
        <time>2015-02-07T15:43:24Z</time>
      </trkpt>
      <trkpt lat="47.52178" lon="-1.37314">
        <ele>32</ele>
        <time>2015-02-07T15:43:27Z</time>
      </trkpt>
      <trkpt lat="47.52163" lon="-1.37309">
        <ele>30</ele>
        <time>2015-02-07T15:43:31Z</time>
      </trkpt>
      <trkpt lat="47.5214" lon="-1.37297">
        <ele>27</ele>
        <time>2015-02-07T15:43:36Z</time>
      </trkpt>
      <trkpt lat="47.52126" lon="-1.37287">
        <ele>27</ele>
        <time>2015-02-07T15:43:41Z</time>
      </trkpt>
      <trkpt lat="47.52108" lon="-1.37275">
        <ele>28</ele>
        <time>2015-02-07T15:43:47Z</time>
      </trkpt>
      <trkpt lat="47.52104" lon="-1.37259">
        <ele>29</ele>
        <time>2015-02-07T15:43:53Z</time>
      </trkpt>
      <trkpt lat="47.52101" lon="-1.37258">
        <ele>29</ele>
        <time>2015-02-07T15:43:59Z</time>
      </trkpt>
      <trkpt lat="47.52101" lon="-1.3726">
        <ele>30</ele>
        <time>2015-02-07T15:44:01Z</time>
      </trkpt>
      <trkpt lat="47.52102" lon="-1.37261">
        <ele>29</ele>
        <time>2015-02-07T15:44:06Z</time>
      </trkpt>
      <trkpt lat="47.52102" lon="-1.37261">
        <ele>30</ele>
        <time>2015-02-07T15:44:09Z</time>
      </trkpt>
      <trkpt lat="47.52102" lon="-1.37261">
        <ele>29</ele>
        <time>2015-02-07T15:44:14Z</time>
      </trkpt>
      <trkpt lat="47.52102" lon="-1.3726">
        <ele>29</ele>
        <time>2015-02-07T15:44:15Z</time>
      </trkpt>
      <trkpt lat="47.52102" lon="-1.3726">
        <ele>29</ele>
        <time>2015-02-07T15:44:18Z</time>
      </trkpt>
      <trkpt lat="47.52102" lon="-1.37261">
        <ele>30</ele>
        <time>2015-02-07T15:44:21Z</time>
      </trkpt>
      <trkpt lat="47.52101" lon="-1.37264">
        <ele>30</ele>
        <time>2015-02-07T15:44:24Z</time>
      </trkpt>
      <trkpt lat="47.52102" lon="-1.37271">
        <ele>29</ele>
        <time>2015-02-07T15:44:29Z</time>
      </trkpt>
      <trkpt lat="47.52102" lon="-1.37274">
        <ele>27</ele>
        <time>2015-02-07T15:44:34Z</time>
      </trkpt>
      <trkpt lat="47.52099" lon="-1.37273">
        <ele>27</ele>
        <time>2015-02-07T15:44:39Z</time>
      </trkpt>
      <trkpt lat="47.52098" lon="-1.37273">
        <ele>27</ele>
        <time>2015-02-07T15:44:44Z</time>
      </trkpt>
      <trkpt lat="47.52098" lon="-1.37275">
        <ele>27</ele>
        <time>2015-02-07T15:44:49Z</time>
      </trkpt>
      <trkpt lat="47.52098" lon="-1.37275">
        <ele>27</ele>
        <time>2015-02-07T15:44:50Z</time>
      </trkpt>
      <trkpt lat="47.52096" lon="-1.37279">
        <ele>27</ele>
        <time>2015-02-07T15:44:53Z</time>
      </trkpt>
      <trkpt lat="47.52094" lon="-1.37288">
        <ele>27</ele>
        <time>2015-02-07T15:44:58Z</time>
      </trkpt>
      <trkpt lat="47.52086" lon="-1.37305">
        <ele>27</ele>
        <time>2015-02-07T15:45:03Z</time>
      </trkpt>
      <trkpt lat="47.52077" lon="-1.37326">
        <ele>28</ele>
        <time>2015-02-07T15:45:08Z</time>
      </trkpt>
      <trkpt lat="47.52068" lon="-1.37344">
        <ele>28</ele>
        <time>2015-02-07T15:45:13Z</time>
      </trkpt>
      <trkpt lat="47.52061" lon="-1.37362">
        <ele>29</ele>
        <time>2015-02-07T15:45:18Z</time>
      </trkpt>
      <trkpt lat="47.52052" lon="-1.37384">
        <ele>29</ele>
        <time>2015-02-07T15:45:23Z</time>
      </trkpt>
      <trkpt lat="47.52043" lon="-1.37406">
        <ele>30</ele>
        <time>2015-02-07T15:45:28Z</time>
      </trkpt>
      <trkpt lat="47.52034" lon="-1.37429">
        <ele>29</ele>
        <time>2015-02-07T15:45:33Z</time>
      </trkpt>
      <trkpt lat="47.52019" lon="-1.37462">
        <ele>29</ele>
        <time>2015-02-07T15:45:38Z</time>
      </trkpt>
      <trkpt lat="47.52005" lon="-1.37494">
        <ele>29</ele>
        <time>2015-02-07T15:45:43Z</time>
      </trkpt>
      <trkpt lat="47.51991" lon="-1.37526">
        <ele>29</ele>
        <time>2015-02-07T15:45:48Z</time>
      </trkpt>
      <trkpt lat="47.5198" lon="-1.37551">
        <ele>29</ele>
        <time>2015-02-07T15:45:53Z</time>
      </trkpt>
      <trkpt lat="47.5197" lon="-1.37572">
        <ele>30</ele>
        <time>2015-02-07T15:45:59Z</time>
      </trkpt>
      <trkpt lat="47.51964" lon="-1.37578">
        <ele>33</ele>
        <time>2015-02-07T15:46:03Z</time>
      </trkpt>
      <trkpt lat="47.51953" lon="-1.37576">
        <ele>33</ele>
        <time>2015-02-07T15:46:08Z</time>
      </trkpt>
      <trkpt lat="47.51938" lon="-1.37572">
        <ele>33</ele>
        <time>2015-02-07T15:46:13Z</time>
      </trkpt>
      <trkpt lat="47.51922" lon="-1.37569">
        <ele>33</ele>
        <time>2015-02-07T15:46:18Z</time>
      </trkpt>
      <trkpt lat="47.51911" lon="-1.37567">
        <ele>32</ele>
        <time>2015-02-07T15:46:23Z</time>
      </trkpt>
      <trkpt lat="47.519" lon="-1.37566">
        <ele>32</ele>
        <time>2015-02-07T15:46:28Z</time>
      </trkpt>
      <trkpt lat="47.51882" lon="-1.37564">
        <ele>33</ele>
        <time>2015-02-07T15:46:33Z</time>
      </trkpt>
      <trkpt lat="47.51864" lon="-1.37561">
        <ele>33</ele>
        <time>2015-02-07T15:46:38Z</time>
      </trkpt>
      <trkpt lat="47.51845" lon="-1.37558">
        <ele>35</ele>
        <time>2015-02-07T15:46:43Z</time>
      </trkpt>
      <trkpt lat="47.51826" lon="-1.37555">
        <ele>36</ele>
        <time>2015-02-07T15:46:48Z</time>
      </trkpt>
      <trkpt lat="47.51807" lon="-1.37553">
        <ele>36</ele>
        <time>2015-02-07T15:46:53Z</time>
      </trkpt>
      <trkpt lat="47.51789" lon="-1.3755">
        <ele>37</ele>
        <time>2015-02-07T15:46:58Z</time>
      </trkpt>
      <trkpt lat="47.51772" lon="-1.37549">
        <ele>38</ele>
        <time>2015-02-07T15:47:03Z</time>
      </trkpt>
      <trkpt lat="47.51755" lon="-1.37546">
        <ele>40</ele>
        <time>2015-02-07T15:47:08Z</time>
      </trkpt>
      <trkpt lat="47.51736" lon="-1.37544">
        <ele>42</ele>
        <time>2015-02-07T15:47:13Z</time>
      </trkpt>
      <trkpt lat="47.51719" lon="-1.37541">
        <ele>43</ele>
        <time>2015-02-07T15:47:18Z</time>
      </trkpt>
      <trkpt lat="47.517" lon="-1.37539">
        <ele>44</ele>
        <time>2015-02-07T15:47:23Z</time>
      </trkpt>
      <trkpt lat="47.51682" lon="-1.37536">
        <ele>45</ele>
        <time>2015-02-07T15:47:28Z</time>
      </trkpt>
      <trkpt lat="47.51665" lon="-1.37534">
        <ele>46</ele>
        <time>2015-02-07T15:47:33Z</time>
      </trkpt>
      <trkpt lat="47.51647" lon="-1.37532">
        <ele>47</ele>
        <time>2015-02-07T15:47:38Z</time>
      </trkpt>
      <trkpt lat="47.51622" lon="-1.37529">
        <ele>48</ele>
        <time>2015-02-07T15:47:45Z</time>
      </trkpt>
      <trkpt lat="47.51612" lon="-1.37527">
        <ele>48</ele>
        <time>2015-02-07T15:47:48Z</time>
      </trkpt>
      <trkpt lat="47.51592" lon="-1.37524">
        <ele>48</ele>
        <time>2015-02-07T15:47:53Z</time>
      </trkpt>
      <trkpt lat="47.51574" lon="-1.37521">
        <ele>48</ele>
        <time>2015-02-07T15:47:58Z</time>
      </trkpt>
      <trkpt lat="47.51554" lon="-1.37518">
        <ele>47</ele>
        <time>2015-02-07T15:48:03Z</time>
      </trkpt>
      <trkpt lat="47.51536" lon="-1.37515">
        <ele>48</ele>
        <time>2015-02-07T15:48:08Z</time>
      </trkpt>
      <trkpt lat="47.51524" lon="-1.37483">
        <ele>47</ele>
        <time>2015-02-07T15:48:13Z</time>
      </trkpt>
      <trkpt lat="47.51513" lon="-1.3744">
        <ele>47</ele>
        <time>2015-02-07T15:48:18Z</time>
      </trkpt>
      <trkpt lat="47.51501" lon="-1.37394">
        <ele>47</ele>
        <time>2015-02-07T15:48:23Z</time>
      </trkpt>
      <trkpt lat="47.51495" lon="-1.37336">
        <ele>49</ele>
        <time>2015-02-07T15:48:29Z</time>
      </trkpt>
      <trkpt lat="47.51491" lon="-1.37294">
        <ele>46</ele>
        <time>2015-02-07T15:48:33Z</time>
      </trkpt>
      <trkpt lat="47.51462" lon="-1.3724">
        <ele>42</ele>
        <time>2015-02-07T15:48:39Z</time>
      </trkpt>
      <trkpt lat="47.51432" lon="-1.37219">
        <ele>35</ele>
        <time>2015-02-07T15:48:43Z</time>
      </trkpt>
      <trkpt lat="47.51378" lon="-1.37202">
        <ele>28</ele>
        <time>2015-02-07T15:48:49Z</time>
      </trkpt>
      <trkpt lat="47.5133" lon="-1.37179">
        <ele>24</ele>
        <time>2015-02-07T15:48:54Z</time>
      </trkpt>
      <trkpt lat="47.51299" lon="-1.37154">
        <ele>21</ele>
        <time>2015-02-07T15:48:58Z</time>
      </trkpt>
      <trkpt lat="47.51289" lon="-1.37115">
        <ele>21</ele>
        <time>2015-02-07T15:49:05Z</time>
      </trkpt>
      <trkpt lat="47.51299" lon="-1.3711">
        <ele>23</ele>
        <time>2015-02-07T15:49:08Z</time>
      </trkpt>
      <trkpt lat="47.51324" lon="-1.37097">
        <ele>27</ele>
        <time>2015-02-07T15:49:16Z</time>
      </trkpt>
      <trkpt lat="47.51332" lon="-1.37094">
        <ele>27</ele>
        <time>2015-02-07T15:49:18Z</time>
      </trkpt>
      <trkpt lat="47.51364" lon="-1.3708">
        <ele>26</ele>
        <time>2015-02-07T15:49:27Z</time>
      </trkpt>
      <trkpt lat="47.51369" lon="-1.37078">
        <ele>26</ele>
        <time>2015-02-07T15:49:28Z</time>
      </trkpt>
      <trkpt lat="47.51403" lon="-1.37065">
        <ele>28</ele>
        <time>2015-02-07T15:49:37Z</time>
      </trkpt>
      <trkpt lat="47.51415" lon="-1.37062">
        <ele>29</ele>
        <time>2015-02-07T15:49:40Z</time>
      </trkpt>
      <trkpt lat="47.51426" lon="-1.3706">
        <ele>28</ele>
        <time>2015-02-07T15:49:43Z</time>
      </trkpt>
      <trkpt lat="47.51444" lon="-1.37052">
        <ele>31</ele>
        <time>2015-02-07T15:49:49Z</time>
      </trkpt>
      <trkpt lat="47.51454" lon="-1.37045">
        <ele>30</ele>
        <time>2015-02-07T15:49:53Z</time>
      </trkpt>
      <trkpt lat="47.51468" lon="-1.37038">
        <ele>32</ele>
        <time>2015-02-07T15:49:58Z</time>
      </trkpt>
      <trkpt lat="47.51484" lon="-1.37029">
        <ele>32</ele>
        <time>2015-02-07T15:50:03Z</time>
      </trkpt>
      <trkpt lat="47.51501" lon="-1.37021">
        <ele>33</ele>
        <time>2015-02-07T15:50:08Z</time>
      </trkpt>
      <trkpt lat="47.51515" lon="-1.37006">
        <ele>34</ele>
        <time>2015-02-07T15:50:13Z</time>
      </trkpt>
      <trkpt lat="47.5152" lon="-1.36979">
        <ele>36</ele>
        <time>2015-02-07T15:50:20Z</time>
      </trkpt>
      <trkpt lat="47.51518" lon="-1.36968">
        <ele>37</ele>
        <time>2015-02-07T15:50:24Z</time>
      </trkpt>
      <trkpt lat="47.51515" lon="-1.36943">
        <ele>42</ele>
        <time>2015-02-07T15:50:32Z</time>
      </trkpt>
      <trkpt lat="47.51515" lon="-1.36939">
        <ele>41</ele>
        <time>2015-02-07T15:50:33Z</time>
      </trkpt>
      <trkpt lat="47.51513" lon="-1.3692">
        <ele>43</ele>
        <time>2015-02-07T15:50:39Z</time>
      </trkpt>
      <trkpt lat="47.51512" lon="-1.36908">
        <ele>46</ele>
        <time>2015-02-07T15:50:43Z</time>
      </trkpt>
      <trkpt lat="47.5151" lon="-1.36893">
        <ele>47</ele>
        <time>2015-02-07T15:50:48Z</time>
      </trkpt>
      <trkpt lat="47.51509" lon="-1.3688">
        <ele>47</ele>
        <time>2015-02-07T15:50:53Z</time>
      </trkpt>
      <trkpt lat="47.51508" lon="-1.36867">
        <ele>47</ele>
        <time>2015-02-07T15:50:58Z</time>
      </trkpt>
      <trkpt lat="47.51507" lon="-1.36854">
        <ele>49</ele>
        <time>2015-02-07T15:51:03Z</time>
      </trkpt>
      <trkpt lat="47.51506" lon="-1.3684">
        <ele>49</ele>
        <time>2015-02-07T15:51:08Z</time>
      </trkpt>
      <trkpt lat="47.51506" lon="-1.36827">
        <ele>49</ele>
        <time>2015-02-07T15:51:13Z</time>
      </trkpt>
      <trkpt lat="47.51506" lon="-1.36816">
        <ele>49</ele>
        <time>2015-02-07T15:51:18Z</time>
      </trkpt>
      <trkpt lat="47.51505" lon="-1.36805">
        <ele>49</ele>
        <time>2015-02-07T15:51:23Z</time>
      </trkpt>
      <trkpt lat="47.51504" lon="-1.36794">
        <ele>51</ele>
        <time>2015-02-07T15:51:28Z</time>
      </trkpt>
      <trkpt lat="47.51504" lon="-1.36783">
        <ele>51</ele>
        <time>2015-02-07T15:51:33Z</time>
      </trkpt>
      <trkpt lat="47.51503" lon="-1.36772">
        <ele>51</ele>
        <time>2015-02-07T15:51:38Z</time>
      </trkpt>
      <trkpt lat="47.51502" lon="-1.36757">
        <ele>51</ele>
        <time>2015-02-07T15:51:43Z</time>
      </trkpt>
      <trkpt lat="47.51501" lon="-1.36738">
        <ele>52</ele>
        <time>2015-02-07T15:51:48Z</time>
      </trkpt>
      <trkpt lat="47.515" lon="-1.36718">
        <ele>52</ele>
        <time>2015-02-07T15:51:53Z</time>
      </trkpt>
      <trkpt lat="47.51498" lon="-1.36697">
        <ele>51</ele>
        <time>2015-02-07T15:51:58Z</time>
      </trkpt>
      <trkpt lat="47.51498" lon="-1.36676">
        <ele>50</ele>
        <time>2015-02-07T15:52:03Z</time>
      </trkpt>
      <trkpt lat="47.51497" lon="-1.36653">
        <ele>50</ele>
        <time>2015-02-07T15:52:08Z</time>
      </trkpt>
      <trkpt lat="47.51495" lon="-1.36617">
        <ele>51</ele>
        <time>2015-02-07T15:52:16Z</time>
      </trkpt>
      <trkpt lat="47.51495" lon="-1.36609">
        <ele>51</ele>
        <time>2015-02-07T15:52:18Z</time>
      </trkpt>
      <trkpt lat="47.51493" lon="-1.36578">
        <ele>52</ele>
        <time>2015-02-07T15:52:25Z</time>
      </trkpt>
      <trkpt lat="47.51491" lon="-1.36558">
        <ele>51</ele>
        <time>2015-02-07T15:52:29Z</time>
      </trkpt>
      <trkpt lat="47.51487" lon="-1.36541">
        <ele>51</ele>
        <time>2015-02-07T15:52:33Z</time>
      </trkpt>
      <trkpt lat="47.51471" lon="-1.36535">
        <ele>51</ele>
        <time>2015-02-07T15:52:38Z</time>
      </trkpt>
      <trkpt lat="47.51451" lon="-1.36537">
        <ele>53</ele>
        <time>2015-02-07T15:52:43Z</time>
      </trkpt>
      <trkpt lat="47.51437" lon="-1.36542">
        <ele>53</ele>
        <time>2015-02-07T15:52:48Z</time>
      </trkpt>
      <trkpt lat="47.51434" lon="-1.36544">
        <ele>51</ele>
        <time>2015-02-07T15:52:53Z</time>
      </trkpt>
      <trkpt lat="47.51436" lon="-1.36544">
        <ele>51</ele>
        <time>2015-02-07T15:52:58Z</time>
      </trkpt>
      <trkpt lat="47.51436" lon="-1.36545">
        <ele>52</ele>
        <time>2015-02-07T15:53:04Z</time>
      </trkpt>
      <trkpt lat="47.51434" lon="-1.36545">
        <ele>50</ele>
        <time>2015-02-07T15:53:06Z</time>
      </trkpt>
      <trkpt lat="47.51434" lon="-1.36546">
        <ele>48</ele>
        <time>2015-02-07T15:53:13Z</time>
      </trkpt>
      <trkpt lat="47.51434" lon="-1.36546">
        <ele>48</ele>
        <time>2015-02-07T15:53:14Z</time>
      </trkpt>
      <trkpt lat="47.51435" lon="-1.36545">
        <ele>48</ele>
        <time>2015-02-07T15:53:17Z</time>
      </trkpt>
      <trkpt lat="47.51435" lon="-1.36545">
        <ele>48</ele>
        <time>2015-02-07T15:53:20Z</time>
      </trkpt>
      <trkpt lat="47.51435" lon="-1.36545">
        <ele>48</ele>
        <time>2015-02-07T15:53:23Z</time>
      </trkpt>
      <trkpt lat="47.51435" lon="-1.36545">
        <ele>48</ele>
        <time>2015-02-07T15:53:26Z</time>
      </trkpt>
      <trkpt lat="47.51435" lon="-1.36545">
        <ele>48</ele>
        <time>2015-02-07T15:53:29Z</time>
      </trkpt>
      <trkpt lat="47.51434" lon="-1.36545">
        <ele>48</ele>
        <time>2015-02-07T15:53:32Z</time>
      </trkpt>
      <trkpt lat="47.51429" lon="-1.36545">
        <ele>49</ele>
        <time>2015-02-07T15:53:35Z</time>
      </trkpt>
      <trkpt lat="47.51414" lon="-1.36546">
        <ele>48</ele>
        <time>2015-02-07T15:53:40Z</time>
      </trkpt>
      <trkpt lat="47.51393" lon="-1.36547">
        <ele>47</ele>
        <time>2015-02-07T15:53:45Z</time>
      </trkpt>
      <trkpt lat="47.5137" lon="-1.36549">
        <ele>45</ele>
        <time>2015-02-07T15:53:50Z</time>
      </trkpt>
      <trkpt lat="47.51342" lon="-1.36543">
        <ele>45</ele>
        <time>2015-02-07T15:53:55Z</time>
      </trkpt>
      <trkpt lat="47.51307" lon="-1.36532">
        <ele>43</ele>
        <time>2015-02-07T15:54:00Z</time>
      </trkpt>
      <trkpt lat="47.51272" lon="-1.3652">
        <ele>42</ele>
        <time>2015-02-07T15:54:05Z</time>
      </trkpt>
      <trkpt lat="47.51255" lon="-1.36513">
        <ele>43</ele>
        <time>2015-02-07T15:54:10Z</time>
      </trkpt>
      <trkpt lat="47.51236" lon="-1.36507">
        <ele>42</ele>
        <time>2015-02-07T15:54:15Z</time>
      </trkpt>
      <trkpt lat="47.51209" lon="-1.365">
        <ele>41</ele>
        <time>2015-02-07T15:54:20Z</time>
      </trkpt>
      <trkpt lat="47.51172" lon="-1.36517">
        <ele>43</ele>
        <time>2015-02-07T15:54:27Z</time>
      </trkpt>
      <trkpt lat="47.51165" lon="-1.36503">
        <ele>42</ele>
        <time>2015-02-07T15:54:30Z</time>
      </trkpt>
      <trkpt lat="47.51178" lon="-1.36478">
        <ele>44</ele>
        <time>2015-02-07T15:54:35Z</time>
      </trkpt>
      <trkpt lat="47.51187" lon="-1.36457">
        <ele>45</ele>
        <time>2015-02-07T15:54:40Z</time>
      </trkpt>
      <trkpt lat="47.51198" lon="-1.36432">
        <ele>44</ele>
        <time>2015-02-07T15:54:45Z</time>
      </trkpt>
      <trkpt lat="47.51208" lon="-1.3641">
        <ele>45</ele>
        <time>2015-02-07T15:54:50Z</time>
      </trkpt>
      <trkpt lat="47.51214" lon="-1.36399">
        <ele>44</ele>
        <time>2015-02-07T15:54:55Z</time>
      </trkpt>
      <trkpt lat="47.51214" lon="-1.36401">
        <ele>44</ele>
        <time>2015-02-07T15:55:00Z</time>
      </trkpt>
      <trkpt lat="47.51214" lon="-1.36401">
        <ele>44</ele>
        <time>2015-02-07T15:55:03Z</time>
      </trkpt>
      <trkpt lat="47.51214" lon="-1.36401">
        <ele>44</ele>
        <time>2015-02-07T15:55:06Z</time>
      </trkpt>
      <trkpt lat="47.51213" lon="-1.36402">
        <ele>44</ele>
        <time>2015-02-07T15:55:10Z</time>
      </trkpt>
      <trkpt lat="47.51213" lon="-1.36401">
        <ele>44</ele>
        <time>2015-02-07T15:55:12Z</time>
      </trkpt>
      <trkpt lat="47.51214" lon="-1.364">
        <ele>43</ele>
        <time>2015-02-07T15:55:15Z</time>
      </trkpt>
      <trkpt lat="47.51214" lon="-1.36399">
        <ele>43</ele>
        <time>2015-02-07T15:55:20Z</time>
      </trkpt>
      <trkpt lat="47.51214" lon="-1.36399">
        <ele>44</ele>
        <time>2015-02-07T15:55:23Z</time>
      </trkpt>
      <trkpt lat="47.51214" lon="-1.36399">
        <ele>44</ele>
        <time>2015-02-07T15:55:26Z</time>
      </trkpt>
      <trkpt lat="47.51214" lon="-1.36399">
        <ele>44</ele>
        <time>2015-02-07T15:55:29Z</time>
      </trkpt>
      <trkpt lat="47.51214" lon="-1.36399">
        <ele>44</ele>
        <time>2015-02-07T15:55:32Z</time>
      </trkpt>
      <trkpt lat="47.51214" lon="-1.36399">
        <ele>44</ele>
        <time>2015-02-07T15:55:35Z</time>
      </trkpt>
      <trkpt lat="47.51214" lon="-1.36399">
        <ele>44</ele>
        <time>2015-02-07T15:55:38Z</time>
      </trkpt>
      <trkpt lat="47.51214" lon="-1.36399">
        <ele>44</ele>
        <time>2015-02-07T15:55:41Z</time>
      </trkpt>
      <trkpt lat="47.51214" lon="-1.36399">
        <ele>44</ele>
        <time>2015-02-07T15:55:44Z</time>
      </trkpt>
      <trkpt lat="47.51214" lon="-1.36399">
        <ele>44</ele>
        <time>2015-02-07T15:55:48Z</time>
      </trkpt>
      <trkpt lat="47.51214" lon="-1.36399">
        <ele>44</ele>
        <time>2015-02-07T15:55:50Z</time>
      </trkpt>
      <trkpt lat="47.51214" lon="-1.36399">
        <ele>44</ele>
        <time>2015-02-07T15:55:53Z</time>
      </trkpt>
      <trkpt lat="47.51214" lon="-1.36399">
        <ele>44</ele>
        <time>2015-02-07T15:55:56Z</time>
      </trkpt>
      <trkpt lat="47.51214" lon="-1.36399">
        <ele>44</ele>
        <time>2015-02-07T15:55:59Z</time>
      </trkpt>
      <trkpt lat="47.51214" lon="-1.36399">
        <ele>44</ele>
        <time>2015-02-07T15:56:02Z</time>
      </trkpt>
      <trkpt lat="47.51214" lon="-1.36399">
        <ele>44</ele>
        <time>2015-02-07T15:56:05Z</time>
      </trkpt>
      <trkpt lat="47.51214" lon="-1.36399">
        <ele>44</ele>
        <time>2015-02-07T15:56:09Z</time>
      </trkpt>
      <trkpt lat="47.51214" lon="-1.36399">
        <ele>44</ele>
        <time>2015-02-07T15:56:11Z</time>
      </trkpt>
      <trkpt lat="47.51214" lon="-1.36399">
        <ele>44</ele>
        <time>2015-02-07T15:56:16Z</time>
      </trkpt>
      <trkpt lat="47.51214" lon="-1.36399">
        <ele>44</ele>
        <time>2015-02-07T15:56:17Z</time>
      </trkpt>
      <trkpt lat="47.51214" lon="-1.36399">
        <ele>44</ele>
        <time>2015-02-07T15:56:20Z</time>
      </trkpt>
      <trkpt lat="47.51214" lon="-1.36399">
        <ele>44</ele>
        <time>2015-02-07T15:56:24Z</time>
      </trkpt>
      <trkpt lat="47.51214" lon="-1.36399">
        <ele>44</ele>
        <time>2015-02-07T15:56:26Z</time>
      </trkpt>
      <trkpt lat="47.51214" lon="-1.36399">
        <ele>44</ele>
        <time>2015-02-07T15:56:29Z</time>
      </trkpt>
      <trkpt lat="47.51214" lon="-1.36399">
        <ele>44</ele>
        <time>2015-02-07T15:56:32Z</time>
      </trkpt>
      <trkpt lat="47.51214" lon="-1.36399">
        <ele>44</ele>
        <time>2015-02-07T15:56:35Z</time>
      </trkpt>
      <trkpt lat="47.51214" lon="-1.36399">
        <ele>44</ele>
        <time>2015-02-07T15:56:38Z</time>
      </trkpt>
      <trkpt lat="47.51214" lon="-1.36399">
        <ele>44</ele>
        <time>2015-02-07T15:56:41Z</time>
      </trkpt>
      <trkpt lat="47.51214" lon="-1.36399">
        <ele>44</ele>
        <time>2015-02-07T15:56:44Z</time>
      </trkpt>
      <trkpt lat="47.51214" lon="-1.36399">
        <ele>44</ele>
        <time>2015-02-07T15:56:47Z</time>
      </trkpt>
      <trkpt lat="47.51214" lon="-1.36399">
        <ele>44</ele>
        <time>2015-02-07T15:56:51Z</time>
      </trkpt>
      <trkpt lat="47.51214" lon="-1.36399">
        <ele>44</ele>
        <time>2015-02-07T15:56:53Z</time>
      </trkpt>
      <trkpt lat="47.51214" lon="-1.36399">
        <ele>44</ele>
        <time>2015-02-07T15:56:56Z</time>
      </trkpt>
      <trkpt lat="47.51214" lon="-1.36399">
        <ele>44</ele>
        <time>2015-02-07T15:56:59Z</time>
      </trkpt>
      <trkpt lat="47.51214" lon="-1.36399">
        <ele>44</ele>
        <time>2015-02-07T15:57:02Z</time>
      </trkpt>
      <trkpt lat="47.51214" lon="-1.36399">
        <ele>44</ele>
        <time>2015-02-07T15:57:05Z</time>
      </trkpt>
      <trkpt lat="47.51214" lon="-1.36399">
        <ele>44</ele>
        <time>2015-02-07T15:57:08Z</time>
      </trkpt>
      <trkpt lat="47.51214" lon="-1.36399">
        <ele>44</ele>
        <time>2015-02-07T15:57:11Z</time>
      </trkpt>
      <trkpt lat="47.51214" lon="-1.36399">
        <ele>44</ele>
        <time>2015-02-07T15:57:14Z</time>
      </trkpt>
      <trkpt lat="47.51214" lon="-1.36399">
        <ele>44</ele>
        <time>2015-02-07T15:57:19Z</time>
      </trkpt>
      <trkpt lat="47.51214" lon="-1.36399">
        <ele>44</ele>
        <time>2015-02-07T15:57:20Z</time>
      </trkpt>
      <trkpt lat="47.51214" lon="-1.36399">
        <ele>44</ele>
        <time>2015-02-07T15:57:23Z</time>
      </trkpt>
      <trkpt lat="47.51214" lon="-1.36399">
        <ele>44</ele>
        <time>2015-02-07T15:57:26Z</time>
      </trkpt>
      <trkpt lat="47.51214" lon="-1.36399">
        <ele>44</ele>
        <time>2015-02-07T15:57:29Z</time>
      </trkpt>
      <trkpt lat="47.51214" lon="-1.36399">
        <ele>44</ele>
        <time>2015-02-07T15:57:32Z</time>
      </trkpt>
      <trkpt lat="47.51214" lon="-1.36399">
        <ele>44</ele>
        <time>2015-02-07T15:57:35Z</time>
      </trkpt>
      <trkpt lat="47.51214" lon="-1.36399">
        <ele>44</ele>
        <time>2015-02-07T15:57:38Z</time>
      </trkpt>
      <trkpt lat="47.51214" lon="-1.36399">
        <ele>44</ele>
        <time>2015-02-07T15:57:41Z</time>
      </trkpt>
      <trkpt lat="47.51214" lon="-1.36399">
        <ele>44</ele>
        <time>2015-02-07T15:57:45Z</time>
      </trkpt>
      <trkpt lat="47.51214" lon="-1.364">
        <ele>44</ele>
        <time>2015-02-07T15:57:48Z</time>
      </trkpt>
      <trkpt lat="47.51213" lon="-1.36401">
        <ele>46</ele>
        <time>2015-02-07T15:57:50Z</time>
      </trkpt>
      <trkpt lat="47.51213" lon="-1.36402">
        <ele>45</ele>
        <time>2015-02-07T15:57:55Z</time>
      </trkpt>
      <trkpt lat="47.51213" lon="-1.36401">
        <ele>45</ele>
        <time>2015-02-07T15:57:58Z</time>
      </trkpt>
      <trkpt lat="47.51213" lon="-1.36401">
        <ele>45</ele>
        <time>2015-02-07T15:58:01Z</time>
      </trkpt>
      <trkpt lat="47.51213" lon="-1.36401">
        <ele>45</ele>
        <time>2015-02-07T15:58:04Z</time>
      </trkpt>
      <trkpt lat="47.51213" lon="-1.36401">
        <ele>45</ele>
        <time>2015-02-07T15:58:07Z</time>
      </trkpt>
      <trkpt lat="47.51211" lon="-1.36396">
        <ele>43</ele>
        <time>2015-02-07T15:58:13Z</time>
      </trkpt>
      <trkpt lat="47.51206" lon="-1.36391">
        <ele>43</ele>
        <time>2015-02-07T15:58:15Z</time>
      </trkpt>
      <trkpt lat="47.51185" lon="-1.36353">
        <ele>45</ele>
        <time>2015-02-07T15:58:24Z</time>
      </trkpt>
      <trkpt lat="47.51182" lon="-1.36348">
        <ele>45</ele>
        <time>2015-02-07T15:58:25Z</time>
      </trkpt>
      <trkpt lat="47.51167" lon="-1.36319">
        <ele>49</ele>
        <time>2015-02-07T15:58:31Z</time>
      </trkpt>
      <trkpt lat="47.51146" lon="-1.36286">
        <ele>48</ele>
        <time>2015-02-07T15:58:38Z</time>
      </trkpt>
      <trkpt lat="47.5114" lon="-1.36276">
        <ele>47</ele>
        <time>2015-02-07T15:58:40Z</time>
      </trkpt>
      <trkpt lat="47.51123" lon="-1.36248">
        <ele>49</ele>
        <time>2015-02-07T15:58:46Z</time>
      </trkpt>
      <trkpt lat="47.5111" lon="-1.36224">
        <ele>48</ele>
        <time>2015-02-07T15:58:50Z</time>
      </trkpt>
      <trkpt lat="47.51094" lon="-1.36195">
        <ele>45</ele>
        <time>2015-02-07T15:58:55Z</time>
      </trkpt>
      <trkpt lat="47.51073" lon="-1.36161">
        <ele>47</ele>
        <time>2015-02-07T15:59:01Z</time>
      </trkpt>
      <trkpt lat="47.51059" lon="-1.3613">
        <ele>45</ele>
        <time>2015-02-07T15:59:06Z</time>
      </trkpt>
      <trkpt lat="47.51045" lon="-1.36103">
        <ele>46</ele>
        <time>2015-02-07T15:59:10Z</time>
      </trkpt>
      <trkpt lat="47.51029" lon="-1.36073">
        <ele>45</ele>
        <time>2015-02-07T15:59:15Z</time>
      </trkpt>
      <trkpt lat="47.51006" lon="-1.36031">
        <ele>43</ele>
        <time>2015-02-07T15:59:22Z</time>
      </trkpt>
      <trkpt lat="47.50993" lon="-1.36001">
        <ele>41</ele>
        <time>2015-02-07T15:59:26Z</time>
      </trkpt>
      <trkpt lat="47.5097" lon="-1.3596">
        <ele>42</ele>
        <time>2015-02-07T15:59:33Z</time>
      </trkpt>
      <trkpt lat="47.50964" lon="-1.3595">
        <ele>43</ele>
        <time>2015-02-07T15:59:35Z</time>
      </trkpt>
      <trkpt lat="47.50948" lon="-1.3592">
        <ele>41</ele>
        <time>2015-02-07T15:59:40Z</time>
      </trkpt>
      <trkpt lat="47.50936" lon="-1.35886">
        <ele>41</ele>
        <time>2015-02-07T15:59:45Z</time>
      </trkpt>
      <trkpt lat="47.50922" lon="-1.35858">
        <ele>41</ele>
        <time>2015-02-07T15:59:50Z</time>
      </trkpt>
      <trkpt lat="47.50909" lon="-1.35828">
        <ele>42</ele>
        <time>2015-02-07T15:59:55Z</time>
      </trkpt>
      <trkpt lat="47.50893" lon="-1.35796">
        <ele>43</ele>
        <time>2015-02-07T16:00:01Z</time>
      </trkpt>
      <trkpt lat="47.50883" lon="-1.35772">
        <ele>45</ele>
        <time>2015-02-07T16:00:05Z</time>
      </trkpt>
      <trkpt lat="47.50871" lon="-1.35741">
        <ele>47</ele>
        <time>2015-02-07T16:00:10Z</time>
      </trkpt>
      <trkpt lat="47.50861" lon="-1.3571">
        <ele>48</ele>
        <time>2015-02-07T16:00:15Z</time>
      </trkpt>
      <trkpt lat="47.5085" lon="-1.35689">
        <ele>47</ele>
        <time>2015-02-07T16:00:20Z</time>
      </trkpt>
      <trkpt lat="47.50826" lon="-1.35646">
        <ele>47</ele>
        <time>2015-02-07T16:00:29Z</time>
      </trkpt>
      <trkpt lat="47.50822" lon="-1.35644">
        <ele>47</ele>
        <time>2015-02-07T16:00:30Z</time>
      </trkpt>
      <trkpt lat="47.50797" lon="-1.35652">
        <ele>46</ele>
        <time>2015-02-07T16:00:36Z</time>
      </trkpt>
      <trkpt lat="47.50782" lon="-1.35663">
        <ele>47</ele>
        <time>2015-02-07T16:00:40Z</time>
      </trkpt>
      <trkpt lat="47.50764" lon="-1.35673">
        <ele>46</ele>
        <time>2015-02-07T16:00:45Z</time>
      </trkpt>
      <trkpt lat="47.50757" lon="-1.35675">
        <ele>46</ele>
        <time>2015-02-07T16:00:50Z</time>
      </trkpt>
      <trkpt lat="47.50746" lon="-1.35682">
        <ele>47</ele>
        <time>2015-02-07T16:00:55Z</time>
      </trkpt>
      <trkpt lat="47.50728" lon="-1.35693">
        <ele>47</ele>
        <time>2015-02-07T16:01:00Z</time>
      </trkpt>
      <trkpt lat="47.50707" lon="-1.35708">
        <ele>47</ele>
        <time>2015-02-07T16:01:05Z</time>
      </trkpt>
      <trkpt lat="47.50682" lon="-1.35723">
        <ele>45</ele>
        <time>2015-02-07T16:01:10Z</time>
      </trkpt>
      <trkpt lat="47.50656" lon="-1.35741">
        <ele>41</ele>
        <time>2015-02-07T16:01:15Z</time>
      </trkpt>
      <trkpt lat="47.50628" lon="-1.3576">
        <ele>39</ele>
        <time>2015-02-07T16:01:20Z</time>
      </trkpt>
      <trkpt lat="47.50601" lon="-1.35776">
        <ele>39</ele>
        <time>2015-02-07T16:01:25Z</time>
      </trkpt>
      <trkpt lat="47.50574" lon="-1.35795">
        <ele>39</ele>
        <time>2015-02-07T16:01:30Z</time>
      </trkpt>
      <trkpt lat="47.50546" lon="-1.35816">
        <ele>39</ele>
        <time>2015-02-07T16:01:35Z</time>
      </trkpt>
      <trkpt lat="47.50517" lon="-1.35837">
        <ele>37</ele>
        <time>2015-02-07T16:01:40Z</time>
      </trkpt>
      <trkpt lat="47.50488" lon="-1.35854">
        <ele>37</ele>
        <time>2015-02-07T16:01:45Z</time>
      </trkpt>
      <trkpt lat="47.50457" lon="-1.35867">
        <ele>37</ele>
        <time>2015-02-07T16:01:50Z</time>
      </trkpt>
      <trkpt lat="47.50426" lon="-1.35871">
        <ele>35</ele>
        <time>2015-02-07T16:01:55Z</time>
      </trkpt>
      <trkpt lat="47.50394" lon="-1.35876">
        <ele>36</ele>
        <time>2015-02-07T16:02:00Z</time>
      </trkpt>
      <trkpt lat="47.50364" lon="-1.3588">
        <ele>35</ele>
        <time>2015-02-07T16:02:05Z</time>
      </trkpt>
      <trkpt lat="47.50336" lon="-1.35884">
        <ele>36</ele>
        <time>2015-02-07T16:02:10Z</time>
      </trkpt>
      <trkpt lat="47.50304" lon="-1.35888">
        <ele>36</ele>
        <time>2015-02-07T16:02:15Z</time>
      </trkpt>
      <trkpt lat="47.50274" lon="-1.35894">
        <ele>37</ele>
        <time>2015-02-07T16:02:20Z</time>
      </trkpt>
      <trkpt lat="47.50244" lon="-1.35899">
        <ele>38</ele>
        <time>2015-02-07T16:02:25Z</time>
      </trkpt>
      <trkpt lat="47.50216" lon="-1.35903">
        <ele>36</ele>
        <time>2015-02-07T16:02:30Z</time>
      </trkpt>
      <trkpt lat="47.50186" lon="-1.35905">
        <ele>36</ele>
        <time>2015-02-07T16:02:35Z</time>
      </trkpt>
      <trkpt lat="47.50161" lon="-1.35905">
        <ele>36</ele>
        <time>2015-02-07T16:02:40Z</time>
      </trkpt>
      <trkpt lat="47.50156" lon="-1.35885">
        <ele>38</ele>
        <time>2015-02-07T16:02:45Z</time>
      </trkpt>
      <trkpt lat="47.50167" lon="-1.35858">
        <ele>37</ele>
        <time>2015-02-07T16:02:50Z</time>
      </trkpt>
      <trkpt lat="47.5018" lon="-1.35831">
        <ele>36</ele>
        <time>2015-02-07T16:02:55Z</time>
      </trkpt>
      <trkpt lat="47.50191" lon="-1.35804">
        <ele>37</ele>
        <time>2015-02-07T16:03:00Z</time>
      </trkpt>
      <trkpt lat="47.50203" lon="-1.35778">
        <ele>37</ele>
        <time>2015-02-07T16:03:05Z</time>
      </trkpt>
      <trkpt lat="47.50214" lon="-1.35753">
        <ele>36</ele>
        <time>2015-02-07T16:03:10Z</time>
      </trkpt>
      <trkpt lat="47.50225" lon="-1.35727">
        <ele>36</ele>
        <time>2015-02-07T16:03:15Z</time>
      </trkpt>
      <trkpt lat="47.50237" lon="-1.35702">
        <ele>35</ele>
        <time>2015-02-07T16:03:20Z</time>
      </trkpt>
      <trkpt lat="47.50249" lon="-1.35676">
        <ele>35</ele>
        <time>2015-02-07T16:03:25Z</time>
      </trkpt>
      <trkpt lat="47.5026" lon="-1.3565">
        <ele>33</ele>
        <time>2015-02-07T16:03:30Z</time>
      </trkpt>
      <trkpt lat="47.50281" lon="-1.35605">
        <ele>34</ele>
        <time>2015-02-07T16:03:39Z</time>
      </trkpt>
      <trkpt lat="47.50283" lon="-1.356">
        <ele>35</ele>
        <time>2015-02-07T16:03:40Z</time>
      </trkpt>
      <trkpt lat="47.50295" lon="-1.35574">
        <ele>36</ele>
        <time>2015-02-07T16:03:45Z</time>
      </trkpt>
      <trkpt lat="47.50306" lon="-1.35547">
        <ele>36</ele>
        <time>2015-02-07T16:03:50Z</time>
      </trkpt>
      <trkpt lat="47.5032" lon="-1.35515">
        <ele>36</ele>
        <time>2015-02-07T16:03:56Z</time>
      </trkpt>
      <trkpt lat="47.50338" lon="-1.35476">
        <ele>39</ele>
        <time>2015-02-07T16:04:04Z</time>
      </trkpt>
      <trkpt lat="47.5034" lon="-1.35471">
        <ele>39</ele>
        <time>2015-02-07T16:04:05Z</time>
      </trkpt>
      <trkpt lat="47.50348" lon="-1.35453">
        <ele>39</ele>
        <time>2015-02-07T16:04:10Z</time>
      </trkpt>
      <trkpt lat="47.50355" lon="-1.35436">
        <ele>41</ele>
        <time>2015-02-07T16:04:15Z</time>
      </trkpt>
      <trkpt lat="47.50364" lon="-1.35415">
        <ele>42</ele>
        <time>2015-02-07T16:04:20Z</time>
      </trkpt>
      <trkpt lat="47.50373" lon="-1.35394">
        <ele>42</ele>
        <time>2015-02-07T16:04:25Z</time>
      </trkpt>
      <trkpt lat="47.50382" lon="-1.35373">
        <ele>42</ele>
        <time>2015-02-07T16:04:30Z</time>
      </trkpt>
      <trkpt lat="47.50392" lon="-1.35351">
        <ele>43</ele>
        <time>2015-02-07T16:04:35Z</time>
      </trkpt>
      <trkpt lat="47.50402" lon="-1.35327">
        <ele>43</ele>
        <time>2015-02-07T16:04:40Z</time>
      </trkpt>
      <trkpt lat="47.50411" lon="-1.35304">
        <ele>44</ele>
        <time>2015-02-07T16:04:45Z</time>
      </trkpt>
      <trkpt lat="47.50421" lon="-1.35281">
        <ele>43</ele>
        <time>2015-02-07T16:04:50Z</time>
      </trkpt>
      <trkpt lat="47.50431" lon="-1.35258">
        <ele>43</ele>
        <time>2015-02-07T16:04:55Z</time>
      </trkpt>
      <trkpt lat="47.50443" lon="-1.35235">
        <ele>42</ele>
        <time>2015-02-07T16:05:00Z</time>
      </trkpt>
      <trkpt lat="47.50454" lon="-1.35212">
        <ele>41</ele>
        <time>2015-02-07T16:05:05Z</time>
      </trkpt>
      <trkpt lat="47.50465" lon="-1.35189">
        <ele>40</ele>
        <time>2015-02-07T16:05:10Z</time>
      </trkpt>
      <trkpt lat="47.50476" lon="-1.35166">
        <ele>42</ele>
        <time>2015-02-07T16:05:15Z</time>
      </trkpt>
      <trkpt lat="47.50486" lon="-1.35143">
        <ele>42</ele>
        <time>2015-02-07T16:05:20Z</time>
      </trkpt>
      <trkpt lat="47.50495" lon="-1.35118">
        <ele>41</ele>
        <time>2015-02-07T16:05:25Z</time>
      </trkpt>
      <trkpt lat="47.50505" lon="-1.35093">
        <ele>41</ele>
        <time>2015-02-07T16:05:30Z</time>
      </trkpt>
      <trkpt lat="47.50514" lon="-1.35068">
        <ele>40</ele>
        <time>2015-02-07T16:05:35Z</time>
      </trkpt>
      <trkpt lat="47.50523" lon="-1.35042">
        <ele>40</ele>
        <time>2015-02-07T16:05:40Z</time>
      </trkpt>
      <trkpt lat="47.50536" lon="-1.35006">
        <ele>41</ele>
        <time>2015-02-07T16:05:47Z</time>
      </trkpt>
      <trkpt lat="47.50541" lon="-1.34992">
        <ele>42</ele>
        <time>2015-02-07T16:05:50Z</time>
      </trkpt>
      <trkpt lat="47.50549" lon="-1.34966">
        <ele>42</ele>
        <time>2015-02-07T16:05:55Z</time>
      </trkpt>
      <trkpt lat="47.5056" lon="-1.34928">
        <ele>42</ele>
        <time>2015-02-07T16:06:04Z</time>
      </trkpt>
      <trkpt lat="47.50565" lon="-1.3492">
        <ele>42</ele>
        <time>2015-02-07T16:06:07Z</time>
      </trkpt>
      <trkpt lat="47.5057" lon="-1.34908">
        <ele>45</ele>
        <time>2015-02-07T16:06:10Z</time>
      </trkpt>
      <trkpt lat="47.50579" lon="-1.34886">
        <ele>44</ele>
        <time>2015-02-07T16:06:15Z</time>
      </trkpt>
      <trkpt lat="47.50588" lon="-1.34862">
        <ele>44</ele>
        <time>2015-02-07T16:06:20Z</time>
      </trkpt>
      <trkpt lat="47.50597" lon="-1.34838">
        <ele>44</ele>
        <time>2015-02-07T16:06:25Z</time>
      </trkpt>
      <trkpt lat="47.50607" lon="-1.34815">
        <ele>43</ele>
        <time>2015-02-07T16:06:30Z</time>
      </trkpt>
      <trkpt lat="47.5062" lon="-1.34784">
        <ele>45</ele>
        <time>2015-02-07T16:06:37Z</time>
      </trkpt>
      <trkpt lat="47.50627" lon="-1.34768">
        <ele>46</ele>
        <time>2015-02-07T16:06:41Z</time>
      </trkpt>
      <trkpt lat="47.50636" lon="-1.34746">
        <ele>46</ele>
        <time>2015-02-07T16:06:46Z</time>
      </trkpt>
      <trkpt lat="47.50642" lon="-1.34727">
        <ele>44</ele>
        <time>2015-02-07T16:06:50Z</time>
      </trkpt>
      <trkpt lat="47.50651" lon="-1.34703">
        <ele>44</ele>
        <time>2015-02-07T16:06:55Z</time>
      </trkpt>
      <trkpt lat="47.50661" lon="-1.34679">
        <ele>43</ele>
        <time>2015-02-07T16:07:00Z</time>
      </trkpt>
      <trkpt lat="47.50673" lon="-1.34653">
        <ele>43</ele>
        <time>2015-02-07T16:07:05Z</time>
      </trkpt>
      <trkpt lat="47.50685" lon="-1.34627">
        <ele>44</ele>
        <time>2015-02-07T16:07:10Z</time>
      </trkpt>
      <trkpt lat="47.50699" lon="-1.34599">
        <ele>44</ele>
        <time>2015-02-07T16:07:16Z</time>
      </trkpt>
      <trkpt lat="47.50709" lon="-1.34579">
        <ele>46</ele>
        <time>2015-02-07T16:07:20Z</time>
      </trkpt>
      <trkpt lat="47.50728" lon="-1.34546">
        <ele>46</ele>
        <time>2015-02-07T16:07:26Z</time>
      </trkpt>
      <trkpt lat="47.50753" lon="-1.34503">
        <ele>42</ele>
        <time>2015-02-07T16:07:34Z</time>
      </trkpt>
      <trkpt lat="47.50762" lon="-1.34488">
        <ele>41</ele>
        <time>2015-02-07T16:07:37Z</time>
      </trkpt>
      <trkpt lat="47.5077" lon="-1.34472">
        <ele>41</ele>
        <time>2015-02-07T16:07:40Z</time>
      </trkpt>
      <trkpt lat="47.50786" lon="-1.34446">
        <ele>40</ele>
        <time>2015-02-07T16:07:45Z</time>
      </trkpt>
      <trkpt lat="47.50791" lon="-1.34415">
        <ele>41</ele>
        <time>2015-02-07T16:07:51Z</time>
      </trkpt>
      <trkpt lat="47.50776" lon="-1.34395">
        <ele>39</ele>
        <time>2015-02-07T16:07:55Z</time>
      </trkpt>
      <trkpt lat="47.50759" lon="-1.34375">
        <ele>40</ele>
        <time>2015-02-07T16:08:00Z</time>
      </trkpt>
      <trkpt lat="47.50742" lon="-1.34353">
        <ele>40</ele>
        <time>2015-02-07T16:08:05Z</time>
      </trkpt>
      <trkpt lat="47.50725" lon="-1.34332">
        <ele>39</ele>
        <time>2015-02-07T16:08:10Z</time>
      </trkpt>
      <trkpt lat="47.50701" lon="-1.34303">
        <ele>40</ele>
        <time>2015-02-07T16:08:17Z</time>
      </trkpt>
      <trkpt lat="47.50691" lon="-1.34296">
        <ele>40</ele>
        <time>2015-02-07T16:08:20Z</time>
      </trkpt>
      <trkpt lat="47.50679" lon="-1.34289">
        <ele>38</ele>
        <time>2015-02-07T16:08:25Z</time>
      </trkpt>
      <trkpt lat="47.50676" lon="-1.34276">
        <ele>40</ele>
        <time>2015-02-07T16:08:30Z</time>
      </trkpt>
      <trkpt lat="47.50675" lon="-1.34255">
        <ele>38</ele>
        <time>2015-02-07T16:08:35Z</time>
      </trkpt>
      <trkpt lat="47.50662" lon="-1.34246">
        <ele>39</ele>
        <time>2015-02-07T16:08:40Z</time>
      </trkpt>
      <trkpt lat="47.50647" lon="-1.34246">
        <ele>40</ele>
        <time>2015-02-07T16:08:46Z</time>
      </trkpt>
      <trkpt lat="47.50638" lon="-1.34246">
        <ele>41</ele>
        <time>2015-02-07T16:08:50Z</time>
      </trkpt>
      <trkpt lat="47.50627" lon="-1.34232">
        <ele>41</ele>
        <time>2015-02-07T16:08:58Z</time>
      </trkpt>
      <trkpt lat="47.5063" lon="-1.34222">
        <ele>40</ele>
        <time>2015-02-07T16:09:01Z</time>
      </trkpt>
      <trkpt lat="47.50633" lon="-1.34208">
        <ele>42</ele>
        <time>2015-02-07T16:09:05Z</time>
      </trkpt>
      <trkpt lat="47.50634" lon="-1.34189">
        <ele>39</ele>
        <time>2015-02-07T16:09:10Z</time>
      </trkpt>
      <trkpt lat="47.50636" lon="-1.34169">
        <ele>38</ele>
        <time>2015-02-07T16:09:15Z</time>
      </trkpt>
      <trkpt lat="47.50639" lon="-1.34145">
        <ele>40</ele>
        <time>2015-02-07T16:09:24Z</time>
      </trkpt>
      <trkpt lat="47.5064" lon="-1.34139">
        <ele>39</ele>
        <time>2015-02-07T16:09:26Z</time>
      </trkpt>
      <trkpt lat="47.50643" lon="-1.34111">
        <ele>39</ele>
        <time>2015-02-07T16:09:34Z</time>
      </trkpt>
      <trkpt lat="47.50644" lon="-1.34108">
        <ele>39</ele>
        <time>2015-02-07T16:09:35Z</time>
      </trkpt>
      <trkpt lat="47.50646" lon="-1.34092">
        <ele>40</ele>
        <time>2015-02-07T16:09:40Z</time>
      </trkpt>
      <trkpt lat="47.5065" lon="-1.34068">
        <ele>39</ele>
        <time>2015-02-07T16:09:47Z</time>
      </trkpt>
      <trkpt lat="47.50652" lon="-1.34054">
        <ele>38</ele>
        <time>2015-02-07T16:09:51Z</time>
      </trkpt>
      <trkpt lat="47.50654" lon="-1.34038">
        <ele>41</ele>
        <time>2015-02-07T16:09:56Z</time>
      </trkpt>
      <trkpt lat="47.50657" lon="-1.34024">
        <ele>42</ele>
        <time>2015-02-07T16:10:00Z</time>
      </trkpt>
      <trkpt lat="47.5066" lon="-1.34006">
        <ele>41</ele>
        <time>2015-02-07T16:10:05Z</time>
      </trkpt>
      <trkpt lat="47.50662" lon="-1.33985">
        <ele>44</ele>
        <time>2015-02-07T16:10:11Z</time>
      </trkpt>
      <trkpt lat="47.50663" lon="-1.33972">
        <ele>45</ele>
        <time>2015-02-07T16:10:15Z</time>
      </trkpt>
      <trkpt lat="47.50664" lon="-1.33955">
        <ele>47</ele>
        <time>2015-02-07T16:10:20Z</time>
      </trkpt>
      <trkpt lat="47.50664" lon="-1.33941">
        <ele>48</ele>
        <time>2015-02-07T16:10:25Z</time>
      </trkpt>
      <trkpt lat="47.50664" lon="-1.33932">
        <ele>49</ele>
        <time>2015-02-07T16:10:30Z</time>
      </trkpt>
      <trkpt lat="47.50664" lon="-1.33917">
        <ele>49</ele>
        <time>2015-02-07T16:10:35Z</time>
      </trkpt>
      <trkpt lat="47.50664" lon="-1.33901">
        <ele>50</ele>
        <time>2015-02-07T16:10:40Z</time>
      </trkpt>
      <trkpt lat="47.50664" lon="-1.33882">
        <ele>50</ele>
        <time>2015-02-07T16:10:46Z</time>
      </trkpt>
      <trkpt lat="47.50663" lon="-1.33862">
        <ele>49</ele>
        <time>2015-02-07T16:10:53Z</time>
      </trkpt>
      <trkpt lat="47.50662" lon="-1.33856">
        <ele>49</ele>
        <time>2015-02-07T16:10:55Z</time>
      </trkpt>
      <trkpt lat="47.50662" lon="-1.33827">
        <ele>49</ele>
        <time>2015-02-07T16:11:04Z</time>
      </trkpt>
      <trkpt lat="47.50662" lon="-1.33824">
        <ele>50</ele>
        <time>2015-02-07T16:11:05Z</time>
      </trkpt>
      <trkpt lat="47.50661" lon="-1.33807">
        <ele>48</ele>
        <time>2015-02-07T16:11:10Z</time>
      </trkpt>
      <trkpt lat="47.50659" lon="-1.33779">
        <ele>49</ele>
        <time>2015-02-07T16:11:18Z</time>
      </trkpt>
      <trkpt lat="47.50658" lon="-1.33769">
        <ele>49</ele>
        <time>2015-02-07T16:11:21Z</time>
      </trkpt>
      <trkpt lat="47.50655" lon="-1.33747">
        <ele>48</ele>
        <time>2015-02-07T16:11:28Z</time>
      </trkpt>
      <trkpt lat="47.50654" lon="-1.33743">
        <ele>50</ele>
        <time>2015-02-07T16:11:30Z</time>
      </trkpt>
      <trkpt lat="47.50651" lon="-1.33731">
        <ele>50</ele>
        <time>2015-02-07T16:11:35Z</time>
      </trkpt>
      <trkpt lat="47.50649" lon="-1.33721">
        <ele>52</ele>
        <time>2015-02-07T16:11:40Z</time>
      </trkpt>
      <trkpt lat="47.50647" lon="-1.33708">
        <ele>51</ele>
        <time>2015-02-07T16:11:45Z</time>
      </trkpt>
      <trkpt lat="47.50656" lon="-1.33694">
        <ele>52</ele>
        <time>2015-02-07T16:11:52Z</time>
      </trkpt>
      <trkpt lat="47.50661" lon="-1.33682">
        <ele>50</ele>
        <time>2015-02-07T16:11:56Z</time>
      </trkpt>
      <trkpt lat="47.50667" lon="-1.33669">
        <ele>50</ele>
        <time>2015-02-07T16:12:00Z</time>
      </trkpt>
      <trkpt lat="47.50674" lon="-1.33653">
        <ele>51</ele>
        <time>2015-02-07T16:12:07Z</time>
      </trkpt>
      <trkpt lat="47.50679" lon="-1.33642">
        <ele>52</ele>
        <time>2015-02-07T16:12:12Z</time>
      </trkpt>
      <trkpt lat="47.50684" lon="-1.33634">
        <ele>55</ele>
        <time>2015-02-07T16:12:15Z</time>
      </trkpt>
      <trkpt lat="47.50693" lon="-1.33611">
        <ele>57</ele>
        <time>2015-02-07T16:12:23Z</time>
      </trkpt>
      <trkpt lat="47.50695" lon="-1.33606">
        <ele>57</ele>
        <time>2015-02-07T16:12:25Z</time>
      </trkpt>
      <trkpt lat="47.50699" lon="-1.33577">
        <ele>57</ele>
        <time>2015-02-07T16:12:34Z</time>
      </trkpt>
      <trkpt lat="47.50698" lon="-1.33574">
        <ele>57</ele>
        <time>2015-02-07T16:12:35Z</time>
      </trkpt>
      <trkpt lat="47.5069" lon="-1.33558">
        <ele>52</ele>
        <time>2015-02-07T16:12:41Z</time>
      </trkpt>
      <trkpt lat="47.50676" lon="-1.33535">
        <ele>51</ele>
        <time>2015-02-07T16:12:49Z</time>
      </trkpt>
      <trkpt lat="47.50674" lon="-1.33531">
        <ele>51</ele>
        <time>2015-02-07T16:12:50Z</time>
      </trkpt>
      <trkpt lat="47.5066" lon="-1.33504">
        <ele>53</ele>
        <time>2015-02-07T16:12:57Z</time>
      </trkpt>
      <trkpt lat="47.50658" lon="-1.33489">
        <ele>55</ele>
        <time>2015-02-07T16:13:00Z</time>
      </trkpt>
      <trkpt lat="47.5066" lon="-1.33446">
        <ele>55</ele>
        <time>2015-02-07T16:13:08Z</time>
      </trkpt>
      <trkpt lat="47.50661" lon="-1.33436">
        <ele>53</ele>
        <time>2015-02-07T16:13:10Z</time>
      </trkpt>
      <trkpt lat="47.50663" lon="-1.33411">
        <ele>53</ele>
        <time>2015-02-07T16:13:15Z</time>
      </trkpt>
      <trkpt lat="47.50663" lon="-1.33385">
        <ele>57</ele>
        <time>2015-02-07T16:13:20Z</time>
      </trkpt>
      <trkpt lat="47.50664" lon="-1.33361">
        <ele>57</ele>
        <time>2015-02-07T16:13:25Z</time>
      </trkpt>
      <trkpt lat="47.50665" lon="-1.33336">
        <ele>53</ele>
        <time>2015-02-07T16:13:30Z</time>
      </trkpt>
      <trkpt lat="47.50664" lon="-1.33312">
        <ele>52</ele>
        <time>2015-02-07T16:13:35Z</time>
      </trkpt>
      <trkpt lat="47.50661" lon="-1.33265">
        <ele>54</ele>
        <time>2015-02-07T16:13:44Z</time>
      </trkpt>
      <trkpt lat="47.5066" lon="-1.33257">
        <ele>53</ele>
        <time>2015-02-07T16:13:46Z</time>
      </trkpt>
      <trkpt lat="47.50659" lon="-1.33237">
        <ele>51</ele>
        <time>2015-02-07T16:13:50Z</time>
      </trkpt>
      <trkpt lat="47.50654" lon="-1.33199">
        <ele>53</ele>
        <time>2015-02-07T16:13:57Z</time>
      </trkpt>
      <trkpt lat="47.50646" lon="-1.33181">
        <ele>52</ele>
        <time>2015-02-07T16:14:01Z</time>
      </trkpt>
      <trkpt lat="47.50625" lon="-1.33166">
        <ele>50</ele>
        <time>2015-02-07T16:14:07Z</time>
      </trkpt>
      <trkpt lat="47.5061" lon="-1.33158">
        <ele>49</ele>
        <time>2015-02-07T16:14:10Z</time>
      </trkpt>
      <trkpt lat="47.50587" lon="-1.33116">
        <ele>47</ele>
        <time>2015-02-07T16:14:17Z</time>
      </trkpt>
      <trkpt lat="47.50581" lon="-1.33095">
        <ele>46</ele>
        <time>2015-02-07T16:14:20Z</time>
      </trkpt>
      <trkpt lat="47.50577" lon="-1.33053">
        <ele>47</ele>
        <time>2015-02-07T16:14:26Z</time>
      </trkpt>
      <trkpt lat="47.50579" lon="-1.33028">
        <ele>46</ele>
        <time>2015-02-07T16:14:30Z</time>
      </trkpt>
      <trkpt lat="47.50583" lon="-1.32984">
        <ele>49</ele>
        <time>2015-02-07T16:14:38Z</time>
      </trkpt>
      <trkpt lat="47.50584" lon="-1.32973">
        <ele>49</ele>
        <time>2015-02-07T16:14:40Z</time>
      </trkpt>
      <trkpt lat="47.50584" lon="-1.32945">
        <ele>50</ele>
        <time>2015-02-07T16:14:45Z</time>
      </trkpt>
      <trkpt lat="47.5058" lon="-1.32904">
        <ele>52</ele>
        <time>2015-02-07T16:14:53Z</time>
      </trkpt>
      <trkpt lat="47.50579" lon="-1.32893">
        <ele>51</ele>
        <time>2015-02-07T16:14:55Z</time>
      </trkpt>
      <trkpt lat="47.50576" lon="-1.32868">
        <ele>53</ele>
        <time>2015-02-07T16:15:00Z</time>
      </trkpt>
      <trkpt lat="47.50577" lon="-1.32842">
        <ele>52</ele>
        <time>2015-02-07T16:15:05Z</time>
      </trkpt>
      <trkpt lat="47.50579" lon="-1.32815">
        <ele>52</ele>
        <time>2015-02-07T16:15:10Z</time>
      </trkpt>
      <trkpt lat="47.50582" lon="-1.32789">
        <ele>54</ele>
        <time>2015-02-07T16:15:15Z</time>
      </trkpt>
      <trkpt lat="47.50587" lon="-1.32763">
        <ele>55</ele>
        <time>2015-02-07T16:15:20Z</time>
      </trkpt>
      <trkpt lat="47.50596" lon="-1.32716">
        <ele>51</ele>
        <time>2015-02-07T16:15:29Z</time>
      </trkpt>
      <trkpt lat="47.50598" lon="-1.32705">
        <ele>51</ele>
        <time>2015-02-07T16:15:31Z</time>
      </trkpt>
      <trkpt lat="47.50602" lon="-1.32685">
        <ele>52</ele>
        <time>2015-02-07T16:15:35Z</time>
      </trkpt>
      <trkpt lat="47.50608" lon="-1.32659">
        <ele>51</ele>
        <time>2015-02-07T16:15:40Z</time>
      </trkpt>
      <trkpt lat="47.50615" lon="-1.32628">
        <ele>51</ele>
        <time>2015-02-07T16:15:46Z</time>
      </trkpt>
      <trkpt lat="47.50627" lon="-1.32629">
        <ele>51</ele>
        <time>2015-02-07T16:15:51Z</time>
      </trkpt>
      <trkpt lat="47.50636" lon="-1.32634">
        <ele>52</ele>
        <time>2015-02-07T16:15:55Z</time>
      </trkpt>
      <trkpt lat="47.50655" lon="-1.32642">
        <ele>51</ele>
        <time>2015-02-07T16:16:00Z</time>
      </trkpt>
      <trkpt lat="47.50675" lon="-1.3265">
        <ele>50</ele>
        <time>2015-02-07T16:16:05Z</time>
      </trkpt>
      <trkpt lat="47.50711" lon="-1.32668">
        <ele>48</ele>
        <time>2015-02-07T16:16:14Z</time>
      </trkpt>
      <trkpt lat="47.50715" lon="-1.32672">
        <ele>47</ele>
        <time>2015-02-07T16:16:15Z</time>
      </trkpt>
      <trkpt lat="47.50733" lon="-1.32689">
        <ele>47</ele>
        <time>2015-02-07T16:16:20Z</time>
      </trkpt>
      <trkpt lat="47.50767" lon="-1.32699">
        <ele>45</ele>
        <time>2015-02-07T16:16:28Z</time>
      </trkpt>
      <trkpt lat="47.50775" lon="-1.32697">
        <ele>44</ele>
        <time>2015-02-07T16:16:30Z</time>
      </trkpt>
      <trkpt lat="47.50805" lon="-1.32696">
        <ele>42</ele>
        <time>2015-02-07T16:16:35Z</time>
      </trkpt>
      <trkpt lat="47.50831" lon="-1.32697">
        <ele>42</ele>
        <time>2015-02-07T16:16:40Z</time>
      </trkpt>
      <trkpt lat="47.50858" lon="-1.32697">
        <ele>45</ele>
        <time>2015-02-07T16:16:46Z</time>
      </trkpt>
      <trkpt lat="47.50874" lon="-1.327">
        <ele>46</ele>
        <time>2015-02-07T16:16:50Z</time>
      </trkpt>
      <trkpt lat="47.50893" lon="-1.32701">
        <ele>45</ele>
        <time>2015-02-07T16:16:55Z</time>
      </trkpt>
      <trkpt lat="47.50916" lon="-1.32699">
        <ele>47</ele>
        <time>2015-02-07T16:17:01Z</time>
      </trkpt>
      <trkpt lat="47.50929" lon="-1.32694">
        <ele>49</ele>
        <time>2015-02-07T16:17:05Z</time>
      </trkpt>
      <trkpt lat="47.50944" lon="-1.32689">
        <ele>49</ele>
        <time>2015-02-07T16:17:10Z</time>
      </trkpt>
      <trkpt lat="47.50972" lon="-1.32676">
        <ele>51</ele>
        <time>2015-02-07T16:17:18Z</time>
      </trkpt>
      <trkpt lat="47.50978" lon="-1.32673">
        <ele>52</ele>
        <time>2015-02-07T16:17:20Z</time>
      </trkpt>
      <trkpt lat="47.50994" lon="-1.32665">
        <ele>52</ele>
        <time>2015-02-07T16:17:25Z</time>
      </trkpt>
      <trkpt lat="47.5101" lon="-1.32659">
        <ele>50</ele>
        <time>2015-02-07T16:17:30Z</time>
      </trkpt>
      <trkpt lat="47.51024" lon="-1.3266">
        <ele>48</ele>
        <time>2015-02-07T16:17:35Z</time>
      </trkpt>
      <trkpt lat="47.51037" lon="-1.32662">
        <ele>49</ele>
        <time>2015-02-07T16:17:40Z</time>
      </trkpt>
      <trkpt lat="47.51056" lon="-1.32668">
        <ele>51</ele>
        <time>2015-02-07T16:17:47Z</time>
      </trkpt>
      <trkpt lat="47.51067" lon="-1.32671">
        <ele>54</ele>
        <time>2015-02-07T16:17:51Z</time>
      </trkpt>
      <trkpt lat="47.51084" lon="-1.32659">
        <ele>51</ele>
        <time>2015-02-07T16:17:58Z</time>
      </trkpt>
      <trkpt lat="47.51082" lon="-1.32649">
        <ele>51</ele>
        <time>2015-02-07T16:18:00Z</time>
      </trkpt>
      <trkpt lat="47.51079" lon="-1.32619">
        <ele>54</ele>
        <time>2015-02-07T16:18:07Z</time>
      </trkpt>
      <trkpt lat="47.51078" lon="-1.32605">
        <ele>57</ele>
        <time>2015-02-07T16:18:10Z</time>
      </trkpt>
      <trkpt lat="47.51077" lon="-1.32582">
        <ele>57</ele>
        <time>2015-02-07T16:18:15Z</time>
      </trkpt>
      <trkpt lat="47.51075" lon="-1.32558">
        <ele>57</ele>
        <time>2015-02-07T16:18:20Z</time>
      </trkpt>
      <trkpt lat="47.51072" lon="-1.32527">
        <ele>58</ele>
        <time>2015-02-07T16:18:26Z</time>
      </trkpt>
      <trkpt lat="47.51069" lon="-1.32485">
        <ele>59</ele>
        <time>2015-02-07T16:18:34Z</time>
      </trkpt>
      <trkpt lat="47.51068" lon="-1.32474">
        <ele>58</ele>
        <time>2015-02-07T16:18:36Z</time>
      </trkpt>
      <trkpt lat="47.51067" lon="-1.32452">
        <ele>57</ele>
        <time>2015-02-07T16:18:40Z</time>
      </trkpt>
      <trkpt lat="47.51064" lon="-1.32407">
        <ele>56</ele>
        <time>2015-02-07T16:18:49Z</time>
      </trkpt>
      <trkpt lat="47.51064" lon="-1.32403">
        <ele>56</ele>
        <time>2015-02-07T16:18:50Z</time>
      </trkpt>
      <trkpt lat="47.51062" lon="-1.32378">
        <ele>57</ele>
        <time>2015-02-07T16:18:55Z</time>
      </trkpt>
      <trkpt lat="47.51059" lon="-1.32347">
        <ele>58</ele>
        <time>2015-02-07T16:19:01Z</time>
      </trkpt>
      <trkpt lat="47.51058" lon="-1.32327">
        <ele>58</ele>
        <time>2015-02-07T16:19:05Z</time>
      </trkpt>
      <trkpt lat="47.51058" lon="-1.32283">
        <ele>60</ele>
        <time>2015-02-07T16:19:14Z</time>
      </trkpt>
      <trkpt lat="47.51059" lon="-1.32264">
        <ele>56</ele>
        <time>2015-02-07T16:19:18Z</time>
      </trkpt>
      <trkpt lat="47.5106" lon="-1.32253">
        <ele>56</ele>
        <time>2015-02-07T16:19:20Z</time>
      </trkpt>
      <trkpt lat="47.5106" lon="-1.32229">
        <ele>57</ele>
        <time>2015-02-07T16:19:25Z</time>
      </trkpt>
      <trkpt lat="47.5106" lon="-1.32185">
        <ele>59</ele>
        <time>2015-02-07T16:19:34Z</time>
      </trkpt>
      <trkpt lat="47.51059" lon="-1.32181">
        <ele>58</ele>
        <time>2015-02-07T16:19:35Z</time>
      </trkpt>
      <trkpt lat="47.51056" lon="-1.3215">
        <ele>57</ele>
        <time>2015-02-07T16:19:42Z</time>
      </trkpt>
      <trkpt lat="47.51054" lon="-1.32131">
        <ele>58</ele>
        <time>2015-02-07T16:19:46Z</time>
      </trkpt>
      <trkpt lat="47.5105" lon="-1.32108">
        <ele>58</ele>
        <time>2015-02-07T16:19:51Z</time>
      </trkpt>
      <trkpt lat="47.51048" lon="-1.32089">
        <ele>58</ele>
        <time>2015-02-07T16:19:55Z</time>
      </trkpt>
      <trkpt lat="47.51046" lon="-1.32065">
        <ele>57</ele>
        <time>2015-02-07T16:20:00Z</time>
      </trkpt>
      <trkpt lat="47.51043" lon="-1.32042">
        <ele>57</ele>
        <time>2015-02-07T16:20:05Z</time>
      </trkpt>
      <trkpt lat="47.51037" lon="-1.32002">
        <ele>59</ele>
        <time>2015-02-07T16:20:14Z</time>
      </trkpt>
      <trkpt lat="47.51036" lon="-1.31998">
        <ele>59</ele>
        <time>2015-02-07T16:20:15Z</time>
      </trkpt>
      <trkpt lat="47.51033" lon="-1.31977">
        <ele>59</ele>
        <time>2015-02-07T16:20:20Z</time>
      </trkpt>
      <trkpt lat="47.51029" lon="-1.31958">
        <ele>60</ele>
        <time>2015-02-07T16:20:25Z</time>
      </trkpt>
      <trkpt lat="47.51019" lon="-1.3194">
        <ele>61</ele>
        <time>2015-02-07T16:20:31Z</time>
      </trkpt>
      <trkpt lat="47.51014" lon="-1.31928">
        <ele>60</ele>
        <time>2015-02-07T16:20:35Z</time>
      </trkpt>
      <trkpt lat="47.51015" lon="-1.3191">
        <ele>61</ele>
        <time>2015-02-07T16:20:40Z</time>
      </trkpt>
      <trkpt lat="47.51022" lon="-1.31895">
        <ele>60</ele>
        <time>2015-02-07T16:20:45Z</time>
      </trkpt>
      <trkpt lat="47.51032" lon="-1.3187">
        <ele>61</ele>
        <time>2015-02-07T16:20:52Z</time>
      </trkpt>
      <trkpt lat="47.5104" lon="-1.31856">
        <ele>61</ele>
        <time>2015-02-07T16:20:55Z</time>
      </trkpt>
      <trkpt lat="47.51079" lon="-1.31816">
        <ele>53</ele>
        <time>2015-02-07T16:21:02Z</time>
      </trkpt>
      <trkpt lat="47.511" lon="-1.31797">
        <ele>47</ele>
        <time>2015-02-07T16:21:05Z</time>
      </trkpt>
      <trkpt lat="47.51126" lon="-1.31757">
        <ele>46</ele>
        <time>2015-02-07T16:21:10Z</time>
      </trkpt>
      <trkpt lat="47.51152" lon="-1.31682">
        <ele>40</ele>
        <time>2015-02-07T16:21:16Z</time>
      </trkpt>
      <trkpt lat="47.5117" lon="-1.31635">
        <ele>35</ele>
        <time>2015-02-07T16:21:20Z</time>
      </trkpt>
      <trkpt lat="47.5121" lon="-1.31571">
        <ele>34</ele>
        <time>2015-02-07T16:21:28Z</time>
      </trkpt>
      <trkpt lat="47.51219" lon="-1.31557">
        <ele>34</ele>
        <time>2015-02-07T16:21:30Z</time>
      </trkpt>
      <trkpt lat="47.51244" lon="-1.3149">
        <ele>33</ele>
        <time>2015-02-07T16:21:39Z</time>
      </trkpt>
      <trkpt lat="47.51247" lon="-1.31453">
        <ele>33</ele>
        <time>2015-02-07T16:21:44Z</time>
      </trkpt>
      <trkpt lat="47.51248" lon="-1.31447">
        <ele>32</ele>
        <time>2015-02-07T16:21:45Z</time>
      </trkpt>
      <trkpt lat="47.51239" lon="-1.31402">
        <ele>37</ele>
        <time>2015-02-07T16:21:53Z</time>
      </trkpt>
      <trkpt lat="47.51233" lon="-1.31379">
        <ele>37</ele>
        <time>2015-02-07T16:21:57Z</time>
      </trkpt>
      <trkpt lat="47.51227" lon="-1.31351">
        <ele>39</ele>
        <time>2015-02-07T16:22:02Z</time>
      </trkpt>
      <trkpt lat="47.51225" lon="-1.31326">
        <ele>38</ele>
        <time>2015-02-07T16:22:06Z</time>
      </trkpt>
      <trkpt lat="47.51233" lon="-1.31301">
        <ele>37</ele>
        <time>2015-02-07T16:22:10Z</time>
      </trkpt>
      <trkpt lat="47.51245" lon="-1.31269">
        <ele>35</ele>
        <time>2015-02-07T16:22:15Z</time>
      </trkpt>
      <trkpt lat="47.51256" lon="-1.31242">
        <ele>35</ele>
        <time>2015-02-07T16:22:20Z</time>
      </trkpt>
      <trkpt lat="47.51269" lon="-1.31209">
        <ele>33</ele>
        <time>2015-02-07T16:22:25Z</time>
      </trkpt>
      <trkpt lat="47.51281" lon="-1.31179">
        <ele>33</ele>
        <time>2015-02-07T16:22:30Z</time>
      </trkpt>
      <trkpt lat="47.51294" lon="-1.31148">
        <ele>34</ele>
        <time>2015-02-07T16:22:35Z</time>
      </trkpt>
      <trkpt lat="47.51307" lon="-1.31115">
        <ele>32</ele>
        <time>2015-02-07T16:22:40Z</time>
      </trkpt>
      <trkpt lat="47.51316" lon="-1.3108">
        <ele>30</ele>
        <time>2015-02-07T16:22:45Z</time>
      </trkpt>
      <trkpt lat="47.51328" lon="-1.31023">
        <ele>31</ele>
        <time>2015-02-07T16:22:54Z</time>
      </trkpt>
      <trkpt lat="47.5133" lon="-1.31016">
        <ele>31</ele>
        <time>2015-02-07T16:22:55Z</time>
      </trkpt>
      <trkpt lat="47.51335" lon="-1.30986">
        <ele>29</ele>
        <time>2015-02-07T16:23:00Z</time>
      </trkpt>
      <trkpt lat="47.51343" lon="-1.30956">
        <ele>31</ele>
        <time>2015-02-07T16:23:05Z</time>
      </trkpt>
      <trkpt lat="47.51351" lon="-1.30923">
        <ele>30</ele>
        <time>2015-02-07T16:23:10Z</time>
      </trkpt>
      <trkpt lat="47.51359" lon="-1.30885">
        <ele>29</ele>
        <time>2015-02-07T16:23:16Z</time>
      </trkpt>
      <trkpt lat="47.51371" lon="-1.30833">
        <ele>29</ele>
        <time>2015-02-07T16:23:24Z</time>
      </trkpt>
      <trkpt lat="47.51373" lon="-1.3082">
        <ele>29</ele>
        <time>2015-02-07T16:23:26Z</time>
      </trkpt>
      <trkpt lat="47.51379" lon="-1.30795">
        <ele>29</ele>
        <time>2015-02-07T16:23:30Z</time>
      </trkpt>
      <trkpt lat="47.51388" lon="-1.30763">
        <ele>29</ele>
        <time>2015-02-07T16:23:35Z</time>
      </trkpt>
      <trkpt lat="47.514" lon="-1.30707">
        <ele>26</ele>
        <time>2015-02-07T16:23:43Z</time>
      </trkpt>
      <trkpt lat="47.51404" lon="-1.30695">
        <ele>27</ele>
        <time>2015-02-07T16:23:45Z</time>
      </trkpt>
      <trkpt lat="47.5141" lon="-1.30664">
        <ele>28</ele>
        <time>2015-02-07T16:23:50Z</time>
      </trkpt>
      <trkpt lat="47.5142" lon="-1.30626">
        <ele>28</ele>
        <time>2015-02-07T16:23:56Z</time>
      </trkpt>
      <trkpt lat="47.51427" lon="-1.30594">
        <ele>27</ele>
        <time>2015-02-07T16:24:01Z</time>
      </trkpt>
      <trkpt lat="47.51436" lon="-1.30563">
        <ele>29</ele>
        <time>2015-02-07T16:24:06Z</time>
      </trkpt>
      <trkpt lat="47.51426" lon="-1.30523">
        <ele>31</ele>
        <time>2015-02-07T16:24:14Z</time>
      </trkpt>
      <trkpt lat="47.51422" lon="-1.30522">
        <ele>32</ele>
        <time>2015-02-07T16:24:15Z</time>
      </trkpt>
      <trkpt lat="47.51402" lon="-1.30512">
        <ele>29</ele>
        <time>2015-02-07T16:24:20Z</time>
      </trkpt>
      <trkpt lat="47.51385" lon="-1.30504">
        <ele>30</ele>
        <time>2015-02-07T16:24:25Z</time>
      </trkpt>
      <trkpt lat="47.51371" lon="-1.30497">
        <ele>30</ele>
        <time>2015-02-07T16:24:30Z</time>
      </trkpt>
      <trkpt lat="47.51357" lon="-1.30491">
        <ele>31</ele>
        <time>2015-02-07T16:24:35Z</time>
      </trkpt>
      <trkpt lat="47.51336" lon="-1.30487">
        <ele>31</ele>
        <time>2015-02-07T16:24:43Z</time>
      </trkpt>
      <trkpt lat="47.51329" lon="-1.30484">
        <ele>31</ele>
        <time>2015-02-07T16:24:45Z</time>
      </trkpt>
      <trkpt lat="47.51315" lon="-1.30477">
        <ele>30</ele>
        <time>2015-02-07T16:24:50Z</time>
      </trkpt>
      <trkpt lat="47.51301" lon="-1.30469">
        <ele>30</ele>
        <time>2015-02-07T16:24:55Z</time>
      </trkpt>
      <trkpt lat="47.51286" lon="-1.3046">
        <ele>31</ele>
        <time>2015-02-07T16:25:00Z</time>
      </trkpt>
      <trkpt lat="47.51274" lon="-1.30452">
        <ele>30</ele>
        <time>2015-02-07T16:25:05Z</time>
      </trkpt>
      <trkpt lat="47.51265" lon="-1.30446">
        <ele>28</ele>
        <time>2015-02-07T16:25:12Z</time>
      </trkpt>
      <trkpt lat="47.51268" lon="-1.30446">
        <ele>27</ele>
        <time>2015-02-07T16:25:15Z</time>
      </trkpt>
      <trkpt lat="47.51268" lon="-1.30446">
        <ele>28</ele>
        <time>2015-02-07T16:25:20Z</time>
      </trkpt>
      <trkpt lat="47.51268" lon="-1.30446">
        <ele>27</ele>
        <time>2015-02-07T16:25:23Z</time>
      </trkpt>
      <trkpt lat="47.51268" lon="-1.3044">
        <ele>30</ele>
        <time>2015-02-07T16:25:26Z</time>
      </trkpt>
      <trkpt lat="47.51273" lon="-1.30428">
        <ele>30</ele>
        <time>2015-02-07T16:25:31Z</time>
      </trkpt>
      <trkpt lat="47.51285" lon="-1.30415">
        <ele>28</ele>
        <time>2015-02-07T16:25:36Z</time>
      </trkpt>
      <trkpt lat="47.51303" lon="-1.30393">
        <ele>31</ele>
        <time>2015-02-07T16:25:42Z</time>
      </trkpt>
      <trkpt lat="47.51314" lon="-1.30378">
        <ele>30</ele>
        <time>2015-02-07T16:25:46Z</time>
      </trkpt>
      <trkpt lat="47.51338" lon="-1.30346">
        <ele>30</ele>
        <time>2015-02-07T16:25:54Z</time>
      </trkpt>
      <trkpt lat="47.51344" lon="-1.30338">
        <ele>29</ele>
        <time>2015-02-07T16:25:56Z</time>
      </trkpt>
      <trkpt lat="47.51361" lon="-1.30317">
        <ele>27</ele>
        <time>2015-02-07T16:26:01Z</time>
      </trkpt>
      <trkpt lat="47.51377" lon="-1.30295">
        <ele>27</ele>
        <time>2015-02-07T16:26:06Z</time>
      </trkpt>
      <trkpt lat="47.51399" lon="-1.30267">
        <ele>24</ele>
        <time>2015-02-07T16:26:13Z</time>
      </trkpt>
      <trkpt lat="47.51415" lon="-1.30243">
        <ele>25</ele>
        <time>2015-02-07T16:26:18Z</time>
      </trkpt>
      <trkpt lat="47.51427" lon="-1.30228">
        <ele>25</ele>
        <time>2015-02-07T16:26:21Z</time>
      </trkpt>
      <trkpt lat="47.51449" lon="-1.30206">
        <ele>26</ele>
        <time>2015-02-07T16:26:26Z</time>
      </trkpt>
      <trkpt lat="47.5147" lon="-1.30177">
        <ele>23</ele>
        <time>2015-02-07T16:26:31Z</time>
      </trkpt>
      <trkpt lat="47.51495" lon="-1.30143">
        <ele>21</ele>
        <time>2015-02-07T16:26:36Z</time>
      </trkpt>
      <trkpt lat="47.51521" lon="-1.30113">
        <ele>22</ele>
        <time>2015-02-07T16:26:41Z</time>
      </trkpt>
      <trkpt lat="47.51543" lon="-1.30083">
        <ele>23</ele>
        <time>2015-02-07T16:26:46Z</time>
      </trkpt>
      <trkpt lat="47.51568" lon="-1.30051">
        <ele>24</ele>
        <time>2015-02-07T16:26:52Z</time>
      </trkpt>
      <trkpt lat="47.51582" lon="-1.30032">
        <ele>24</ele>
        <time>2015-02-07T16:26:56Z</time>
      </trkpt>
      <trkpt lat="47.516" lon="-1.3001">
        <ele>24</ele>
        <time>2015-02-07T16:27:01Z</time>
      </trkpt>
      <trkpt lat="47.51615" lon="-1.29991">
        <ele>25</ele>
        <time>2015-02-07T16:27:06Z</time>
      </trkpt>
      <trkpt lat="47.51629" lon="-1.2997">
        <ele>25</ele>
        <time>2015-02-07T16:27:11Z</time>
      </trkpt>
      <trkpt lat="47.51642" lon="-1.29954">
        <ele>26</ele>
        <time>2015-02-07T16:27:16Z</time>
      </trkpt>
      <trkpt lat="47.51655" lon="-1.29939">
        <ele>25</ele>
        <time>2015-02-07T16:27:21Z</time>
      </trkpt>
      <trkpt lat="47.51666" lon="-1.29922">
        <ele>24</ele>
        <time>2015-02-07T16:27:26Z</time>
      </trkpt>
      <trkpt lat="47.51678" lon="-1.29906">
        <ele>24</ele>
        <time>2015-02-07T16:27:31Z</time>
      </trkpt>
      <trkpt lat="47.51689" lon="-1.29889">
        <ele>25</ele>
        <time>2015-02-07T16:27:36Z</time>
      </trkpt>
      <trkpt lat="47.51696" lon="-1.29869">
        <ele>28</ele>
        <time>2015-02-07T16:27:42Z</time>
      </trkpt>
      <trkpt lat="47.51695" lon="-1.29853">
        <ele>30</ele>
        <time>2015-02-07T16:27:48Z</time>
      </trkpt>
      <trkpt lat="47.51694" lon="-1.29845">
        <ele>29</ele>
        <time>2015-02-07T16:27:52Z</time>
      </trkpt>
      <trkpt lat="47.51694" lon="-1.29838">
        <ele>30</ele>
        <time>2015-02-07T16:27:56Z</time>
      </trkpt>
      <trkpt lat="47.51695" lon="-1.29811">
        <ele>31</ele>
        <time>2015-02-07T16:28:05Z</time>
      </trkpt>
      <trkpt lat="47.51696" lon="-1.29807">
        <ele>30</ele>
        <time>2015-02-07T16:28:06Z</time>
      </trkpt>
      <trkpt lat="47.51699" lon="-1.2979">
        <ele>32</ele>
        <time>2015-02-07T16:28:11Z</time>
      </trkpt>
      <trkpt lat="47.51703" lon="-1.29775">
        <ele>33</ele>
        <time>2015-02-07T16:28:16Z</time>
      </trkpt>
      <trkpt lat="47.5171" lon="-1.29756">
        <ele>31</ele>
        <time>2015-02-07T16:28:21Z</time>
      </trkpt>
      <trkpt lat="47.51717" lon="-1.29736">
        <ele>28</ele>
        <time>2015-02-07T16:28:26Z</time>
      </trkpt>
      <trkpt lat="47.51725" lon="-1.29712">
        <ele>26</ele>
        <time>2015-02-07T16:28:31Z</time>
      </trkpt>
      <trkpt lat="47.5173" lon="-1.29688">
        <ele>26</ele>
        <time>2015-02-07T16:28:36Z</time>
      </trkpt>
      <trkpt lat="47.51736" lon="-1.29656">
        <ele>31</ele>
        <time>2015-02-07T16:28:43Z</time>
      </trkpt>
      <trkpt lat="47.51745" lon="-1.29631">
        <ele>33</ele>
        <time>2015-02-07T16:28:49Z</time>
      </trkpt>
      <trkpt lat="47.51748" lon="-1.29622">
        <ele>32</ele>
        <time>2015-02-07T16:28:51Z</time>
      </trkpt>
      <trkpt lat="47.51754" lon="-1.29589">
        <ele>28</ele>
        <time>2015-02-07T16:28:59Z</time>
      </trkpt>
      <trkpt lat="47.51756" lon="-1.29581">
        <ele>28</ele>
        <time>2015-02-07T16:29:01Z</time>
      </trkpt>
      <trkpt lat="47.51759" lon="-1.29559">
        <ele>28</ele>
        <time>2015-02-07T16:29:06Z</time>
      </trkpt>
      <trkpt lat="47.51764" lon="-1.29531">
        <ele>30</ele>
        <time>2015-02-07T16:29:12Z</time>
      </trkpt>
      <trkpt lat="47.51767" lon="-1.29513">
        <ele>31</ele>
        <time>2015-02-07T16:29:16Z</time>
      </trkpt>
      <trkpt lat="47.51772" lon="-1.29489">
        <ele>33</ele>
        <time>2015-02-07T16:29:21Z</time>
      </trkpt>
      <trkpt lat="47.51774" lon="-1.2946">
        <ele>33</ele>
        <time>2015-02-07T16:29:27Z</time>
      </trkpt>
      <trkpt lat="47.51778" lon="-1.29442">
        <ele>35</ele>
        <time>2015-02-07T16:29:31Z</time>
      </trkpt>
      <trkpt lat="47.51783" lon="-1.29414">
        <ele>31</ele>
        <time>2015-02-07T16:29:37Z</time>
      </trkpt>
      <trkpt lat="47.51787" lon="-1.29387">
        <ele>33</ele>
        <time>2015-02-07T16:29:45Z</time>
      </trkpt>
      <trkpt lat="47.51776" lon="-1.29386">
        <ele>36</ele>
        <time>2015-02-07T16:29:50Z</time>
      </trkpt>
      <trkpt lat="47.51759" lon="-1.29398">
        <ele>35</ele>
        <time>2015-02-07T16:29:55Z</time>
      </trkpt>
      <trkpt lat="47.51755" lon="-1.29399">
        <ele>36</ele>
        <time>2015-02-07T16:29:59Z</time>
      </trkpt>
      <trkpt lat="47.51755" lon="-1.29399">
        <ele>36</ele>
        <time>2015-02-07T16:30:01Z</time>
      </trkpt>
      <trkpt lat="47.51755" lon="-1.29399">
        <ele>36</ele>
        <time>2015-02-07T16:30:04Z</time>
      </trkpt>
      <trkpt lat="47.51756" lon="-1.294">
        <ele>36</ele>
        <time>2015-02-07T16:30:07Z</time>
      </trkpt>
      <trkpt lat="47.51758" lon="-1.294">
        <ele>36</ele>
        <time>2015-02-07T16:30:12Z</time>
      </trkpt>
      <trkpt lat="47.51755" lon="-1.29402">
        <ele>31</ele>
        <time>2015-02-07T16:30:16Z</time>
      </trkpt>
      <trkpt lat="47.51756" lon="-1.29402">
        <ele>33</ele>
        <time>2015-02-07T16:30:20Z</time>
      </trkpt>
      <trkpt lat="47.51756" lon="-1.29401">
        <ele>32</ele>
        <time>2015-02-07T16:30:23Z</time>
      </trkpt>
      <trkpt lat="47.51756" lon="-1.29402">
        <ele>32</ele>
        <time>2015-02-07T16:30:26Z</time>
      </trkpt>
      <trkpt lat="47.51756" lon="-1.29403">
        <ele>33</ele>
        <time>2015-02-07T16:30:30Z</time>
      </trkpt>
      <trkpt lat="47.51756" lon="-1.29403">
        <ele>33</ele>
        <time>2015-02-07T16:30:34Z</time>
      </trkpt>
      <trkpt lat="47.51756" lon="-1.29403">
        <ele>33</ele>
        <time>2015-02-07T16:30:35Z</time>
      </trkpt>
      <trkpt lat="47.51756" lon="-1.29403">
        <ele>33</ele>
        <time>2015-02-07T16:30:38Z</time>
      </trkpt>
      <trkpt lat="47.51756" lon="-1.29403">
        <ele>34</ele>
        <time>2015-02-07T16:30:41Z</time>
      </trkpt>
      <trkpt lat="47.51756" lon="-1.29402">
        <ele>34</ele>
        <time>2015-02-07T16:30:44Z</time>
      </trkpt>
      <trkpt lat="47.51756" lon="-1.29401">
        <ele>33</ele>
        <time>2015-02-07T16:30:47Z</time>
      </trkpt>
      <trkpt lat="47.51756" lon="-1.29401">
        <ele>33</ele>
        <time>2015-02-07T16:30:50Z</time>
      </trkpt>
      <trkpt lat="47.51756" lon="-1.294">
        <ele>33</ele>
        <time>2015-02-07T16:30:53Z</time>
      </trkpt>
      <trkpt lat="47.51756" lon="-1.294">
        <ele>33</ele>
        <time>2015-02-07T16:30:56Z</time>
      </trkpt>
      <trkpt lat="47.51756" lon="-1.294">
        <ele>33</ele>
        <time>2015-02-07T16:30:59Z</time>
      </trkpt>
      <trkpt lat="47.51756" lon="-1.294">
        <ele>33</ele>
        <time>2015-02-07T16:31:02Z</time>
      </trkpt>
      <trkpt lat="47.51756" lon="-1.294">
        <ele>33</ele>
        <time>2015-02-07T16:31:05Z</time>
      </trkpt>
      <trkpt lat="47.51756" lon="-1.294">
        <ele>33</ele>
        <time>2015-02-07T16:31:10Z</time>
      </trkpt>
      <trkpt lat="47.51756" lon="-1.294">
        <ele>33</ele>
        <time>2015-02-07T16:31:11Z</time>
      </trkpt>
    </trkseg>
  </trk>
</gpx>